GFSSGP_925_spd_012.txt.gz
Wind_Speed
10 5 2 4 4 5 2 1 2 2 3 3 1 6 7 3 3 2 2 8 8 8 8 7 7 9 10 9 10 7 8 5 5 5 5 6 7 8 9 10 9 5 3 7 8 5 9 8 7
8 3 4 2 5 5 3 4 4 2 5 4 6 4 7 4 3 5 7 12 10 10 10 10 9 11 10 9 10 8 8 6 4 4 3 4 5 8 9 9 6 7 9 9 8 4 4 5 7
2 4 4 5 4 4 3 2 4 3 2 3 3 3 3 3 2 8 12 15 12 11 11 10 10 11 9 9 9 7 6 5 4 3 3 5 6 7 8 9 11 10 11 8 6 3 5 7 7
2 5 4 6 4 3 3 4 5 5 0 5 2 5 3 1 10 9 20 16 13 13 12 11 11 11 9 8 7 6 5 5 5 4 5 5 5 6 8 6 8 8 7 6 7 7 7 9 9
5 3 5 5 4 3 3 3 6 6 4 2 2 2 2 2 11 22 19 16 17 17 15 13 10 9 7 5 4 4 3 3 4 4 3 4 3 4 4 3 4 3 4 6 8 8 9 11 12
4 4 5 4 1 2 3 2 1 3 3 5 5 4 2 8 22 21 18 16 16 18 16 12 9 7 5 3 3 2 2 2 3 4 3 1 0 1 2 2 2 3 5 7 7 7 8 10 8
6 5 4 4 2 2 1 5 3 3 3 2 7 4 1 8 19 21 17 15 16 14 12 11 9 7 4 3 2 3 2 2 2 3 2 1 1 2 2 2 2 2 3 4 5 6 5 6 6
5 5 3 3 2 2 3 2 2 2 3 3 3 5 4 9 20 19 16 16 14 14 12 11 8 5 3 2 2 3 3 3 3 2 3 2 2 3 3 3 4 4 5 6 6 7 7 6 6
3 5 2 2 3 2 3 2 2 2 4 2 5 6 4 24 23 19 16 14 13 13 12 11 9 6 3 1 1 1 1 2 4 4 5 4 3 3 4 4 5 5 5 6 7 8 7 7 7
5 5 3 3 3 0 2 1 1 3 3 2 1 3 10 25 25 22 20 19 18 16 15 13 10 7 5 4 4 3 2 4 5 6 6 6 5 5 5 6 7 8 8 6 6 6 9 9 9
1 4 3 2 2 1 3 3 0 8 2 6 8 6 8 11 19 20 22 23 24 19 17 15 11 10 8 9 9 8 7 8 8 7 7 9 9 9 9 9 9 9 9 8 8 7 6 8 10
6 4 4 1 3 4 2 2 2 5 7 7 8 9 9 8 12 18 20 24 23 23 20 15 13 10 9 10 12 12 11 10 10 10 10 10 10 11 12 11 11 11 10 10 9 8 9 8 9
4 2 5 3 6 3 2 3 3 7 9 2 8 8 10 9 15 19 21 22 21 23 22 18 14 11 10 10 11 12 12 12 12 13 12 12 12 13 14 14 14 13 12 11 10 9 10 8 6
1 1 2 3 2 1 2 2 2 5 2 2 7 11 10 9 19 12 16 21 24 25 24 18 15 12 9 7 8 8 10 11 13 14 14 14 15 16 16 15 15 15 14 13 12 10 9 8 7
4 4 6 7 5 2 3 5 6 4 3 5 7 8 8 11 11 18 19 21 23 29 23 20 14 11 8 7 8 8 8 10 12 14 15 16 16 16 17 16 17 17 16 14 13 12 11 9 7
6 6 5 6 3 3 3 8 11 2 2 9 8 8 8 8 9 17 16 17 19 25 20 16 12 9 8 7 8 9 10 11 12 14 15 17 18 17 17 18 18 17 18 17 15 14 12 10 9
7 1 2 7 4 5 3 8 9 4 7 10 6 7 6 5 4 7 12 13 16 18 16 16 13 10 8 8 8 11 12 13 13 14 17 19 21 21 21 22 21 19 19 20 19 18 16 14 12
2 2 3 2 5 7 5 7 9 7 7 8 6 6 6 3 1 5 8 11 12 14 15 15 13 11 9 8 9 11 13 14 15 15 19 21 23 25 27 27 26 23 23 24 22 22 20 19 15
1 1 3 3 2 5 3 6 9 9 7 7 3 5 7 5 4 5 7 8 11 13 16 15 13 11 10 9 11 12 15 15 17 17 21 24 27 29 30 31 31 29 29 30 28 26 24 23 19
3 2 4 5 3 0 5 8 6 8 5 5 6 6 6 5 3 8 12 12 15 17 16 14 12 11 11 13 11 11 14 18 23 26 28 29 30 34 36 37 38 37 35 35 33 31 29 27 22
4 2 3 5 6 1 6 4 6 4 5 7 7 3 2 5 6 2 6 10 11 12 12 10 10 11 11 12 15 17 20 22 26 30 30 31 35 36 35 39 45 45 42 41 40 38 36 29 24
3 2 2 5 2 1 4 2 5 6 3 6 5 2 2 3 3 4 7 6 8 6 7 9 10 8 7 9 13 15 19 23 29 29 31 30 28 31 31 31 35 44 46 43 42 38 33 25 16
7 4 2 1 3 3 8 4 6 6 4 2 2 6 4 6 6 4 4 3 5 3 6 10 12 12 14 18 21 22 24 25 27 29 28 28 29 27 28 28 27 33 36 35 29 19 15 13 9
6 4 5 4 2 3 3 3 5 3 4 4 4 3 5 5 6 7 6 9 13 14 15 16 17 20 22 23 23 22 22 25 28 30 30 32 31 28 26 24 20 17 12 9 14 17 14 10 8
9 6 3 5 5 3 3 1 5 6 4 2 0 5 7 8 7 5 8 13 15 18 18 18 19 22 24 21 18 19 21 26 31 33 34 34 30 24 19 12 5 15 18 15 13 14 14 10 9
3 4 4 2 1 4 5 3 3 3 5 8 7 6 7 8 6 7 10 10 13 17 19 19 18 23 24 20 20 20 23 27 30 32 34 32 20 10 4 15 16 12 10 9 13 13 11 5 6
2 4 2 5 2 3 3 5 5 3 7 7 8 7 6 6 6 6 6 8 14 19 19 19 17 19 21 19 20 23 28 32 33 35 31 24 9 12 15 10 5 5 3 9 16 10 7 5 4
6 4 4 3 2 3 5 5 4 6 8 8 6 6 7 6 7 6 7 9 13 15 17 17 19 19 21 19 20 26 31 35 33 32 25 13 11 12 6 2 7 9 6 11 7 9 9 9 9
4 3 5 4 3 3 3 6 5 4 4 5 4 5 6 7 6 7 12 13 14 15 17 19 21 21 24 19 23 30 35 33 32 21 13 12 10 2 2 7 11 9 10 8 9 10 9 12 13
2 3 4 4 3 1 3 6 4 7 2 5 1 5 6 6 8 9 17 19 18 24 24 22 22 23 21 19 28 32 30 29 20 6 6 4 1 5 8 9 12 15 14 13 13 13 14 15 17

GFSSGP_925_spd_015.txt.gz
Wind_Speed
5 3 3 4 2 4 3 2 2 4 2 2 3 4 7 4 1 3 4 8 7 8 10 10 8 7 7 8 9 7 7 7 6 8 9 9 10 10 9 8 6 3 2 5 8 7 5 6 3
2 4 3 2 4 8 3 2 3 3 8 5 7 5 3 4 2 6 7 11 9 10 11 10 10 9 8 8 8 8 6 5 5 5 7 8 8 8 7 6 3 5 8 10 9 5 4 5 3
3 4 2 4 3 5 5 1 8 6 3 1 4 4 3 4 4 11 6 13 12 13 12 12 11 10 8 7 7 6 6 5 4 3 3 4 6 8 7 6 9 11 12 9 6 3 4 3 4
2 3 3 6 7 2 3 7 6 6 3 3 5 7 3 2 8 7 18 14 11 12 13 11 10 9 8 7 7 6 5 5 5 3 4 1 1 3 3 4 6 6 5 3 4 4 5 6 7
6 3 5 7 6 3 2 3 4 2 2 3 1 4 3 1 5 16 16 15 14 14 13 12 9 8 7 6 6 5 5 5 3 3 3 2 1 3 3 3 3 2 3 5 6 5 5 6 7
3 2 6 9 6 3 3 2 2 3 3 4 5 4 2 1 14 18 16 14 14 14 13 12 9 7 6 4 6 4 4 4 4 4 2 0 1 1 1 1 1 2 3 4 6 6 7 6 5
5 4 3 5 5 3 2 2 5 4 4 3 7 4 2 5 12 17 14 14 14 14 13 11 9 6 4 4 4 3 3 2 3 3 2 1 2 2 3 3 3 3 5 5 5 5 4 4 4
4 4 4 1 4 3 1 2 3 2 2 3 2 5 6 11 17 16 12 12 13 13 12 10 7 5 3 3 3 3 3 2 2 2 2 3 4 5 4 4 4 5 6 7 6 5 5 4 5
2 4 3 4 5 3 0 3 1 1 4 1 2 4 1 20 19 15 10 10 11 12 10 10 8 5 3 3 2 2 1 0 2 3 4 4 4 4 5 5 5 6 6 7 8 8 6 5 6
4 3 3 2 3 3 2 2 2 3 2 2 2 2 6 21 21 18 15 14 14 14 14 12 10 7 4 3 3 2 2 2 3 5 6 5 5 7 7 8 9 9 9 9 9 9 9 9 7
2 4 4 2 3 3 2 2 1 6 1 4 6 8 14 19 18 18 17 17 18 15 15 15 11 9 7 6 6 6 5 5 5 6 7 8 8 9 9 10 11 10 10 10 10 10 9 9 9
6 2 3 4 4 3 3 2 1 4 3 3 3 12 17 15 18 18 18 20 16 18 18 16 13 11 9 8 8 9 9 8 8 9 9 10 11 10 11 12 12 12 12 11 11 11 11 10 9
5 2 2 2 6 2 4 2 1 6 8 2 5 13 15 16 18 19 20 16 15 18 17 16 14 12 9 7 8 9 10 10 10 11 12 12 12 13 13 14 14 14 14 13 12 11 12 11 8
2 3 2 4 2 2 1 1 0 1 2 5 7 12 14 16 20 14 15 17 19 20 18 17 15 11 8 6 7 7 9 10 11 11 12 13 14 16 17 17 17 17 16 15 15 13 12 11 10
2 4 2 9 5 3 2 2 3 4 2 3 6 8 12 15 13 18 14 16 17 20 18 18 16 11 9 8 7 6 7 9 10 11 12 13 14 16 18 19 19 19 18 18 17 16 14 13 12
5 4 4 4 7 3 1 5 6 5 5 8 5 7 10 12 12 10 12 13 16 19 19 19 17 12 10 9 8 8 9 9 11 12 14 14 15 17 19 21 22 21 20 20 19 17 16 15 13
8 3 3 4 3 5 5 5 5 12 9 11 5 5 8 10 9 6 7 9 10 14 18 19 16 13 11 10 9 8 9 9 10 13 15 17 17 19 22 24 25 24 23 24 22 20 20 16 15
0 1 1 3 5 6 3 7 11 11 4 4 4 1 5 6 2 5 8 7 8 11 14 15 14 13 12 11 9 10 9 10 12 14 17 19 21 22 24 27 30 29 28 28 27 25 22 22 18
3 2 3 3 2 5 3 6 8 10 9 9 6 5 6 5 4 2 1 4 8 10 13 14 14 11 10 8 8 8 8 12 15 18 22 23 24 24 26 28 30 30 30 33 32 28 24 21 21
1 2 1 3 1 1 5 5 4 10 7 5 6 7 6 5 3 3 3 4 6 6 6 6 3 4 6 9 10 12 16 15 18 20 23 24 26 28 27 25 26 27 25 28 34 30 24 20 20
1 2 2 3 7 1 4 2 7 5 6 7 7 5 3 5 5 3 5 6 9 7 5 5 6 7 8 8 10 11 11 13 14 18 23 25 22 21 24 24 24 25 24 26 29 29 29 28 21
3 2 4 4 1 1 4 3 5 6 4 5 3 4 5 6 7 10 10 11 9 8 8 9 13 14 13 12 12 13 11 12 14 17 20 26 26 27 27 27 26 25 22 23 23 23 25 24 26
3 2 1 1 3 2 5 1 4 4 6 6 8 5 5 7 7 9 11 11 14 16 17 14 13 15 15 16 16 14 12 11 17 22 26 28 27 28 27 25 25 23 19 17 15 15 13 15 22
4 2 3 3 2 1 1 2 4 5 5 5 5 10 8 8 7 7 9 11 12 13 13 13 14 14 17 17 15 14 14 19 21 25 29 31 29 29 28 22 17 13 6 4 9 10 10 7 6
8 3 1 2 2 1 2 1 4 9 8 6 8 9 10 9 8 8 10 9 9 12 13 14 16 16 19 18 19 20 21 23 24 28 29 29 28 21 18 11 4 6 12 12 10 9 8 10 9
4 2 2 1 2 4 2 4 6 8 7 8 8 7 7 8 6 6 3 1 5 9 13 16 16 16 19 21 20 19 20 24 28 26 28 26 23 16 6 3 6 7 5 5 6 8 9 8 9
1 5 1 5 1 1 3 1 3 7 9 8 7 8 8 6 4 2 3 6 8 13 16 18 20 19 17 19 18 18 21 26 26 28 28 25 19 6 5 5 1 1 5 7 10 7 3 1 3
3 4 1 3 2 2 4 4 3 3 5 5 5 4 5 5 6 7 11 13 12 13 16 18 15 15 15 17 14 17 22 23 25 27 24 15 5 6 4 5 4 6 7 8 5 4 3 4 6
2 2 5 4 1 1 3 5 4 6 0 5 3 1 3 6 7 9 13 16 15 14 15 16 15 15 15 15 16 22 24 24 24 19 13 5 4 2 2 3 7 10 11 13 12 8 6 6 8
2 3 3 2 2 1 1 7 2 7 2 5 4 1 4 7 9 11 14 14 13 12 17 18 16 15 17 15 20 19 17 18 16 8 4 2 3 3 4 6 12 12 14 12 13 11 9 9 11

GFSSGP_925_spd_018.txt.gz
Wind_Speed
1 3 3 5 5 3 10 7 8 10 6 3 2 4 8 9 6 5 10 8 9 10 9 7 8 8 7 8 6 6 5 5 6 6 6 6 5 7 6 6 4 2 1 4 6 6 4 4 4
1 3 4 2 5 11 9 8 9 9 12 10 7 4 4 6 6 11 12 9 9 10 9 8 8 9 9 8 7 6 5 4 4 4 4 5 3 3 2 0 1 2 5 7 7 6 3 3 3
3 5 3 4 5 11 11 9 14 12 5 4 4 5 2 5 6 12 11 12 11 9 8 7 8 8 7 7 6 5 4 5 5 4 4 4 3 1 2 3 6 7 8 6 5 5 5 3 5
4 6 4 5 15 7 14 13 12 9 5 3 6 9 7 4 9 7 14 11 11 10 10 10 10 9 8 7 7 6 4 5 4 4 4 3 1 2 3 3 6 6 6 4 5 6 5 6 6
3 4 8 11 14 12 9 10 5 6 6 7 2 6 6 7 7 15 12 11 12 12 10 9 10 8 8 7 6 6 5 6 5 5 4 3 1 1 2 3 4 3 4 5 6 5 5 5 5
4 4 12 13 13 11 8 6 4 4 5 6 7 8 7 7 13 13 12 12 11 11 10 9 9 8 6 5 4 4 3 4 4 4 4 3 2 2 1 1 2 2 3 3 4 3 3 3 3
6 4 14 15 14 11 9 4 7 7 7 5 6 7 6 10 13 12 11 11 10 9 9 8 7 6 5 4 4 3 3 4 4 4 4 4 3 2 2 2 2 3 3 3 3 4 4 4 3
2 5 13 13 10 12 6 6 5 3 6 5 1 5 8 16 16 13 11 10 9 8 7 7 5 4 3 2 1 2 3 3 4 5 4 4 5 4 3 4 3 2 3 4 4 5 5 6 6
2 6 8 8 8 9 7 6 4 1 7 3 3 3 7 21 18 15 12 11 10 8 7 7 5 3 2 1 0 2 3 3 5 6 5 5 2 3 4 4 5 5 6 7 7 7 7 7 8
2 6 5 3 5 10 7 3 6 5 6 5 7 6 11 21 20 17 15 14 12 11 11 9 7 5 2 2 1 1 1 1 1 3 2 3 3 3 4 5 8 9 8 9 9 9 8 6 6
2 8 9 7 6 5 7 6 3 4 6 7 7 10 16 20 18 15 13 12 12 12 10 9 7 6 3 2 2 2 2 2 3 3 3 5 6 7 7 6 7 7 10 7 8 8 7 7 7
11 8 5 6 5 4 5 4 4 5 7 4 2 10 17 17 16 14 12 12 12 12 11 9 8 5 5 4 3 3 4 4 5 5 6 6 7 7 8 9 10 10 10 10 10 10 9 8 8
13 9 6 4 6 3 1 3 2 4 3 3 6 10 13 12 14 13 13 13 12 12 10 11 9 8 6 5 4 4 4 4 5 6 7 7 8 8 9 10 11 11 11 11 11 12 12 11 9
6 7 5 4 5 2 4 2 3 6 3 5 7 10 12 12 13 13 14 14 13 12 11 11 11 11 8 5 4 3 3 4 4 5 6 8 7 8 9 10 11 12 11 12 12 13 13 12 11
9 10 6 6 3 2 4 8 6 4 0 2 6 8 11 13 14 14 12 11 10 10 11 12 12 10 8 6 4 4 3 3 4 4 6 7 9 10 11 12 12 13 13 13 13 13 13 13 13
4 4 6 7 2 2 6 8 7 4 6 7 7 6 12 15 15 11 8 9 10 11 11 11 12 11 8 6 4 4 4 4 4 5 6 8 10 11 13 14 14 14 15 16 16 16 16 15 15
2 2 2 6 4 4 3 3 4 8 9 11 9 8 11 14 14 8 8 10 11 10 11 12 12 10 7 5 5 5 5 5 5 6 7 9 11 12 14 17 18 17 18 18 19 19 18 19 18
2 2 2 3 4 5 4 4 5 9 7 2 3 5 8 11 9 6 6 6 5 4 4 7 8 5 3 3 5 6 6 6 6 7 8 9 11 13 14 16 19 19 20 22 22 22 22 22 22
1 2 3 1 3 9 1 3 8 9 8 7 5 5 7 9 6 4 5 5 4 4 3 3 4 1 0 2 3 5 5 7 8 9 10 12 13 14 16 18 20 20 21 23 24 25 25 26 25
2 3 1 1 1 5 3 3 7 10 10 9 9 10 10 11 11 12 12 12 12 10 8 6 4 4 3 2 3 5 8 8 9 8 12 11 14 15 15 17 19 20 21 21 23 23 25 27 25
1 2 4 5 6 3 3 6 5 6 10 10 12 12 12 11 10 10 12 12 11 10 8 6 7 7 8 7 5 6 7 8 10 13 15 15 15 16 17 18 20 20 21 23 22 22 24 25 26
2 2 9 7 6 3 2 4 6 4 9 9 8 9 9 9 8 9 9 10 11 12 13 12 10 9 8 8 6 7 8 10 12 14 16 21 18 18 20 19 18 19 20 21 21 20 21 23 25
5 7 6 3 5 4 3 6 7 4 7 7 10 9 9 8 8 8 10 11 12 12 11 9 8 8 8 7 7 7 6 7 9 12 19 22 19 20 20 19 18 17 15 14 11 10 11 14 17
5 4 1 1 2 4 1 5 6 2 3 5 7 10 10 9 7 8 8 8 9 8 8 7 8 7 9 10 9 10 12 11 13 17 21 23 25 24 22 19 14 10 7 4 3 6 8 7 7
8 3 2 2 4 1 1 5 8 6 6 7 9 10 10 9 8 7 6 6 7 9 9 9 11 12 12 10 7 6 12 14 17 21 23 27 27 25 22 15 9 5 2 2 4 4 4 5 8
6 5 3 3 2 2 3 3 7 8 8 9 8 7 7 7 6 6 6 8 8 8 8 10 12 13 11 10 12 13 15 17 21 24 26 26 25 21 14 7 4 2 2 2 4 5 4 7 3
3 3 2 2 1 3 1 3 8 9 4 6 7 6 5 2 3 5 8 8 10 10 9 10 14 17 16 15 16 15 16 19 22 23 23 23 21 15 7 5 4 3 5 6 8 6 6 3 4
4 3 2 2 3 3 1 4 6 13 11 3 8 6 3 2 3 8 12 13 13 13 10 13 17 17 14 14 14 13 17 19 19 20 19 17 14 7 6 6 5 4 5 8 9 9 9 8 9
2 2 2 2 2 3 4 5 4 2 1 4 10 4 5 5 8 10 14 12 12 9 11 15 15 13 13 13 13 16 18 16 15 16 14 10 6 6 7 5 4 7 12 12 12 12 12 12 12
1 2 1 2 2 2 4 7 3 2 5 4 8 3 4 7 10 11 13 11 10 12 15 15 14 15 15 15 17 17 14 13 14 12 10 8 7 6 6 7 10 12 12 12 12 12 11 12 13

GFSSGP_925_spd_021.txt.gz
Wind_Speed
9 6 8 8 7 9 9 6 12 9 10 8 5 10 15 15 14 5 15 13 15 14 12 11 12 10 9 7 6 5 5 5 5 6 6 6 5 5 4 2 3 1 2 4 6 6 5 6 6
9 7 8 8 9 8 10 9 12 14 13 10 8 5 9 15 14 14 14 13 14 14 14 12 12 11 10 8 7 6 5 5 5 5 4 4 4 2 1 2 1 2 4 6 6 6 7 6 6
7 10 10 6 13 7 10 8 15 12 7 4 8 12 7 9 11 13 18 15 14 14 13 12 11 11 10 9 7 7 5 5 5 4 3 2 2 0 2 3 5 6 6 4 5 5 5 6 6
9 6 6 10 15 12 12 13 13 10 6 1 8 12 8 12 7 19 16 15 15 14 13 12 12 11 9 8 7 7 6 5 4 4 3 3 1 0 2 4 5 6 5 5 6 6 6 6 7
13 10 9 8 13 12 13 11 10 12 10 8 5 9 11 11 15 17 16 15 15 15 13 11 11 10 8 8 8 8 8 7 6 5 4 3 2 3 3 3 4 4 5 6 6 6 7 7 7
9 11 7 10 12 8 8 7 2 6 7 6 7 14 12 13 16 15 14 14 13 14 12 9 9 8 7 7 6 6 7 7 6 6 5 4 5 4 4 4 4 4 4 5 6 6 5 5 5
15 10 11 14 12 11 9 4 4 6 7 6 5 10 9 14 15 14 14 13 12 12 11 10 7 6 6 5 6 6 7 6 6 6 5 5 5 4 4 3 3 3 3 4 4 4 4 4 5
6 4 11 11 10 13 6 2 6 3 13 9 7 7 13 18 16 15 14 13 11 10 10 8 7 7 5 3 4 5 5 5 6 5 5 6 5 8 8 6 5 5 5 5 6 6 6 6 7
6 6 8 6 8 8 7 8 1 3 8 2 3 10 21 20 17 15 13 13 12 11 9 6 6 5 4 4 4 4 6 6 7 6 9 5 3 5 4 4 6 6 7 7 8 8 9 9 7
9 3 11 6 5 9 8 5 6 8 8 9 8 7 21 19 17 16 14 13 12 11 10 9 5 4 3 3 2 1 0 2 3 4 5 5 6 5 7 4 11 8 9 10 7 9 12 6 9
4 9 8 5 1 8 8 4 3 4 7 9 12 12 17 17 16 14 14 14 14 13 11 9 6 4 1 4 4 1 2 2 2 3 5 6 7 6 8 7 7 7 11 8 9 10 9 9 10
5 8 5 6 4 0 5 7 4 5 11 6 6 13 14 15 14 14 13 14 13 13 10 8 6 6 4 1 3 3 2 1 3 5 5 7 7 8 8 9 11 11 10 11 11 12 11 12 12
10 8 10 8 6 1 3 5 2 6 9 6 5 10 12 13 15 14 12 11 10 9 10 9 8 8 5 3 2 3 2 1 2 2 4 5 6 7 9 10 11 11 12 12 13 13 14 14 14
7 9 7 7 5 4 7 6 8 7 6 8 9 10 12 11 13 12 11 11 11 11 9 9 8 8 6 4 2 3 2 2 1 0 2 3 4 6 8 10 11 12 13 13 14 15 16 16 15
8 9 10 8 8 4 8 9 11 7 4 7 10 10 10 11 11 10 10 9 9 10 9 7 8 8 9 6 4 3 2 2 2 2 1 1 3 6 9 11 13 14 15 16 17 17 17 17 17
11 9 11 8 7 4 10 12 11 7 5 9 10 8 9 11 12 11 10 10 9 7 5 6 8 9 10 6 4 3 3 4 4 5 5 5 5 7 10 13 15 16 17 18 19 20 20 21 21
9 10 1 8 2 2 8 5 12 2 7 10 13 13 10 10 12 10 9 7 6 6 6 6 8 8 8 5 5 4 5 6 6 6 7 6 8 9 11 13 16 17 19 21 21 22 21 23 23
6 3 4 6 7 5 9 10 5 4 6 7 8 8 8 9 13 9 3 1 2 3 2 2 5 6 3 3 4 6 6 7 7 8 9 8 11 11 13 15 16 18 20 21 22 22 24 25 26
5 5 4 4 5 6 4 6 5 4 3 4 4 4 4 6 13 12 6 6 8 6 5 5 5 3 3 4 5 6 6 7 10 10 8 10 10 12 15 17 19 19 19 20 22 23 23 25 25
3 5 1 0 3 6 3 4 5 7 7 8 9 10 10 12 12 12 14 15 13 11 9 7 5 4 3 3 5 5 7 9 10 9 9 12 10 13 14 16 18 22 21 22 22 23 24 24 24
3 7 6 9 7 10 8 8 11 8 12 11 13 13 12 11 11 10 13 13 12 11 9 8 7 6 7 6 5 7 9 9 11 11 18 18 19 18 17 17 17 22 23 23 21 22 23 23 25
9 4 8 10 8 7 12 4 8 12 10 10 10 10 9 9 9 9 11 11 11 10 9 8 6 5 6 8 5 6 8 12 15 17 18 19 22 21 19 20 20 20 22 22 21 21 19 20 24
5 7 8 8 9 10 11 9 10 11 9 9 8 9 8 8 8 8 10 10 10 8 7 6 5 6 6 6 6 9 13 15 17 17 17 19 21 20 22 21 21 20 19 18 15 11 10 11 12
7 8 6 6 5 5 2 7 13 8 8 6 8 8 7 8 7 7 6 5 7 6 6 6 7 8 8 10 10 11 13 14 16 17 19 19 21 23 22 22 19 18 15 11 6 6 6 7 6
8 7 4 3 4 2 5 6 9 8 7 7 6 7 7 7 6 5 5 5 4 6 7 9 11 13 12 12 12 13 14 16 17 19 20 23 24 24 24 20 17 14 7 4 4 4 5 6 9
5 6 3 4 3 4 6 6 7 10 9 8 5 5 5 4 3 3 4 5 8 9 10 10 13 15 17 16 16 16 17 18 19 20 23 24 23 23 21 16 12 7 3 2 6 5 6 7 6
3 4 3 2 1 3 4 6 9 11 9 4 3 3 5 4 3 4 7 9 11 12 13 11 14 19 20 20 18 17 17 18 20 21 22 23 23 22 18 12 8 7 5 6 7 9 12 9 10
6 3 4 1 3 4 2 7 4 12 9 8 4 8 7 4 4 7 10 13 13 15 14 14 17 18 17 16 15 16 18 20 21 21 22 22 20 18 14 11 10 5 5 9 15 16 13 13 13
1 1 3 4 3 4 4 4 8 5 3 5 8 9 10 7 8 9 13 13 14 13 14 17 20 18 18 17 17 18 20 19 18 18 19 18 17 16 15 13 9 8 10 12 12 14 13 14 16
4 4 5 3 4 3 4 7 7 6 2 4 9 8 5 8 10 10 12 12 13 14 17 18 15 14 15 17 19 20 18 17 17 19 16 17 15 15 15 12 11 13 16 14 12 13 12 15 17

GFSSGP_925_spd_024.txt.gz
Wind_Speed
11 8 9 11 6 7 14 7 12 8 10 13 14 15 21 17 11 8 16 17 27 22 18 16 15 14 12 11 11 9 10 10 10 10 9 8 7 6 5 5 3 4 6 7 7 8 9 10 11
11 12 13 5 8 11 5 10 17 16 15 9 10 11 20 19 20 18 19 18 20 26 19 17 17 15 14 12 12 11 10 9 9 8 7 6 6 5 4 3 3 4 6 7 8 9 9 10 9
12 9 6 5 10 15 12 15 15 12 8 12 5 18 15 14 16 18 20 19 20 22 18 19 17 16 14 13 12 10 9 9 9 8 7 6 5 4 3 5 5 5 5 5 5 6 6 7 7
5 5 5 8 14 13 16 17 14 10 5 4 17 13 14 18 20 22 20 20 23 20 19 18 16 15 14 13 12 10 10 9 8 8 7 6 5 3 3 4 5 6 5 5 6 7 7 7 7
16 5 9 10 14 15 14 14 9 7 5 9 12 18 16 25 23 20 20 19 28 19 18 17 15 14 13 12 11 10 9 9 8 8 6 6 6 4 5 5 5 5 5 6 8 8 8 8 8
6 4 9 6 12 10 10 7 2 16 14 7 17 17 15 21 21 18 19 19 20 20 15 15 14 13 12 11 11 9 9 9 9 8 7 7 7 6 6 6 7 6 6 7 7 7 7 7 8
12 8 14 14 10 7 10 1 4 7 9 11 7 16 12 17 18 17 18 18 18 17 15 13 12 12 12 11 10 9 9 10 8 8 7 6 8 7 8 6 7 7 6 7 7 6 6 7 7
13 9 15 9 9 14 7 2 8 8 13 10 10 7 13 19 17 17 16 16 16 14 15 13 8 8 8 8 8 8 8 8 9 12 9 7 7 8 8 8 11 9 8 8 9 9 9 8 8
19 4 7 7 10 10 6 5 5 7 7 7 5 13 21 21 19 18 17 14 14 13 10 9 14 10 5 7 8 7 6 7 7 9 10 5 7 6 4 8 10 9 10 12 8 10 13 10 7
8 9 15 11 9 11 8 7 7 6 9 8 9 21 24 20 17 15 14 13 16 13 10 10 11 8 5 6 2 6 3 6 6 6 6 9 6 1 6 7 8 7 13 13 7 11 12 10 11
4 10 10 8 9 9 7 9 4 7 9 13 13 14 17 18 16 15 15 17 14 14 12 16 10 6 2 6 3 5 4 5 4 8 5 5 5 5 7 9 8 12 13 8 11 14 13 7 15
4 6 9 11 4 4 7 10 2 1 11 7 15 13 17 13 12 13 15 19 16 19 17 18 13 9 4 2 5 5 3 6 4 7 4 3 4 4 5 5 7 9 10 11 10 11 11 15 14
8 8 10 9 6 4 6 4 3 2 9 4 10 11 13 11 14 14 14 17 17 19 18 17 15 9 5 2 3 1 2 3 3 3 2 1 2 2 3 5 7 8 10 11 10 11 14 15 15
9 9 10 8 6 4 5 7 6 9 13 9 7 11 11 13 16 16 11 11 14 15 17 18 20 17 10 5 4 2 4 1 3 3 2 2 1 3 3 5 8 10 12 14 16 19 18 16 16
6 7 6 7 8 8 7 8 12 12 6 10 10 7 11 12 13 15 13 11 14 15 14 18 8 15 12 6 5 2 2 3 1 2 1 2 3 5 7 8 10 11 14 16 18 19 18 20 20
8 10 9 10 7 6 6 11 15 10 11 9 11 11 7 10 12 15 12 6 4 6 7 10 11 10 9 7 6 3 1 2 4 5 5 5 5 5 8 11 13 15 17 19 20 22 22 21 22
10 9 9 9 7 2 8 8 15 12 3 7 7 9 9 7 12 14 16 11 5 10 8 8 3 7 6 8 3 2 4 4 6 3 5 1 3 7 10 13 16 18 19 20 21 22 23 21 22
10 7 4 2 8 5 9 10 7 8 3 8 12 11 11 11 3 17 21 15 14 13 9 5 8 9 5 5 0 4 6 6 8 6 3 4 8 5 8 14 16 18 19 20 20 22 22 24 25
9 6 6 7 8 3 10 9 9 9 6 3 2 3 9 18 20 24 20 19 16 11 14 15 11 10 5 3 4 7 10 10 9 7 8 6 11 12 13 15 18 19 22 22 23 21 22 25 24
5 5 4 3 5 4 8 10 11 8 5 6 8 8 16 15 14 18 19 21 18 14 13 12 12 10 9 9 6 6 7 6 9 10 5 12 11 12 15 19 23 18 21 22 23 23 24 23 21
4 4 8 7 10 9 10 9 13 10 7 12 13 13 13 12 11 12 16 16 15 15 14 13 11 9 10 8 7 7 8 9 10 12 17 17 15 22 23 19 18 19 19 18 22 24 25 20 20
7 6 5 8 9 9 13 4 14 14 11 11 12 10 10 10 10 12 14 13 14 14 12 10 7 7 7 8 7 9 13 14 17 17 19 22 19 20 17 21 22 21 19 19 21 16 13 14 17
5 6 7 8 10 11 12 7 14 16 13 12 11 10 9 9 9 9 12 14 13 10 8 6 6 3 2 4 7 9 12 15 16 17 16 20 15 21 22 23 24 22 20 20 13 8 12 15 16
7 9 11 8 9 4 13 3 5 8 13 12 11 9 9 7 6 8 8 13 14 8 5 5 8 10 10 7 8 9 10 12 14 16 18 16 20 22 23 24 22 24 19 7 5 8 10 9 12
6 8 4 2 4 2 5 3 8 10 9 13 12 9 7 6 5 6 7 10 6 4 3 4 8 12 13 15 12 9 9 12 14 17 17 21 23 22 24 24 21 12 11 9 8 9 7 11 10
5 6 2 4 4 6 7 3 9 12 12 11 10 9 6 6 3 2 3 4 6 8 10 11 11 13 15 13 13 15 14 12 14 15 19 19 19 20 22 14 12 10 7 6 4 5 8 12 14
6 5 4 3 2 2 5 8 11 12 11 9 8 4 7 3 3 4 6 6 7 7 9 9 10 14 14 16 14 13 14 16 14 15 16 15 18 18 17 19 15 9 8 7 9 11 16 16 15
4 1 2 1 2 3 7 6 7 10 9 9 3 7 5 6 6 7 9 13 15 17 13 13 13 15 15 15 13 14 15 16 15 16 16 16 14 16 17 15 9 7 10 9 12 14 14 15 16
1 2 2 3 1 2 3 3 8 7 5 6 7 6 4 5 6 6 12 13 12 11 12 14 14 13 13 15 17 18 18 16 13 12 16 17 17 15 17 16 13 13 15 16 19 13 13 12 14
3 5 4 1 4 1 1 6 4 3 7 8 8 10 6 4 7 10 13 14 13 13 11 16 11 11 13 17 18 17 17 11 15 17 19 19 17 17 17 18 16 15 15 13 14 17 16 16 15

GFSSGP_925_spd_027.txt.gz
Wind_Speed
13 10 10 4 3 2 4 5 8 12 12 20 17 15 16 10 4 9 24 27 28 23 21 20 19 18 17 16 15 14 14 13 13 12 11 11 10 9 7 7 7 8 8 8 8 8 8 8 9
10 11 3 2 2 0 3 6 15 9 9 22 18 18 21 17 16 16 17 30 25 24 23 22 20 19 18 17 15 14 14 13 13 11 11 10 9 8 8 7 6 7 7 6 7 8 9 9 9
8 5 2 3 3 5 4 6 8 4 6 11 7 13 8 9 7 14 35 30 25 25 24 22 21 19 18 17 16 14 14 13 13 12 11 10 8 7 7 8 7 7 6 7 7 8 8 8 9
5 4 4 1 7 8 11 7 8 7 12 19 15 9 10 21 11 29 32 26 26 25 23 21 20 19 18 16 16 15 14 13 12 11 10 9 8 7 8 7 7 7 7 7 8 8 9 9 9
1 1 1 2 3 8 7 9 8 10 16 19 21 12 11 22 30 29 26 21 27 24 22 21 19 18 17 16 15 14 13 12 11 11 10 9 9 8 8 8 8 7 8 8 8 9 9 8 9
2 1 3 3 3 5 6 7 6 12 13 20 21 16 6 24 27 29 26 25 23 24 21 20 18 17 15 15 14 14 13 13 12 12 11 10 10 9 8 9 8 7 7 7 7 8 8 9 9
4 1 4 7 4 9 6 10 9 9 15 6 15 13 7 19 24 28 28 23 20 20 20 19 18 16 15 14 15 14 14 13 13 12 11 12 11 11 11 10 9 8 7 7 7 8 10 10 9
4 2 4 5 8 3 4 9 10 10 6 14 14 6 9 16 24 26 25 24 20 18 15 17 16 14 14 15 14 14 14 15 16 14 13 10 8 8 9 8 9 9 11 10 8 11 13 11 10
4 2 9 14 8 4 3 6 6 6 9 7 5 18 18 27 25 24 24 24 22 19 18 15 15 11 13 14 12 13 13 13 13 10 8 10 5 5 7 5 6 7 10 8 8 13 11 11 9
6 4 2 6 8 7 3 9 6 6 8 10 11 19 27 25 25 23 17 20 17 19 24 20 16 10 9 8 7 9 10 10 12 9 10 9 4 4 3 4 5 9 10 7 7 12 11 10 8
2 5 5 8 9 10 8 6 7 8 7 16 18 14 13 21 20 20 21 25 26 22 23 19 13 12 7 6 6 8 10 10 11 9 8 7 3 5 4 4 5 8 8 8 11 10 11 12 15
6 8 8 6 8 8 8 6 4 7 10 13 20 21 15 10 14 20 23 27 28 25 27 21 16 17 10 8 10 11 13 13 14 10 8 6 6 4 3 1 2 5 7 10 11 8 9 14 15
9 6 7 6 9 7 7 4 4 7 10 11 19 18 16 14 21 25 27 28 29 27 33 26 22 19 14 10 7 5 6 10 9 9 3 6 4 1 2 1 3 4 6 7 9 12 18 18 17
7 9 8 4 4 3 2 3 3 5 9 10 16 15 14 15 22 24 22 26 27 29 35 30 24 14 8 10 8 6 7 5 9 8 6 3 3 1 2 4 6 9 11 13 14 17 20 19 19
8 6 6 6 8 4 2 2 6 7 10 11 11 11 12 15 23 22 21 24 28 24 25 26 22 10 8 12 9 5 11 8 7 7 4 3 4 5 6 8 9 11 14 17 19 21 21 22 24
3 5 4 6 8 6 7 7 7 10 10 10 11 9 9 11 18 28 19 19 22 19 25 30 24 6 25 15 11 7 9 6 4 4 5 5 4 2 4 8 11 13 16 20 22 22 24 24 24
2 5 7 4 9 5 5 6 10 9 9 7 7 8 7 3 8 11 23 29 28 24 15 9 11 21 22 17 8 7 3 2 6 1 2 9 5 3 6 7 13 16 18 19 21 23 23 24 27
4 3 5 8 3 3 4 1 4 5 7 2 3 3 15 18 16 24 30 30 30 28 25 22 20 19 14 11 7 2 1 1 4 3 4 2 4 7 10 13 15 15 19 23 23 25 26 29 30
3 5 10 5 5 3 3 3 6 6 8 6 13 18 15 15 19 29 33 32 31 28 26 22 19 16 17 15 11 9 10 8 8 7 6 9 6 6 10 13 15 19 18 18 23 25 24 27 28
6 6 5 3 4 4 3 2 6 9 6 17 17 15 14 13 15 23 28 28 25 24 23 20 16 13 13 13 12 10 11 13 10 14 14 15 18 17 15 15 17 17 17 18 18 20 25 23 14
8 6 5 3 6 3 3 2 7 7 12 18 12 10 11 14 14 13 21 22 22 21 19 16 13 12 10 10 8 8 8 11 15 21 22 19 17 15 18 20 21 20 19 17 19 16 12 10 12
5 6 6 6 4 3 5 1 3 10 11 14 13 11 9 12 12 15 19 17 15 15 14 11 7 5 7 9 8 8 8 12 15 14 16 15 14 18 21 24 25 26 24 22 17 8 10 11 14
1 2 4 3 4 3 7 4 4 12 11 11 9 10 10 9 10 10 17 15 12 10 9 8 11 7 4 3 5 6 6 8 7 10 11 14 18 23 26 28 26 25 21 17 10 9 12 13 14
5 4 6 5 2 2 6 4 1 6 14 6 10 10 9 9 9 14 17 14 11 9 8 4 6 10 14 11 8 8 7 6 8 7 10 15 19 21 22 23 20 16 13 11 11 10 8 9 11
4 6 4 4 4 3 5 7 1 7 13 15 13 10 9 8 8 7 14 13 11 5 4 5 7 7 9 8 10 10 9 9 11 12 15 16 18 22 21 16 17 17 11 9 8 9 11 14 13
4 3 4 0 1 4 5 3 2 10 11 10 9 9 8 7 5 5 9 9 9 9 8 5 6 9 9 9 11 10 12 10 10 11 15 16 16 14 12 13 13 13 10 9 12 15 16 14 17
6 5 3 4 2 3 1 3 6 9 8 7 8 7 7 8 6 7 13 17 15 14 11 8 6 6 9 11 11 12 11 12 14 13 14 11 10 13 15 15 12 10 8 7 8 11 15 16 15
4 2 5 4 1 3 4 3 3 6 6 5 5 7 7 7 7 8 14 12 10 9 8 7 6 8 10 11 13 14 15 11 8 8 12 15 18 20 14 17 20 15 14 15 17 20 18 16 16
4 3 4 2 4 4 1 3 2 4 4 4 8 6 7 6 8 6 10 11 11 10 8 12 6 7 9 12 13 13 13 10 7 9 14 16 18 14 15 16 19 16 16 15 15 17 17 17 18
1 2 4 4 3 1 4 5 2 8 7 7 6 5 6 7 6 6 9 16 16 15 14 8 7 6 8 10 9 9 10 11 12 13 13 15 11 12 14 16 17 17 16 16 14 14 15 5 6

GFSSGP_925_spd_030.txt.gz
Wind_Speed
9 8 5 1 3 3 3 4 7 4 5 7 8 12 10 5 2 7 14 21 27 26 22 19 18 18 17 17 17 17 17 16 15 14 13 12 11 9 9 9 8 8 9 8 9 8 8 8 8
7 3 2 1 3 1 4 3 11 10 14 17 15 12 13 6 7 13 13 21 25 26 22 20 19 18 18 17 17 17 16 15 14 14 12 11 9 8 8 8 7 8 8 7 8 8 8 8 8
4 1 3 3 2 5 5 4 14 9 10 6 6 6 5 9 13 10 22 26 26 26 23 21 20 19 19 17 16 16 16 15 14 13 11 10 9 8 8 9 9 9 8 7 8 7 8 8 9
2 4 3 3 7 7 7 5 18 17 9 12 12 7 5 9 7 21 28 28 27 25 23 22 20 19 17 16 16 15 14 14 13 12 10 10 9 9 9 9 9 8 8 7 8 8 9 9 9
4 2 3 2 5 3 4 3 16 10 7 8 10 4 5 9 32 35 31 30 29 25 23 21 19 17 16 17 16 15 14 13 12 11 11 11 10 10 10 10 9 8 8 7 7 8 9 9 9
3 2 3 1 5 5 6 2 17 18 19 15 15 10 6 25 33 31 31 29 27 26 23 20 17 17 17 16 15 14 13 13 13 13 13 12 12 10 11 10 9 7 7 6 7 9 9 9 9
4 3 4 5 7 11 6 5 9 15 10 5 9 10 5 13 32 32 30 27 25 24 22 20 19 17 15 15 15 15 14 14 13 14 13 13 12 13 11 10 10 10 8 7 9 11 10 9 10
4 3 2 3 3 6 5 4 8 7 3 10 15 6 11 14 33 31 28 25 24 24 23 22 19 17 14 15 16 16 17 15 15 14 11 10 10 9 8 7 8 9 7 8 9 11 10 10 9
4 2 3 7 3 14 6 9 5 4 8 1 2 7 20 36 35 32 28 27 26 24 23 20 17 15 15 15 15 15 14 14 13 11 9 7 7 6 5 4 5 4 5 4 6 8 7 7 7
4 3 5 4 8 6 6 10 7 7 7 6 10 15 26 35 31 25 22 23 29 27 24 21 17 16 15 15 14 12 12 12 11 8 8 5 5 4 3 1 2 3 5 4 6 7 8 9 10
5 5 1 6 3 8 7 5 4 10 4 17 22 16 16 23 24 23 26 33 33 29 27 24 19 15 13 12 13 11 11 12 10 7 7 6 4 4 4 3 2 2 5 7 9 9 8 10 14
5 1 6 2 1 4 9 7 5 5 8 19 22 21 12 12 17 23 25 28 29 33 31 27 22 18 13 10 10 11 12 13 12 8 8 5 8 6 4 2 2 5 6 10 9 8 10 16 19
8 3 6 6 7 3 4 6 3 4 11 14 17 17 17 17 23 29 34 31 32 34 33 28 24 20 16 14 12 10 13 16 14 13 9 8 9 6 5 3 3 5 8 9 10 13 16 20 20
6 7 7 5 2 3 5 3 4 2 15 15 18 17 17 17 25 25 28 31 32 34 33 27 21 15 12 11 9 9 10 13 13 14 9 8 9 6 6 4 4 6 8 11 14 16 19 21 23
8 6 5 1 3 2 5 3 6 6 17 19 19 18 16 17 23 24 32 29 35 35 35 29 24 18 14 14 11 6 9 10 12 13 11 9 8 7 6 7 7 9 11 13 15 17 18 20 22
5 5 3 4 4 1 5 6 5 8 15 18 17 14 14 3 5 7 1 18 27 33 35 31 29 18 12 11 10 7 9 10 6 12 11 9 8 7 6 6 7 9 11 13 16 19 20 22 24
5 4 5 2 8 3 3 5 6 8 10 11 5 9 9 11 18 24 24 22 25 31 31 28 15 10 12 8 9 6 7 4 3 2 6 4 2 2 5 7 9 11 14 16 18 20 22 25 29
5 4 4 6 4 3 4 2 6 4 7 8 13 12 14 17 12 22 33 34 30 24 20 14 10 8 9 9 7 5 6 15 13 12 9 6 7 7 8 10 12 14 15 15 17 20 21 23 25
2 3 9 1 0 3 5 5 4 6 13 14 14 16 14 15 13 26 34 35 36 32 28 24 22 15 13 12 9 11 17 19 17 15 13 11 10 10 11 13 14 16 17 16 16 18 22 22 23
5 8 4 5 6 5 4 6 7 5 7 15 17 14 14 11 12 19 27 28 28 26 25 23 20 18 17 16 15 14 12 12 14 13 11 10 10 11 12 15 18 19 19 19 18 20 18 12 14
6 5 2 3 3 4 10 5 7 6 10 9 8 11 12 13 11 9 19 23 22 21 18 16 16 15 13 12 10 10 10 10 11 12 9 9 9 11 15 19 22 22 20 19 19 17 14 10 7
2 1 2 3 4 1 3 3 1 4 8 8 9 8 9 11 9 11 17 18 17 14 13 12 9 10 8 8 9 8 5 3 2 3 5 7 10 14 18 22 26 22 21 19 14 9 9 8 5
3 1 0 1 3 3 3 6 3 7 9 8 6 9 8 9 11 9 16 17 14 11 11 11 11 7 5 4 4 3 4 4 5 2 4 9 13 17 19 19 17 16 14 12 9 7 4 6 6
2 3 7 4 3 3 4 5 5 5 7 6 5 7 8 7 7 11 14 14 12 9 8 7 8 10 6 5 5 6 6 6 3 6 11 15 16 17 17 16 15 16 17 11 7 6 7 9 14
8 5 3 4 4 4 5 5 1 4 9 12 9 6 7 7 7 7 10 11 8 6 5 6 6 9 9 6 5 4 5 3 4 8 9 9 10 11 11 11 12 13 13 10 9 11 17 13 12
2 5 4 3 2 4 5 3 4 6 13 11 9 7 6 6 6 5 3 5 8 7 6 5 8 9 7 7 8 7 7 7 7 3 2 2 5 7 11 13 11 11 9 10 10 12 12 18 15
3 4 4 6 3 3 1 3 3 3 9 8 7 7 8 3 6 8 15 14 11 8 5 4 5 7 7 8 6 5 3 2 3 4 2 2 7 12 9 8 11 12 10 11 13 14 15 13 13
5 2 4 4 2 0 3 4 4 7 6 8 7 7 6 6 7 7 10 10 11 10 8 5 6 9 8 5 3 5 6 5 5 6 9 10 8 10 8 9 10 11 11 12 12 13 13 13 15
4 3 5 4 3 4 2 5 4 7 7 9 7 7 7 6 6 7 14 16 14 10 8 2 7 4 2 3 5 8 10 11 11 14 17 16 11 10 7 9 8 7 8 9 12 13 14 13 10
2 3 4 4 2 1 4 4 3 8 9 8 4 7 6 8 8 9 12 12 12 11 11 4 1 2 3 7 11 14 13 13 17 21 21 19 14 11 8 7 7 6 7 9 10 10 8 4 7

GFSSGP_925_spd_033.txt.gz
Wind_Speed
8 3 1 3 3 4 4 5 1 3 4 4 3 4 5 4 1 3 8 9 25 25 22 20 19 18 18 18 17 17 17 16 16 15 14 12 11 10 9 8 8 8 9 9 9 8 9 9 9
7 5 3 2 3 2 4 4 6 5 8 9 8 5 8 4 4 11 13 21 25 26 23 21 19 19 18 18 17 17 16 15 15 13 12 11 10 9 8 8 7 8 8 8 8 9 10 10 10
5 4 3 4 2 3 3 1 10 12 12 4 6 4 4 3 5 9 16 25 25 24 22 21 19 19 18 16 16 15 15 14 14 13 11 9 9 8 8 8 7 7 8 8 9 10 10 10 10
7 4 4 3 6 6 3 2 14 11 6 8 6 9 5 5 4 14 29 28 27 24 22 21 19 18 17 16 16 15 15 14 13 12 10 10 9 8 8 8 8 8 9 8 10 10 10 9 9
3 3 4 1 4 4 5 3 8 5 6 14 1 6 1 3 17 31 28 28 29 25 22 20 17 17 17 17 16 15 14 13 12 12 11 11 9 9 9 8 9 8 8 8 10 10 10 10 10
3 2 3 1 5 6 6 6 4 4 6 13 9 6 2 14 28 26 29 28 26 26 22 19 17 16 16 16 15 15 14 13 13 12 11 11 10 11 9 8 9 8 7 9 11 10 11 11 10
4 4 3 4 2 6 6 4 4 10 6 3 10 5 4 6 22 29 29 27 25 23 22 19 17 16 16 16 16 15 14 13 13 13 12 12 12 10 10 10 10 9 9 10 11 11 12 13 12
4 2 2 1 6 1 7 2 2 3 2 7 8 7 7 10 26 30 28 26 25 23 21 19 17 16 16 16 15 14 14 13 13 12 10 11 9 8 8 8 7 6 7 7 8 9 9 10 11
3 4 3 4 8 6 6 6 0 2 7 2 1 5 17 30 31 30 26 24 23 22 22 20 18 17 17 16 16 15 13 13 11 10 8 7 6 5 4 4 3 2 4 3 4 4 5 7 8
3 4 8 9 7 16 6 11 8 4 1 6 8 12 27 28 28 23 20 21 24 24 24 22 20 19 18 18 17 15 13 12 9 8 6 5 5 3 2 1 1 3 3 5 6 7 8 9 10
5 5 5 7 8 7 8 6 4 11 2 8 15 16 18 23 20 21 22 30 34 29 25 24 20 18 17 17 17 16 14 11 10 8 6 5 5 6 5 3 3 5 7 9 10 10 8 10 13
2 3 4 3 8 7 9 7 8 2 9 11 21 22 19 14 18 21 23 25 29 29 27 23 22 20 18 16 17 15 15 13 11 8 7 7 7 6 5 3 2 5 8 9 9 10 12 14 16
5 4 5 5 8 6 7 5 8 6 8 10 16 19 19 16 22 28 34 32 32 31 30 26 24 21 18 17 16 16 16 15 12 11 9 8 8 7 5 3 2 6 8 9 9 11 13 15 17
4 4 4 4 5 4 6 2 3 3 8 13 17 17 15 17 23 21 20 29 33 32 32 29 26 21 17 16 13 13 14 13 14 13 12 9 10 8 6 6 5 6 8 10 11 12 14 16 19
5 6 4 3 1 2 6 4 4 6 12 18 17 16 13 11 5 9 18 23 30 30 34 30 27 19 12 11 8 8 9 9 11 11 11 9 9 7 6 5 4 6 8 11 13 14 16 18 19
4 5 3 3 3 3 4 6 2 9 15 16 11 3 7 9 7 1 8 22 28 29 33 28 25 17 6 5 4 2 6 5 6 10 8 6 5 3 2 3 6 8 11 14 16 17 19 19 21
6 3 2 4 4 2 3 4 1 8 11 7 7 7 9 7 15 14 7 14 21 28 31 22 19 10 3 3 6 9 8 7 8 5 5 8 7 5 4 8 11 13 14 15 16 18 19 22 25
3 2 2 5 3 4 2 3 6 6 9 9 8 8 10 10 8 15 21 22 22 24 23 15 5 9 5 11 17 15 18 19 16 14 11 8 9 10 11 13 15 16 17 18 19 20 21 22 19
3 1 3 1 3 5 5 7 8 7 13 10 8 10 11 12 8 20 29 33 32 22 15 16 14 14 10 12 11 15 20 17 14 12 9 9 10 13 15 14 14 16 19 20 20 22 23 21 21
6 6 2 1 5 7 6 11 9 8 6 7 11 10 9 8 9 16 27 28 26 24 21 19 19 16 15 16 15 12 11 10 7 6 7 9 9 7 9 11 14 19 22 21 18 16 15 15 14
5 4 2 3 5 7 6 6 7 6 7 7 7 5 6 10 11 8 17 23 22 21 20 18 16 14 11 9 8 6 4 3 1 1 3 4 6 8 12 16 19 18 16 15 14 13 12 12 13
3 1 3 3 4 4 3 2 0 1 6 5 5 5 6 7 6 9 14 18 20 18 17 16 15 12 10 7 3 2 4 5 3 5 3 4 8 12 15 16 14 14 14 14 13 10 9 9 10
3 2 2 2 3 4 2 5 3 5 3 4 4 5 7 8 7 7 14 19 18 16 14 14 13 11 10 7 6 6 6 5 5 2 2 7 11 13 12 10 10 10 12 11 7 5 4 4 6
1 4 6 4 3 2 3 5 4 7 7 6 5 6 6 5 6 7 13 13 14 13 12 10 10 8 6 5 5 6 7 8 5 0 6 11 12 11 12 13 12 12 10 9 8 4 4 11 9
6 5 2 3 3 4 5 2 4 5 9 6 7 8 7 7 6 6 9 7 8 7 6 7 6 8 6 5 4 4 5 4 0 5 9 11 12 11 11 10 13 11 10 8 7 8 9 9 15
3 4 4 4 3 3 5 3 4 1 9 9 6 7 6 7 5 5 5 6 6 8 6 5 8 6 6 7 6 6 4 2 6 8 11 11 11 10 11 13 10 9 8 8 8 10 11 12 12
1 3 3 6 3 3 2 2 5 3 7 7 9 8 7 3 4 7 10 9 7 5 3 3 4 6 8 7 5 1 6 9 11 13 13 16 15 15 13 10 9 8 9 10 10 11 12 11 11
4 4 3 4 2 1 3 4 4 8 9 9 8 5 6 6 6 7 10 9 7 4 2 2 4 4 3 2 6 9 11 14 15 15 17 18 17 16 14 11 10 9 9 9 12 13 12 13 13
4 2 6 5 3 4 1 5 4 11 10 8 5 5 7 6 7 6 9 7 5 3 3 2 5 3 4 6 9 16 18 15 14 18 19 23 22 16 11 10 9 11 12 9 10 11 11 11 10
2 2 4 4 2 1 3 5 4 4 7 7 7 8 7 7 5 6 6 6 5 6 5 4 4 6 8 10 14 16 13 13 17 21 23 24 21 15 13 14 11 14 13 12 10 11 10 6 7

GFSSGP_925_spd_036.txt.gz
Wind_Speed
7 7 5 0 3 4 3 5 1 3 3 2 5 6 7 6 2 1 7 12 21 23 21 20 20 20 20 19 19 18 17 16 15 15 14 13 12 10 9 9 9 9 10 9 9 10 11 11 12
6 3 3 1 4 2 5 4 1 3 8 10 8 1 3 4 2 8 7 14 24 22 20 20 19 20 19 19 19 17 16 15 14 14 13 12 11 10 9 9 10 10 10 10 11 11 12 12 12
5 2 3 3 3 3 4 1 9 11 4 4 6 5 4 3 2 3 15 22 23 21 20 19 18 19 19 18 16 16 15 15 13 12 11 10 10 10 10 10 9 10 11 11 12 12 12 12 12
4 5 4 4 6 5 3 5 9 8 5 6 5 6 5 2 3 5 21 20 22 21 19 19 18 17 17 16 16 15 15 14 13 12 11 10 10 10 11 11 11 11 11 11 12 12 12 13 12
5 2 3 2 3 4 3 8 1 11 4 3 7 11 4 3 5 18 22 21 23 21 20 18 17 16 16 16 16 15 14 13 12 11 11 11 11 12 11 10 10 11 11 12 13 13 13 13 13
1 2 4 0 3 4 3 10 3 5 2 5 4 6 1 7 16 23 21 23 22 22 20 18 16 16 15 15 15 14 13 12 12 12 11 11 11 12 11 11 10 11 12 12 13 15 15 16 15
5 4 4 3 1 4 4 5 6 1 5 2 7 5 3 6 17 22 23 23 22 21 20 18 16 15 15 15 15 14 13 12 12 11 12 12 11 11 11 11 11 13 12 13 13 13 13 14 13
4 3 3 2 3 3 4 5 9 16 2 3 5 6 6 10 21 23 23 23 22 20 18 17 16 16 16 15 14 14 13 12 12 12 11 9 10 10 9 8 9 9 9 8 8 9 10 11 12
3 4 3 8 11 5 5 4 4 2 4 4 4 6 12 26 27 27 23 21 20 19 18 17 17 16 16 15 15 14 13 12 12 11 9 8 7 6 6 5 4 4 5 4 4 5 7 9 10
4 3 7 5 8 10 15 15 7 5 2 4 4 10 26 28 27 23 21 22 22 22 20 18 18 18 18 17 17 15 16 13 12 10 8 7 5 3 1 1 1 2 3 4 5 6 6 7 9
4 5 6 5 2 6 6 5 2 10 2 5 12 12 15 21 18 19 23 27 30 24 21 21 19 19 19 19 18 17 15 13 11 10 8 7 5 3 2 2 3 3 3 4 5 5 5 7 10
2 5 5 2 6 6 9 7 4 2 4 10 16 20 16 13 17 20 23 27 25 25 24 22 21 20 19 17 16 15 14 12 11 9 7 6 6 4 3 2 2 2 3 4 5 6 8 9 10
2 2 3 8 8 8 8 4 7 2 5 11 14 16 16 15 19 23 30 28 27 27 25 22 20 19 16 14 14 14 13 13 9 8 7 5 4 3 2 1 1 3 4 6 7 8 9 11 14
5 4 3 4 5 5 6 3 5 1 7 11 15 13 11 13 18 15 15 22 27 26 25 21 18 13 11 10 11 14 15 13 11 9 8 6 4 3 1 1 3 4 7 8 9 11 12 14 16
4 4 5 4 2 3 5 1 2 4 10 13 13 8 5 2 4 10 15 21 25 27 23 20 16 8 3 2 3 6 7 9 11 9 6 4 2 1 3 3 3 7 9 10 11 12 13 15 16
5 5 3 3 2 1 4 5 2 7 14 8 8 7 6 4 4 5 7 16 22 22 19 13 15 10 10 9 9 5 2 2 3 4 3 4 5 6 5 6 8 9 10 12 14 15 16 17 19
6 4 2 2 1 3 3 1 9 3 8 7 7 6 6 5 9 8 5 10 15 18 19 20 18 13 9 14 8 4 7 11 12 11 11 10 9 10 9 9 9 12 14 15 16 18 18 20 20
5 3 2 3 2 6 6 4 7 6 7 7 6 6 6 7 7 10 7 7 12 19 24 21 15 7 6 10 15 17 17 17 14 12 11 10 10 9 10 12 12 14 16 19 20 18 17 16 13
3 4 2 1 3 7 5 5 8 7 8 7 7 7 7 8 8 15 19 23 25 24 21 14 7 15 23 19 17 15 16 13 10 8 6 5 5 6 8 9 12 17 20 20 17 15 15 13 16
5 6 3 2 6 7 5 8 7 7 4 4 7 6 7 7 6 13 20 23 25 23 23 22 21 20 18 17 13 8 8 7 6 4 3 4 5 8 12 15 18 19 18 17 15 14 13 10 14
4 5 2 3 3 6 4 5 5 5 6 6 5 5 5 8 9 6 14 19 22 24 24 23 20 16 11 8 7 6 5 3 3 2 1 4 6 10 13 15 15 14 15 16 14 13 11 9 8
3 0 3 4 3 3 3 3 2 3 3 2 4 5 6 6 4 6 11 15 19 17 16 15 14 12 10 8 5 4 4 4 4 3 2 4 8 13 15 14 14 16 17 15 13 11 9 7 6
1 5 5 4 5 4 3 4 4 6 5 8 5 5 6 5 6 7 11 13 10 11 12 11 10 8 5 3 3 4 4 2 4 3 2 6 11 13 14 11 11 11 11 9 9 9 7 5 8
4 5 8 5 3 2 1 4 4 6 6 5 4 5 6 6 3 4 12 13 7 6 9 9 8 6 5 4 3 4 3 3 3 1 5 10 13 14 14 13 12 12 14 10 10 8 6 10 9
6 5 3 3 3 4 3 2 6 4 5 9 9 8 7 7 6 5 8 12 14 14 8 8 5 5 3 2 2 2 3 2 3 6 10 14 14 16 16 14 14 15 11 9 8 9 11 12 12
3 5 4 4 3 3 3 4 4 4 7 9 8 7 6 5 4 2 4 7 7 9 9 6 6 4 3 2 2 1 3 5 8 11 11 14 16 17 18 19 18 14 12 10 10 10 12 13 14
2 3 4 6 1 2 2 4 4 6 5 6 8 7 8 5 4 5 7 9 9 9 6 5 4 3 4 3 3 5 7 9 12 13 14 19 20 22 22 21 19 16 15 14 12 13 14 13 15
2 5 3 3 2 3 3 4 4 5 7 7 9 8 6 6 7 7 11 10 9 8 4 2 1 5 5 6 6 7 12 14 14 14 17 20 19 21 23 20 17 15 12 15 19 17 15 14 14
2 2 6 4 3 4 1 5 5 11 11 13 8 7 8 7 7 5 8 8 7 6 4 1 4 3 4 7 9 12 16 16 14 16 20 22 23 24 22 18 14 9 16 16 12 19 15 14 13
2 3 4 4 3 1 3 6 2 7 8 8 7 7 6 6 6 5 6 6 6 4 3 4 1 6 6 8 13 12 10 11 11 13 13 16 20 21 21 18 15 16 14 16 15 14 16 12 10

GFSSGP_925_spd_039.txt.gz
Wind_Speed
2 3 1 2 3 2 1 1 1 6 2 2 5 4 7 9 3 0 8 7 23 23 19 18 18 21 22 22 22 21 20 19 18 16 14 13 12 11 11 10 9 9 10 11 11 11 11 12 11
1 2 3 1 2 3 2 2 3 4 9 12 11 9 4 4 4 6 9 11 21 22 19 17 18 19 20 20 20 20 18 17 15 14 12 11 11 12 11 11 11 11 12 12 12 12 13 13 13
1 2 1 2 2 5 2 5 16 14 11 5 3 3 4 3 3 3 8 18 21 20 19 18 18 19 19 19 18 17 16 15 14 13 12 11 11 12 11 11 12 12 13 12 13 13 14 14 15
3 3 1 3 4 3 4 14 11 12 2 4 12 5 3 4 14 8 17 19 20 18 17 19 18 18 18 17 16 15 15 14 13 12 12 11 12 12 11 12 13 13 12 13 13 13 13 15 16
3 2 1 2 1 3 4 14 7 8 9 8 4 7 5 2 11 22 19 19 22 21 19 18 18 17 17 16 15 15 15 14 13 12 12 12 12 12 12 12 12 13 13 14 15 16 16 15 15
1 1 1 2 2 2 7 6 8 6 5 9 2 5 4 6 17 20 24 19 19 21 19 17 17 16 15 15 15 15 14 13 13 13 12 13 13 12 12 13 12 13 13 13 14 15 14 14 14
1 2 2 3 5 10 10 8 12 6 2 3 5 4 3 5 12 20 20 18 18 19 19 17 16 15 14 14 15 14 13 13 13 13 13 13 13 14 13 13 13 12 10 10 11 12 12 12 12
3 2 4 1 5 9 9 6 12 9 3 4 3 4 6 9 20 19 20 18 18 18 17 16 16 16 16 15 13 13 13 13 13 13 12 13 12 11 11 11 10 8 7 7 7 8 9 10 11
3 2 4 6 8 2 4 7 3 2 6 3 3 2 10 21 21 20 17 16 16 16 16 16 16 15 15 14 13 12 12 13 13 12 10 9 9 8 7 6 6 5 5 4 5 6 6 6 8
3 3 5 7 11 13 19 16 11 7 8 3 5 10 20 20 18 17 15 16 16 17 17 16 15 15 15 14 13 12 12 12 11 10 9 7 6 5 4 2 2 2 3 3 4 4 4 6 8
4 5 6 3 11 10 8 5 4 10 10 6 11 15 17 18 16 16 16 18 20 19 18 17 15 14 12 11 10 10 10 9 9 8 6 6 5 4 3 2 0 1 2 3 4 4 5 6 7
2 4 2 2 4 4 7 10 5 5 3 5 17 21 19 17 19 21 20 19 18 17 18 15 13 11 9 8 7 7 7 7 7 6 6 6 5 4 3 2 1 1 2 3 4 5 5 7 9
5 3 5 7 7 4 8 5 5 3 4 14 18 17 17 18 19 18 14 14 13 15 15 13 11 9 7 4 2 4 5 7 8 7 6 6 5 3 2 3 2 1 2 3 5 5 6 8 11
3 3 5 3 9 4 5 3 4 2 11 15 18 16 15 15 18 14 12 13 15 13 14 13 11 7 4 1 3 5 9 11 12 10 6 4 2 3 3 3 3 3 5 7 7 7 8 10 12
4 8 5 6 4 3 9 3 4 1 12 16 13 11 11 11 9 10 9 11 13 10 12 12 11 9 9 10 10 8 8 8 9 11 5 1 1 2 3 4 5 6 7 8 9 11 12 11 13
4 4 5 2 3 2 1 3 8 3 13 14 13 11 10 5 3 2 3 7 12 11 11 16 19 20 19 16 15 16 17 12 5 2 2 3 5 5 6 6 7 7 9 11 12 14 12 12 11
7 3 3 4 4 4 2 3 8 5 7 9 9 8 7 5 5 6 3 1 8 13 17 20 22 20 15 12 5 14 5 2 6 10 12 11 10 8 7 7 8 9 12 14 15 14 14 13 12
3 4 1 4 2 10 7 3 6 6 7 7 6 6 5 5 5 5 6 6 12 17 21 24 20 13 6 10 4 9 11 13 12 11 10 8 7 6 8 10 12 14 15 14 14 11 10 8 8
4 3 4 3 4 6 5 4 7 4 6 7 6 6 6 6 5 7 11 14 19 20 21 21 17 11 9 16 22 19 14 12 9 7 5 4 5 7 10 12 13 15 14 14 13 10 10 10 11
4 6 3 3 3 4 4 8 7 5 2 3 8 8 9 10 9 11 13 15 16 19 20 18 15 17 19 21 18 12 14 8 7 5 4 4 6 9 12 14 14 13 10 11 11 11 11 10 9
5 6 3 4 4 6 3 2 2 5 5 5 5 8 10 14 13 10 12 13 16 18 20 22 22 21 18 14 12 10 8 6 4 3 1 4 7 11 13 13 11 12 13 11 11 9 8 9 8
4 2 4 6 2 2 2 3 1 2 4 6 9 10 11 10 8 11 15 15 17 20 20 20 19 18 17 15 7 5 3 3 3 2 2 4 9 11 12 12 11 12 13 10 9 7 7 6 9
4 3 4 3 4 2 1 2 1 3 6 11 11 10 9 7 9 10 12 13 12 18 19 17 15 13 10 7 3 2 1 1 2 2 2 5 10 11 12 12 13 13 13 11 8 6 5 5 7
8 5 5 3 2 1 1 3 3 6 8 13 11 10 9 8 8 9 7 8 6 10 11 11 13 9 6 3 2 1 2 3 2 2 5 6 10 12 13 14 16 15 13 11 9 8 7 7 7
4 4 2 1 1 3 2 2 5 4 6 17 16 13 11 10 11 10 12 13 11 9 13 10 9 8 6 4 3 5 5 3 3 6 9 9 11 12 14 16 16 16 15 12 10 8 10 11 10
2 3 4 4 3 1 0 4 2 3 6 13 15 14 12 11 10 9 9 9 7 7 6 7 7 6 5 4 6 4 3 4 7 9 11 12 14 15 16 17 19 19 16 13 11 10 12 13 14
4 2 2 6 2 1 2 3 5 2 4 11 15 13 13 12 10 10 10 8 6 6 6 7 7 5 5 5 2 1 4 8 12 13 12 13 15 18 21 23 22 20 18 15 12 12 12 12 16
1 7 3 2 3 3 2 4 4 4 8 11 15 16 13 9 7 6 7 7 7 7 5 5 5 6 5 3 2 4 7 9 9 9 12 16 17 18 20 22 23 21 17 11 11 13 12 14 13
2 2 5 4 1 2 1 4 3 8 11 16 16 13 12 9 8 7 9 8 7 6 5 6 7 6 2 1 4 6 6 8 9 10 12 14 17 18 21 23 21 15 10 11 10 8 10 11 12
1 3 4 3 4 1 1 5 1 5 7 8 11 9 8 10 10 10 9 8 7 6 8 9 5 2 2 3 6 6 8 6 7 10 12 15 17 19 21 21 16 11 11 12 13 10 9 11 9

GFSSGP_925_spd_042.txt.gz
Wind_Speed
3 3 4 6 6 7 7 4 2 8 4 4 8 3 7 15 4 2 11 13 21 21 19 20 20 21 21 20 20 19 18 18 17 15 14 12 11 10 10 9 10 11 13 12 12 12 12 13 14
4 3 6 3 7 9 6 2 5 10 15 11 12 7 4 6 6 8 14 17 23 19 20 19 21 20 20 20 19 19 18 17 15 14 12 12 11 10 10 10 11 12 13 12 12 13 13 14 14
4 5 6 4 8 11 4 2 15 18 11 9 6 8 7 4 6 3 10 18 21 19 18 18 21 20 20 19 19 18 16 15 14 12 12 11 11 11 10 11 12 12 12 12 12 12 13 14 14
5 6 4 8 11 1 4 11 19 17 16 10 10 5 4 4 5 5 14 15 18 17 16 19 20 20 20 19 17 16 15 14 13 11 12 11 11 11 12 12 12 12 12 12 12 13 14 15 15
7 4 8 10 5 2 6 14 15 14 13 5 1 8 7 7 8 17 16 18 18 17 15 16 18 18 19 17 15 14 14 13 12 12 11 11 12 12 12 12 12 13 13 15 15 14 14 14 13
7 4 7 10 6 5 13 8 13 13 13 13 4 8 5 10 15 19 21 19 18 18 16 14 15 16 15 15 14 14 13 12 12 12 11 12 12 11 11 11 12 13 13 13 13 13 12 12 11
11 7 5 2 4 8 11 9 10 9 8 12 5 8 4 9 13 15 16 17 16 16 15 14 12 12 13 12 12 12 12 11 11 11 12 11 12 11 11 11 11 11 10 10 9 10 10 9 10
5 6 6 4 9 12 11 11 15 7 5 6 4 5 6 10 17 17 17 17 16 15 14 14 12 11 11 11 12 12 11 12 12 12 12 11 11 10 10 8 7 7 6 6 5 5 6 7 9
2 6 9 8 12 7 10 10 2 1 3 4 3 1 7 23 20 20 19 16 15 14 13 12 12 11 10 10 10 10 11 11 11 10 10 10 7 6 5 5 4 4 3 2 3 3 3 4 7
7 8 3 6 15 15 5 14 11 8 6 4 7 10 22 22 21 20 18 18 16 15 12 11 10 10 10 9 9 8 8 7 6 6 5 4 4 3 3 2 0 1 1 2 3 3 4 5 6
7 7 5 3 16 14 19 12 8 9 9 9 10 18 20 21 19 18 18 18 17 15 12 11 10 9 9 8 8 7 6 5 4 3 2 1 1 1 2 2 2 2 1 1 3 4 4 4 5
8 4 3 8 13 12 13 10 7 7 8 4 8 21 23 18 19 21 20 17 15 13 13 12 11 10 8 8 7 6 5 3 3 1 1 2 3 4 3 2 2 2 2 2 3 4 4 5 6
12 4 5 12 18 12 10 12 8 5 7 10 17 19 18 17 19 16 14 13 12 13 13 12 11 10 8 8 5 4 2 0 0 1 2 2 3 2 2 0 2 2 3 3 4 5 6 7 9
5 5 7 7 9 6 11 7 7 4 8 13 17 15 15 16 17 13 10 11 11 12 12 11 10 9 9 9 10 7 5 3 2 3 8 6 5 2 1 2 1 1 3 4 6 7 9 11 13
11 10 6 8 12 8 11 10 4 1 8 14 15 13 14 14 12 10 10 9 10 10 12 12 12 12 13 14 14 11 10 10 8 3 4 1 4 4 4 3 2 3 5 6 8 10 12 14 15
7 14 9 9 13 4 6 11 4 5 10 13 13 12 12 12 12 8 6 7 10 12 15 15 15 15 14 11 10 17 15 12 4 3 5 5 6 7 7 5 5 5 6 9 10 12 14 15 16
9 9 11 8 2 8 7 9 4 6 11 12 12 13 13 11 9 7 7 8 13 16 19 19 19 17 16 12 11 12 10 3 6 9 10 9 9 7 6 5 5 7 8 9 11 13 13 15 16
7 8 9 10 5 10 8 7 5 6 12 12 12 11 10 10 6 5 6 9 13 18 21 22 20 20 16 6 2 8 8 8 10 9 8 7 6 6 5 5 6 8 9 10 10 12 13 14 14
4 6 12 8 4 7 6 6 5 6 10 11 11 10 10 8 6 7 8 10 15 17 18 19 19 18 16 9 8 9 10 8 6 5 6 5 5 6 7 7 8 8 8 9 11 13 15 16 15
5 7 7 5 4 5 9 6 4 6 8 9 10 10 9 9 9 10 10 11 14 17 18 17 14 11 10 12 11 9 10 6 5 5 4 4 5 5 5 5 6 8 11 12 12 13 15 16 14
4 3 10 5 7 2 9 8 8 4 6 6 7 7 8 9 11 11 12 13 15 17 18 17 15 17 15 14 10 8 7 7 6 4 3 3 3 2 5 8 9 10 11 12 13 13 14 16 17
5 2 5 11 10 7 8 7 10 9 8 9 9 10 11 12 12 13 16 17 18 18 19 20 19 17 14 13 10 9 4 3 1 2 3 2 2 5 6 7 8 9 12 13 14 15 14 15 18
4 4 4 3 4 5 9 7 8 9 10 12 12 13 13 12 13 15 18 19 18 16 16 16 15 12 11 9 5 4 3 3 3 3 3 2 4 5 7 8 9 12 15 16 16 16 16 16 15
10 8 6 2 3 8 4 6 9 7 7 13 14 15 14 12 14 17 18 17 16 13 12 12 12 12 8 6 6 5 5 4 3 3 5 6 8 9 10 12 13 15 17 18 18 17 16 16 16
6 6 3 3 4 6 3 6 11 2 3 10 17 17 16 14 15 15 17 16 15 13 11 10 10 10 9 8 7 7 6 3 2 5 7 9 12 13 15 14 15 17 19 19 18 18 18 17 15
2 3 3 4 3 1 3 5 2 2 2 6 16 17 16 15 15 15 16 15 13 12 11 9 9 9 8 7 8 6 2 1 4 5 8 10 12 12 12 14 17 19 19 19 19 18 17 16 18
5 4 3 2 1 3 3 4 8 2 3 8 16 17 17 17 16 15 15 13 13 12 9 10 9 9 8 8 5 4 1 3 6 7 7 8 9 11 12 16 19 20 20 19 19 19 17 18 15
4 9 3 3 3 4 3 5 2 4 7 10 16 18 18 16 15 13 15 13 11 11 10 10 8 9 8 6 4 1 3 4 3 3 4 6 10 14 17 18 20 20 19 18 18 16 18 16 14
4 4 1 0 2 2 3 2 3 1 5 11 15 17 17 16 14 12 12 12 12 11 11 11 11 10 7 4 2 3 3 1 2 3 6 9 13 16 17 19 21 19 17 15 14 16 16 14 14
2 5 8 4 4 1 2 3 4 1 2 8 12 15 15 14 13 12 14 15 15 13 13 13 12 9 6 5 6 4 2 3 4 5 8 11 14 16 18 19 18 16 14 14 13 14 12 11 12

GFSSGP_925_spd_045.txt.gz
Wind_Speed
6 7 10 11 7 8 17 21 3 9 7 3 11 4 15 14 10 6 14 16 26 22 21 20 21 21 21 20 19 18 16 14 13 12 11 10 10 10 10 11 12 13 13 12 12 12 13 14 15
10 7 11 9 10 14 14 18 6 19 15 12 11 7 9 10 11 12 11 19 23 22 20 18 22 21 20 19 17 16 14 13 12 10 9 9 9 10 11 12 12 13 12 12 11 12 13 14 15
7 10 9 10 14 15 11 10 18 13 11 7 7 12 7 6 7 4 14 17 20 20 22 19 21 20 19 17 16 14 13 12 10 9 9 9 10 11 12 12 12 11 10 10 10 12 13 14 15
7 10 9 10 19 17 8 14 15 15 9 8 8 8 6 6 1 8 16 18 18 20 20 22 20 18 17 16 15 13 13 11 10 10 10 10 10 11 12 11 11 10 10 10 11 12 12 12 14
12 8 11 14 17 9 4 14 10 15 10 13 9 5 3 5 12 14 17 16 16 19 17 20 20 17 16 15 13 13 12 11 9 9 10 11 11 12 11 10 10 10 11 12 11 11 11 12 13
9 10 13 15 18 6 5 14 15 6 10 9 11 19 10 11 16 9 13 16 16 17 20 17 18 17 16 14 12 11 11 10 10 9 10 11 12 11 11 11 11 11 10 10 9 9 9 10 11
14 12 15 18 2 5 9 4 12 16 7 9 6 7 4 11 15 15 19 15 16 17 19 17 15 15 14 13 12 11 10 10 10 9 10 11 11 11 11 11 10 9 7 7 6 6 7 9 10
12 12 20 10 12 13 11 12 7 8 7 7 7 7 6 13 14 20 20 24 19 17 19 18 14 13 12 12 12 11 10 10 9 9 10 11 10 10 10 9 5 5 4 3 4 5 6 7 10
13 11 15 11 16 9 11 19 15 9 8 2 3 4 9 24 22 27 19 17 16 18 16 16 16 13 13 13 12 11 10 9 9 9 10 9 7 6 6 4 2 2 2 3 5 6 5 7 5
11 12 11 9 14 7 17 5 12 7 6 6 8 11 19 22 23 21 19 18 16 16 15 14 13 13 13 13 12 10 9 8 8 7 5 3 3 3 4 1 3 4 4 5 6 6 7 8 8
14 15 6 23 20 17 6 10 11 11 19 16 7 14 19 20 18 18 20 19 19 16 14 14 13 13 12 12 11 10 8 8 6 5 2 3 2 2 2 3 3 2 5 6 7 7 7 8 8
11 11 7 4 11 3 2 12 8 9 4 8 18 20 17 18 18 18 19 19 18 16 15 15 14 13 11 11 10 8 8 7 6 4 2 1 3 1 3 6 5 5 5 7 7 8 8 9 10
11 9 3 8 9 9 9 12 28 12 8 9 21 19 18 17 20 20 19 17 18 18 17 15 15 14 13 10 10 7 4 5 2 1 1 0 1 1 1 3 4 5 7 7 8 9 10 12 14
8 6 5 8 7 13 11 14 13 9 9 16 18 17 16 17 19 19 18 17 17 18 18 16 15 14 13 12 10 8 6 4 3 2 3 5 3 3 3 3 2 3 5 6 8 10 12 15 17
8 16 4 8 13 10 15 8 12 11 13 15 14 13 16 16 18 16 16 16 17 17 18 17 17 16 16 15 14 13 11 10 8 4 3 4 1 1 1 2 4 4 4 6 9 13 15 16 18
7 10 14 14 14 15 13 13 8 9 13 15 15 15 15 16 16 16 15 16 17 19 18 17 17 18 17 15 15 14 12 15 9 6 2 4 5 6 6 5 4 4 5 8 11 13 15 16 18
11 9 13 9 14 9 15 14 10 11 12 15 14 15 14 15 16 14 12 13 15 17 19 17 18 18 17 15 9 9 13 11 5 4 3 6 10 6 7 5 4 5 7 8 9 12 14 17 18
13 16 15 14 13 12 11 13 11 14 14 15 14 14 14 12 12 11 11 12 15 18 18 18 18 18 16 14 9 8 13 12 9 6 5 6 6 6 4 3 5 6 7 9 11 13 15 17 19
11 10 10 14 9 13 11 10 12 13 14 14 15 15 14 14 12 10 11 11 12 16 20 18 20 17 15 7 6 11 12 12 9 6 6 5 4 4 3 3 5 6 10 11 12 14 17 19 20
7 4 7 8 9 7 7 11 11 14 16 17 15 14 14 13 11 12 12 12 13 16 18 19 16 15 11 9 11 13 13 11 9 7 6 5 4 2 1 4 6 8 11 12 14 16 18 20 20
3 8 4 9 10 13 9 14 14 12 11 9 14 15 14 14 14 12 14 13 14 17 20 17 17 16 15 15 13 11 9 9 9 7 5 4 2 1 3 5 7 9 12 14 16 17 19 21 23
8 1 2 4 12 13 17 12 15 17 15 14 13 13 12 14 11 12 16 19 20 20 20 19 18 19 17 15 13 13 11 8 3 2 4 5 2 3 5 8 10 11 13 16 17 19 20 22 23
9 3 4 6 11 9 18 8 19 16 15 15 15 15 15 13 14 14 17 20 21 20 20 19 19 17 15 12 11 11 6 2 2 2 3 5 7 6 8 10 10 13 16 18 19 21 20 19 19
4 4 6 8 10 9 14 10 3 12 12 17 13 14 14 14 15 17 20 21 21 18 17 16 16 14 14 11 8 7 5 3 4 4 6 9 8 11 10 11 13 16 18 19 21 22 22 19 21
7 7 8 5 4 8 5 5 13 7 3 6 14 15 15 15 15 16 17 21 21 19 16 15 14 13 12 10 9 7 6 4 3 5 8 9 11 12 13 13 17 18 20 21 22 22 21 21 21
8 10 5 6 7 7 6 7 3 8 3 1 13 15 16 15 16 17 19 19 20 18 16 15 15 13 11 11 9 7 6 4 4 5 8 10 12 12 14 15 16 19 20 21 22 22 21 19 17
6 7 5 3 0 5 10 6 9 5 5 6 13 16 17 16 17 17 20 18 18 17 17 14 15 14 13 11 10 8 5 3 6 6 7 9 9 11 13 15 18 19 20 21 21 23 20 18 18
8 3 4 4 3 6 4 4 6 7 6 8 13 16 17 17 18 17 18 18 17 17 15 14 15 15 13 12 9 7 4 5 7 6 7 7 9 11 14 16 17 19 20 20 20 21 18 18 17
7 8 6 4 2 4 3 2 7 4 5 8 11 14 16 17 17 15 17 18 15 14 14 15 15 14 13 9 8 6 6 6 7 7 7 8 10 13 14 16 18 20 20 20 16 18 21 18 18
9 8 9 6 6 3 3 5 4 5 3 6 9 13 15 17 17 15 17 15 16 16 17 16 15 15 10 8 5 8 7 7 8 8 8 8 12 14 16 18 19 19 20 17 12 16 19 18 12

GFSSGP_925_spd_048.txt.gz
Wind_Speed
8 10 11 16 6 7 15 19 23 6 13 14 16 16 21 19 8 11 13 30 35 29 26 24 23 24 24 23 22 20 19 17 16 15 14 13 12 13 13 15 16 17 17 17 16 17 17 17 16
9 16 15 7 8 12 14 8 17 16 7 10 13 13 14 16 14 13 10 25 28 26 27 24 23 23 23 22 20 18 18 17 15 14 13 13 13 13 14 14 15 16 16 15 15 16 16 16 15
9 12 8 7 12 15 17 18 13 11 9 11 6 13 7 4 9 2 15 25 27 25 25 26 23 22 21 21 19 17 16 15 14 13 13 12 13 13 13 14 13 14 14 14 15 15 15 16 16
8 11 7 9 18 21 6 10 6 14 12 9 12 10 8 8 3 2 14 20 25 23 24 24 21 22 19 21 17 15 14 14 13 13 12 12 12 13 12 12 13 13 14 15 15 14 14 16 16
15 7 12 15 17 21 16 17 12 9 10 10 9 7 8 3 20 11 7 17 24 23 23 22 18 19 18 18 16 15 15 14 13 12 12 12 12 12 11 12 13 14 15 14 13 13 13 15 15
10 10 13 15 20 20 11 22 25 17 12 14 12 7 5 14 15 15 17 11 22 23 17 21 19 18 18 16 16 15 15 14 13 12 11 12 12 11 12 12 13 13 13 12 11 11 12 12 14
13 12 17 19 17 13 7 13 12 8 9 9 7 7 8 17 16 18 19 16 20 18 20 20 20 19 17 16 16 15 15 14 13 12 12 11 11 12 12 11 10 9 9 8 8 8 9 10 12
12 12 21 19 17 9 15 7 10 16 8 12 11 2 10 20 25 24 25 25 23 19 20 21 19 18 18 16 14 14 15 13 13 13 13 12 13 13 11 8 6 6 5 5 5 6 8 8 8
17 11 14 16 11 5 14 5 7 10 10 10 6 12 22 27 25 24 21 16 23 21 24 22 20 18 15 16 15 14 14 13 14 14 14 13 10 8 7 5 3 3 3 4 6 8 8 9 11
11 12 15 9 9 4 3 4 15 4 5 9 14 19 27 23 27 23 20 15 19 18 23 23 22 15 18 15 16 14 15 15 12 11 9 6 6 7 4 0 2 3 6 3 6 6 9 9 10
16 15 12 11 17 16 12 18 23 4 7 9 13 17 16 23 24 25 32 35 29 23 21 20 20 16 19 16 19 14 13 12 10 5 3 9 4 3 4 3 3 2 3 4 7 8 6 11 10
15 14 12 14 12 8 11 4 16 10 10 15 5 21 19 17 16 21 27 26 25 24 21 20 18 14 19 17 16 14 16 14 11 9 4 4 4 4 1 3 4 2 8 9 7 9 10 11 12
14 8 11 3 15 3 18 15 5 14 13 18 17 18 18 16 21 10 24 26 25 24 22 21 19 17 18 14 16 15 12 11 8 4 2 2 1 2 0 3 5 7 5 11 10 10 10 14 15
2 4 8 10 5 2 19 9 5 6 18 18 17 16 14 15 30 23 23 24 24 24 24 23 21 20 15 19 17 15 16 13 9 5 1 3 2 4 3 2 9 9 4 7 9 13 14 15 17
10 12 8 2 3 2 23 7 16 7 17 16 16 14 14 15 19 18 20 21 25 25 24 24 23 20 21 22 20 15 15 13 9 6 5 4 5 3 7 7 6 6 9 10 10 13 14 16 17
4 7 3 2 9 10 10 14 13 16 14 14 13 13 13 13 16 18 19 21 26 27 24 23 22 24 25 23 21 21 17 10 8 6 6 7 8 9 8 6 8 9 7 7 9 12 14 16 18
3 8 15 9 14 6 10 12 14 13 15 15 14 14 14 14 17 18 18 18 23 27 24 23 24 26 23 22 16 10 9 8 8 9 8 10 9 7 7 7 4 6 5 7 7 11 13 16 18
13 14 12 9 11 13 16 7 14 13 15 14 13 14 13 11 11 19 15 19 26 27 28 22 24 23 19 16 8 5 6 4 5 9 8 9 7 6 4 3 2 4 6 7 10 9 12 15 18
6 7 13 13 10 12 11 14 13 13 11 15 14 13 13 13 13 14 13 13 22 27 28 28 22 19 16 11 10 9 10 10 10 8 7 7 7 4 4 3 4 4 7 8 9 10 13 14 18
13 6 9 11 10 10 11 10 13 14 14 13 14 14 14 14 12 13 12 11 13 25 26 27 22 17 18 13 11 13 13 12 12 12 10 8 7 5 2 3 3 6 8 10 10 13 15 16 14
11 8 9 11 7 9 7 11 15 13 13 13 13 16 15 15 14 12 15 14 13 19 21 20 19 19 19 17 16 18 16 16 15 13 13 11 7 3 1 1 4 5 7 10 14 14 14 18 20
5 9 10 15 11 9 7 6 2 11 14 16 16 14 16 17 15 14 14 14 14 15 17 21 23 22 18 19 19 19 16 15 15 16 16 11 9 5 2 3 5 6 8 11 13 16 19 18 18
4 15 17 11 9 4 4 7 17 11 16 14 10 11 11 13 14 14 18 20 17 20 25 26 24 20 20 16 16 16 9 12 10 6 9 7 7 9 8 8 9 7 8 12 15 15 18 19 19
14 13 12 9 9 6 15 11 9 13 16 9 13 13 10 10 10 10 24 25 26 27 23 23 22 20 19 13 13 16 10 10 10 8 7 5 9 4 4 2 5 9 14 13 16 18 20 21 20
7 8 3 5 6 5 9 7 2 19 14 20 17 13 12 11 10 11 13 17 21 19 19 20 20 19 17 14 11 8 7 6 5 3 3 1 5 7 7 9 9 11 15 18 18 20 21 22 20
17 1 2 3 3 6 13 4 5 12 7 9 13 12 11 11 11 13 15 19 20 18 18 18 18 18 18 14 12 10 9 8 6 4 3 4 6 7 8 9 10 12 15 17 18 20 22 23 20
11 4 3 6 3 2 5 11 7 7 8 5 12 13 13 13 13 14 18 21 22 20 19 17 18 18 19 15 14 12 9 4 4 3 3 4 4 4 6 10 12 15 16 18 19 20 20 17 14
6 6 3 2 2 4 8 11 10 7 8 6 11 12 14 13 13 13 17 18 23 23 20 20 15 21 19 16 13 11 9 5 5 4 4 4 4 5 8 10 12 15 17 18 19 22 12 16 18
5 7 6 8 4 1 4 4 6 7 8 7 7 12 13 14 13 13 15 22 19 22 21 19 15 21 19 17 14 12 7 4 3 8 4 2 4 6 9 11 14 17 18 18 21 12 14 19 22
10 11 8 3 6 3 0 5 4 6 6 6 6 10 13 14 13 13 16 19 19 18 19 14 14 17 16 15 13 11 7 11 9 6 6 4 5 8 10 12 15 16 17 18 14 14 13 15 15

GFSSGP_925_spd_051.txt.gz
Wind_Speed
6 7 8 2 2 3 5 9 3 2 5 3 14 15 13 9 4 5 18 30 36 35 28 26 27 27 25 24 25 25 24 23 23 22 20 18 18 18 18 19 19 20 19 19 19 20 20 19 19
8 6 4 2 2 2 6 4 5 4 5 4 10 5 11 6 5 11 15 28 36 36 32 30 30 29 26 23 24 24 22 23 23 20 19 18 18 18 18 18 18 18 18 18 19 20 21 22 20
10 7 2 4 3 7 4 1 5 3 4 6 5 7 4 3 5 3 25 30 36 32 36 32 31 29 28 22 22 22 21 21 21 21 20 19 19 18 17 17 17 17 18 18 20 21 22 23 23
3 4 4 1 10 16 14 7 13 14 8 9 8 6 5 10 5 8 25 28 35 36 37 33 30 29 27 24 22 21 20 20 20 20 20 19 18 18 17 16 16 17 17 18 20 20 20 21 21
5 2 2 4 11 9 15 7 11 7 9 9 7 3 4 5 12 13 13 9 29 36 36 31 29 28 25 23 22 20 20 20 19 19 20 19 18 18 17 17 18 17 17 17 18 18 19 19 20
2 2 2 6 12 9 7 10 7 8 10 5 7 7 3 12 13 17 18 28 36 23 30 28 24 24 23 22 21 20 19 19 18 19 19 18 17 17 17 17 16 15 15 15 15 15 15 15 16
6 2 7 11 16 6 8 6 4 4 4 3 6 5 6 9 19 23 25 31 31 24 19 20 20 20 21 22 21 19 20 19 18 18 19 18 17 16 15 14 13 13 12 11 11 11 11 11 14
4 4 9 10 5 3 2 3 5 4 4 5 1 6 6 9 21 26 27 30 34 24 25 17 20 23 23 22 20 19 19 18 19 19 19 18 17 15 12 11 10 9 8 8 9 10 9 11 10
1 2 7 5 1 5 6 6 3 4 6 1 3 3 18 32 26 29 28 25 24 22 24 26 23 23 23 22 20 19 18 19 20 20 19 17 14 13 10 9 7 7 6 7 9 11 9 10 13
2 1 8 3 7 6 2 7 5 3 1 3 9 18 21 29 30 23 21 21 22 19 20 22 24 24 23 22 20 19 20 21 20 18 15 13 10 7 6 6 6 6 5 6 8 7 9 9 10
8 6 4 2 6 8 8 8 2 10 4 5 11 17 20 21 20 26 35 27 27 24 21 24 24 25 23 22 22 22 21 20 16 11 8 11 10 10 5 3 3 1 4 6 5 10 10 9 9
5 9 5 11 7 10 8 9 9 8 4 5 21 14 17 14 17 24 26 27 33 22 28 24 24 23 26 24 23 20 19 17 14 13 11 9 10 8 6 6 3 10 13 13 11 8 7 8 9
6 8 2 13 9 10 14 7 8 10 16 4 16 15 19 13 26 24 28 31 22 28 26 22 25 26 21 21 20 19 22 20 17 13 10 8 6 8 10 10 14 11 8 6 5 7 9 10 11
5 10 8 11 11 8 11 6 4 6 8 12 15 15 16 18 30 34 28 28 28 28 26 24 21 22 20 26 25 25 22 19 13 11 7 7 9 8 9 11 11 9 7 6 7 8 8 10 12
3 7 5 4 10 3 5 7 4 5 7 14 13 15 17 19 35 29 31 30 33 29 28 27 22 21 26 23 18 16 16 14 14 13 10 7 9 9 8 9 8 8 9 8 6 6 9 11 12
3 5 4 4 12 4 9 8 10 7 10 8 9 16 17 18 23 27 30 32 36 35 30 27 23 25 24 22 18 16 16 14 12 10 12 13 12 10 10 8 10 9 7 6 5 8 12 12 13
3 4 4 1 21 9 7 6 11 8 10 9 9 10 17 15 16 28 32 37 39 35 31 27 29 27 23 20 21 21 16 12 12 14 15 15 13 10 8 9 9 7 4 5 8 10 9 11 13
3 3 5 7 12 20 13 7 8 11 13 11 10 9 10 12 11 27 33 33 38 36 36 33 30 28 26 26 20 13 12 12 12 15 16 15 14 11 6 7 7 6 7 7 7 6 9 12 14
8 13 10 7 9 10 15 10 11 9 12 12 10 9 9 11 14 27 33 35 34 39 37 38 37 32 27 22 14 12 13 14 15 15 14 13 11 10 12 10 8 6 5 7 7 11 13 12 13
9 12 1 8 5 7 6 12 12 9 12 14 13 11 13 8 11 14 23 32 34 40 39 38 35 29 23 18 15 13 17 18 17 15 13 13 11 8 7 5 3 2 3 4 9 11 11 11 18
7 4 2 3 4 2 3 2 2 6 7 12 14 14 13 15 13 8 16 28 29 29 37 35 31 26 21 21 18 16 18 20 18 14 15 14 10 8 4 5 3 0 3 6 9 10 13 13 15
8 13 2 0 3 2 4 2 1 4 9 8 12 11 11 11 13 10 14 22 27 29 29 28 25 22 24 23 24 26 23 24 23 18 17 14 12 11 9 6 5 5 3 4 7 9 11 14 16
7 11 6 5 2 4 2 4 6 5 5 5 9 11 15 17 18 16 16 28 32 29 28 25 23 22 25 22 28 26 25 23 19 19 18 16 13 10 8 8 6 4 2 3 6 10 14 15 17
3 2 4 5 3 2 10 5 4 7 18 4 6 4 9 10 14 13 22 24 27 30 26 24 25 25 22 27 26 25 18 20 23 24 22 16 13 10 9 9 6 1 3 7 11 15 16 16 19
6 4 3 5 6 4 4 5 8 8 9 17 17 14 5 9 12 14 14 18 21 23 22 25 25 26 28 19 19 16 18 18 17 17 15 11 9 9 5 1 2 4 7 11 14 14 16 18 21
5 3 4 4 1 5 5 4 5 3 7 14 14 8 6 9 10 13 13 19 22 24 23 24 29 29 25 19 15 14 14 14 14 12 10 7 4 5 3 3 6 10 13 13 13 15 17 20 14
1 4 6 5 2 3 4 3 4 6 6 8 10 9 8 9 8 10 15 24 27 27 24 21 23 26 24 20 18 16 15 14 13 9 7 7 3 2 3 6 9 10 12 13 16 17 18 12 8
5 4 2 3 2 3 4 3 3 6 5 6 9 9 9 9 9 8 13 23 28 27 22 18 14 25 25 24 23 19 16 12 5 7 4 5 6 3 6 8 8 10 12 14 15 16 8 10 14
2 3 2 4 5 5 1 4 2 8 8 9 9 13 12 10 10 9 12 24 30 31 27 26 19 25 24 24 21 20 15 9 8 3 2 6 4 5 4 7 9 11 12 11 12 9 12 15 16
6 6 6 5 5 3 5 5 2 7 8 9 8 12 13 13 12 10 15 24 27 30 31 32 23 27 25 24 21 17 10 5 2 4 5 8 6 2 3 6 10 12 12 14 13 16 16 12 10

GFSSGP_925_spd_054.txt.gz
Wind_Speed
5 3 2 2 4 4 4 6 5 8 1 7 3 11 10 4 3 3 9 17 30 30 34 34 35 34 27 27 26 25 24 24 23 22 22 22 22 23 22 23 23 22 20 21 23 23 23 24 27
3 2 1 2 4 2 5 5 3 5 6 6 6 7 6 5 4 9 11 24 31 30 32 35 35 32 30 27 25 26 23 23 23 21 23 23 22 23 22 22 22 22 22 24 25 26 26 26 30
4 4 3 3 3 5 4 3 3 0 2 2 4 6 4 2 4 7 11 28 27 27 32 35 36 34 30 27 25 24 23 22 22 21 24 24 22 22 21 21 22 23 24 25 25 26 26 25 28
1 4 3 3 6 5 3 13 6 5 3 4 4 7 5 4 1 10 29 29 27 28 33 32 37 36 32 27 26 24 24 22 21 22 23 24 23 21 20 22 23 23 24 24 26 26 25 25 23
1 3 0 4 3 1 2 5 7 5 2 4 1 3 4 4 20 22 26 23 25 24 32 31 31 31 28 27 24 23 22 22 23 23 23 23 22 21 21 22 22 23 22 22 23 22 22 22 20
3 3 3 1 3 1 2 4 2 3 6 7 6 5 3 9 22 26 21 24 24 22 22 23 25 26 24 25 23 23 22 22 22 23 23 23 23 22 20 21 21 20 19 19 18 18 19 20 20
5 3 4 3 3 5 2 5 1 4 8 3 2 4 2 6 24 32 34 33 33 29 26 23 20 21 21 21 22 22 22 22 23 23 23 23 22 21 19 19 18 16 15 16 16 14 15 14 15
5 4 2 3 2 5 1 4 7 2 5 3 2 5 5 8 27 33 30 26 34 27 27 28 20 14 20 21 21 22 22 22 22 22 23 22 21 19 17 16 14 13 14 14 14 13 13 11 9
4 3 3 6 7 3 3 4 2 6 4 3 5 3 18 25 28 29 28 25 26 26 28 26 20 22 23 23 22 21 22 22 22 22 22 21 20 17 15 13 12 12 13 13 13 11 12 11 11
4 3 7 3 3 5 4 4 4 1 1 4 12 18 28 28 23 22 20 18 20 23 23 24 22 24 25 23 23 23 24 24 24 23 20 17 16 14 12 11 10 10 9 9 10 11 10 9 9
4 7 6 1 4 7 8 3 4 5 4 6 12 14 18 26 20 20 19 21 27 29 27 25 21 23 22 23 24 23 23 23 21 17 16 14 11 11 10 8 7 8 7 8 12 12 10 9 8
4 10 9 11 7 6 5 3 2 3 2 16 18 22 20 17 17 20 19 26 28 25 25 24 25 23 23 23 24 24 23 20 16 11 10 10 10 10 7 6 7 12 13 16 12 9 6 6 8
3 6 6 12 12 6 4 3 2 2 8 10 12 20 19 20 31 29 21 17 28 23 18 25 25 25 26 26 25 23 21 17 15 14 15 14 16 15 13 13 16 17 13 10 8 6 7 9 10
5 9 12 5 6 5 6 3 3 4 9 12 15 18 19 20 27 24 20 17 22 18 26 27 28 27 26 24 22 19 17 18 17 14 13 12 14 13 14 17 15 13 8 7 6 8 10 10 11
2 12 8 3 1 4 5 2 3 3 10 13 16 19 19 20 26 24 27 26 23 28 29 29 31 27 25 23 22 22 25 21 16 13 11 12 13 15 16 15 13 10 6 4 5 7 9 10 10
3 4 4 5 9 5 11 4 5 6 10 9 11 15 16 21 31 26 30 27 31 34 30 28 28 30 29 27 27 24 21 17 15 13 13 13 13 13 14 12 10 8 6 4 6 8 8 8 9
4 3 4 2 4 3 3 4 6 7 8 8 12 16 17 18 21 25 29 34 38 34 33 28 29 31 30 27 24 21 18 16 14 13 14 15 15 13 13 11 10 7 5 4 6 5 6 8 7
2 3 2 5 6 2 2 6 5 7 11 12 13 15 16 18 20 29 32 34 37 36 37 31 32 32 29 25 21 19 16 13 14 16 17 16 15 14 12 12 10 8 5 4 4 4 6 4 8
8 12 6 6 11 7 12 6 7 8 10 13 14 17 17 18 22 27 31 34 35 34 39 37 35 31 28 26 23 18 16 16 15 15 17 17 14 12 12 12 12 8 4 3 3 4 5 7 13
8 9 7 9 4 15 5 11 5 9 12 17 19 18 17 13 12 22 29 30 32 37 39 38 36 32 30 30 25 15 14 15 16 18 18 17 15 15 13 11 10 8 5 3 2 5 5 7 9
5 5 6 7 4 6 5 2 5 3 4 6 8 17 18 19 17 16 24 28 27 30 37 40 40 36 30 26 18 11 16 17 20 21 20 20 16 13 11 10 9 5 1 1 2 3 4 4 8
12 9 12 5 0 1 2 3 2 8 12 10 11 9 11 14 15 17 25 25 32 37 38 38 37 32 28 25 22 21 27 23 25 26 24 21 14 12 10 9 8 5 4 3 1 3 6 9 10
11 3 2 7 3 3 3 3 6 4 7 9 15 14 15 17 19 18 25 34 33 36 40 38 34 32 29 28 24 25 26 28 26 26 24 20 17 14 13 11 8 8 6 2 1 6 9 9 10
4 4 6 6 4 2 4 5 5 6 11 15 9 17 13 12 13 11 22 27 30 36 38 34 35 34 30 29 25 30 29 29 24 26 26 22 20 17 12 9 10 5 1 3 7 10 12 13 15
3 5 2 3 3 5 6 4 9 4 7 8 9 9 10 11 9 11 14 21 23 27 29 36 35 29 26 30 27 31 30 29 27 29 27 22 17 16 15 10 4 2 4 6 6 8 12 13 15
4 3 5 3 3 4 4 4 6 7 7 5 6 9 10 11 13 13 16 21 23 28 32 31 30 26 22 25 30 30 23 23 21 21 20 15 15 12 8 6 2 3 3 7 9 11 11 14 14
3 2 6 5 1 3 3 4 6 6 7 7 6 8 7 9 10 12 14 20 24 28 31 33 29 25 24 26 26 22 21 22 20 16 16 21 12 11 4 4 7 6 7 11 12 13 14 12 8
6 5 2 3 2 3 4 4 5 2 2 2 4 8 8 8 8 8 13 20 26 30 29 27 27 29 30 26 25 24 24 22 20 19 15 6 8 1 9 7 4 9 14 14 15 14 11 11 14
1 2 1 4 5 4 1 5 5 8 8 10 9 8 11 12 11 11 13 23 31 31 31 29 30 33 30 28 27 26 24 26 19 11 3 6 2 6 4 8 8 10 11 15 15 14 13 14 16
4 5 5 5 4 1 4 5 4 9 10 8 8 8 10 13 14 14 19 25 27 33 35 33 36 38 37 33 31 27 21 11 9 10 8 3 5 6 5 5 7 11 14 13 13 14 13 14 13

GFSSGP_925_spd_057.txt.gz
Wind_Speed
2 3 2 3 3 5 4 6 3 8 2 5 4 2 2 4 1 3 5 14 29 33 31 31 30 30 30 29 30 27 23 22 22 24 25 25 26 27 27 26 24 22 22 23 25 27 28 27 28
3 4 4 2 4 1 5 5 5 4 3 4 5 3 4 4 3 7 11 21 33 31 31 30 30 30 29 28 29 28 22 21 22 24 25 25 26 26 26 27 25 24 23 24 26 31 34 31 31
2 1 3 3 3 3 4 3 6 5 1 1 3 5 4 4 6 8 9 25 26 30 31 31 30 30 28 25 26 25 22 21 22 25 25 25 25 25 27 28 27 27 26 27 28 31 32 30 26
4 4 4 3 4 5 4 6 5 2 4 7 2 5 3 6 4 5 23 22 24 26 29 31 31 31 31 24 25 25 21 21 22 24 24 23 24 25 27 28 28 28 27 26 26 29 30 29 28
3 3 3 2 4 3 3 4 4 3 3 3 2 2 2 5 16 24 25 22 22 26 28 29 28 28 30 24 24 24 22 21 22 24 24 23 24 27 27 28 27 26 25 24 23 22 27 27 27
4 3 3 3 4 2 2 4 2 2 6 3 7 5 2 5 20 23 22 20 20 22 27 26 26 21 26 22 22 23 22 21 22 23 23 23 25 26 26 26 24 22 21 20 21 21 20 24 23
6 4 4 2 4 2 3 1 3 5 4 4 3 6 1 7 17 21 21 20 20 25 27 26 21 17 20 18 20 20 21 21 21 22 22 23 24 24 24 23 21 19 18 18 17 16 15 17 19
5 4 1 4 3 5 0 0 1 4 3 1 2 5 5 4 23 24 22 24 27 28 27 25 22 20 17 19 20 19 20 20 20 21 22 23 22 22 20 19 18 17 16 15 14 16 15 12 12
4 4 3 5 2 3 2 3 2 0 1 4 6 2 16 21 26 26 26 24 25 27 29 30 28 20 14 16 17 19 20 21 20 21 21 20 19 19 17 17 16 16 15 14 13 13 13 11 10
3 4 7 6 3 5 5 4 3 3 3 5 12 18 22 19 20 21 19 19 26 24 30 29 27 20 17 20 20 20 21 22 21 22 20 19 18 16 15 15 14 12 12 11 12 12 12 11 11
4 5 6 5 5 7 6 2 2 3 2 5 17 16 16 19 16 13 17 21 27 30 25 22 24 20 22 21 21 21 21 20 22 21 19 17 15 14 13 13 11 9 9 11 11 11 12 11 9
3 7 7 6 7 6 6 3 3 1 2 13 20 18 18 15 18 20 18 22 25 30 31 29 25 21 22 20 21 21 22 21 20 17 16 14 14 11 11 10 10 10 13 14 12 11 10 9 9
3 6 1 6 6 1 4 5 3 4 10 16 16 17 18 13 18 19 24 23 21 22 22 28 21 24 21 21 20 21 21 19 17 16 14 12 14 12 12 11 14 15 14 12 10 9 7 9 10
3 9 5 4 5 2 2 1 2 5 10 14 18 14 17 18 21 17 21 19 23 24 23 24 23 24 22 24 23 23 21 18 16 15 14 14 15 14 15 18 18 15 11 10 9 9 8 10 10
3 6 5 2 3 2 2 1 3 4 16 16 14 15 13 15 19 17 24 28 25 25 23 25 28 26 25 25 24 22 20 19 16 15 13 14 16 17 19 19 16 14 10 8 9 8 8 9 11
4 4 3 5 2 3 5 4 4 11 16 13 15 13 14 15 14 15 20 27 29 24 23 28 27 26 25 25 24 22 23 19 16 14 15 16 16 17 18 17 15 13 10 6 6 8 10 11 10
2 4 2 3 7 2 4 2 6 8 11 13 14 14 14 11 10 16 20 24 30 23 29 32 30 28 27 26 24 24 22 18 16 14 14 16 16 18 16 15 15 11 7 5 6 8 9 7 8
2 4 1 5 1 3 4 7 4 9 9 12 12 12 12 13 17 22 21 22 23 24 28 29 31 29 27 26 25 23 20 17 15 14 15 18 19 17 16 14 13 9 6 5 5 6 6 5 5
3 4 7 8 12 9 9 5 5 8 6 7 9 12 13 16 20 21 23 22 23 26 30 30 32 31 31 29 26 22 20 17 17 18 21 19 19 17 14 13 11 8 4 4 3 2 4 3 7
2 2 7 9 6 8 5 8 5 7 7 12 13 13 15 13 11 18 23 26 29 33 34 31 33 35 33 31 28 24 22 19 20 22 20 18 17 16 13 10 9 8 5 5 5 4 2 3 7
3 4 5 7 6 3 4 4 5 5 5 7 12 17 15 18 17 16 22 29 33 37 39 38 38 38 36 32 27 19 21 16 19 21 20 19 16 15 13 10 9 9 7 8 5 3 3 3 3
5 6 4 2 2 3 3 4 4 7 11 12 13 13 16 17 16 16 22 27 36 43 41 41 40 40 38 33 29 25 24 18 21 24 23 21 18 15 13 11 10 9 9 8 6 4 3 4 3
6 3 2 2 3 1 3 3 5 5 8 14 17 14 16 18 19 20 25 34 30 29 35 36 36 37 37 32 29 24 19 19 19 24 23 21 18 16 15 13 13 10 8 6 3 2 3 3 3
3 4 5 3 2 2 3 3 5 5 15 15 15 16 17 16 14 16 23 22 24 28 30 35 40 41 36 33 28 24 21 22 21 23 22 21 18 14 13 12 11 7 4 2 3 4 6 6 8
5 5 3 4 4 5 4 2 8 5 7 8 14 17 14 14 11 12 13 21 23 28 34 31 33 32 36 33 29 26 24 24 26 25 26 26 20 15 15 16 9 2 2 6 13 8 8 9 10
2 6 5 4 2 4 3 4 6 5 7 3 8 8 9 14 12 13 16 22 23 27 29 28 30 32 36 30 27 29 26 28 27 24 26 25 20 21 16 6 4 3 12 17 8 7 9 11 10
1 2 3 6 3 3 3 6 9 7 3 3 5 6 8 10 13 15 17 22 22 24 29 31 32 32 30 31 30 32 27 29 26 21 21 21 24 18 8 3 5 13 8 8 7 9 8 5 5
4 4 3 2 2 3 4 4 5 6 7 0 5 7 7 5 7 9 13 19 23 29 32 32 33 32 30 28 29 29 30 27 24 26 32 28 16 7 6 1 8 11 10 8 10 8 5 6 9
2 3 3 4 4 4 1 5 6 7 7 7 4 8 8 8 9 10 12 20 26 27 31 30 30 30 31 28 30 30 30 31 31 27 23 17 13 13 10 7 12 17 9 8 8 8 9 10 12
4 7 5 4 4 1 4 6 4 9 8 5 8 5 6 7 11 11 15 19 24 29 31 33 33 32 30 31 31 29 29 29 27 22 18 20 18 15 11 12 15 10 10 8 9 12 11 11 14

GFSSGP_925_spd_060.txt.gz
Wind_Speed
3 4 3 3 4 4 3 6 3 7 3 3 1 4 9 6 2 3 3 10 28 32 33 33 33 34 33 33 32 30 28 27 26 25 25 27 28 28 28 30 29 29 26 24 24 25 27 26 26
6 5 3 3 4 3 5 4 4 2 3 3 3 6 3 7 3 2 7 20 32 32 33 33 32 32 32 31 30 29 26 26 26 25 26 27 28 28 28 31 31 31 28 26 28 30 30 29 27
5 2 3 4 3 3 4 5 4 3 3 3 3 3 3 2 2 7 5 24 29 29 31 30 30 31 31 30 27 25 24 26 25 25 26 27 29 29 29 31 32 30 28 29 29 27 28 27 24
3 5 4 4 2 5 6 6 3 3 2 5 2 6 2 3 3 6 18 21 25 26 30 29 29 30 30 29 27 25 23 26 26 25 25 25 27 30 31 31 32 31 28 30 28 27 26 24 24
4 3 4 2 4 4 4 4 3 3 3 3 4 5 3 4 9 20 22 19 23 25 28 29 30 28 28 26 23 24 22 26 25 24 23 25 28 31 30 30 30 30 28 28 28 27 27 25 23
3 3 4 0 4 5 4 3 1 0 1 2 4 3 2 4 17 19 19 20 20 25 26 29 27 27 24 19 18 21 22 22 22 23 22 25 28 30 29 27 26 26 28 25 25 25 25 24 21
5 4 2 1 4 5 3 1 1 1 1 1 4 4 1 4 17 17 18 17 17 22 27 29 28 28 24 22 18 19 21 23 21 20 22 25 26 27 26 23 22 22 22 21 22 22 22 21 19
4 4 2 3 2 6 2 0 2 2 1 2 2 4 4 4 18 18 15 16 20 27 28 23 25 32 27 17 16 20 18 20 20 20 23 24 24 23 22 19 18 18 19 19 20 20 18 17 15
3 4 2 4 3 4 1 1 2 1 4 3 5 2 11 18 22 21 22 22 24 22 29 29 30 24 25 20 12 15 18 18 19 20 22 22 22 21 18 17 17 17 17 17 16 16 16 15 14
4 3 7 5 4 4 3 3 2 2 3 5 7 13 16 19 19 18 16 18 25 30 27 40 31 22 21 14 15 16 19 20 20 22 21 20 19 18 17 16 15 16 14 14 14 13 13 12 13
5 6 6 6 6 4 4 0 1 3 2 6 12 14 11 16 15 15 16 21 30 39 33 26 33 30 18 16 16 18 19 20 21 21 21 19 18 17 15 14 14 14 13 14 14 12 12 11 10
3 6 4 1 4 5 6 4 2 2 4 9 19 17 15 14 13 18 21 28 26 26 36 30 33 26 16 17 17 18 19 21 22 21 19 18 16 15 14 12 12 14 13 14 12 12 11 10 10
2 4 2 3 6 5 5 1 4 2 3 11 11 13 12 9 11 12 21 26 29 28 28 35 26 20 19 19 19 20 22 20 20 18 18 15 14 13 13 13 14 15 14 13 12 11 11 11 10
1 4 1 3 2 2 4 3 1 3 9 11 12 10 8 8 13 17 16 22 22 24 21 30 23 19 20 20 20 21 21 19 18 16 15 13 15 14 14 16 17 17 14 12 11 11 11 12 9
2 4 4 2 1 2 2 2 3 10 10 10 9 10 8 9 11 14 25 24 22 21 23 28 22 20 22 20 21 21 22 19 16 15 15 14 16 17 18 18 17 15 13 10 9 10 10 9 9
3 4 4 1 2 2 1 5 2 13 12 10 8 10 9 7 11 16 16 20 26 25 22 18 20 22 20 21 21 21 19 17 17 16 15 17 17 18 18 18 17 15 12 8 8 8 8 9 9
5 1 2 4 5 2 2 3 4 13 11 9 8 8 9 7 9 16 18 21 28 25 22 19 20 23 22 21 21 21 19 19 19 16 16 15 18 17 17 18 17 13 11 9 6 8 6 9 7
2 2 2 4 4 3 2 7 5 11 10 11 9 7 9 9 14 16 20 19 24 26 21 22 22 24 24 23 22 20 21 20 15 15 15 16 18 19 18 17 16 14 12 9 7 7 7 6 4
5 4 2 4 6 3 8 7 8 9 7 9 9 8 10 13 15 16 19 20 21 26 23 24 28 26 26 25 23 22 22 19 17 16 16 19 19 19 18 18 16 13 9 6 5 7 7 4 4
2 2 4 6 2 5 5 7 4 10 12 12 14 12 14 10 7 13 19 24 26 30 28 28 31 32 31 30 29 25 24 19 18 18 18 19 19 18 18 16 14 12 8 7 7 6 6 4 5
3 4 3 5 3 2 1 5 4 6 6 7 10 13 11 14 13 10 17 27 31 33 34 34 33 33 33 33 29 22 22 18 19 20 20 20 19 18 16 15 13 12 9 9 8 5 3 4 3
5 5 3 4 0 1 0 3 5 5 8 9 13 12 13 13 11 11 17 21 29 30 31 33 33 33 35 33 32 31 32 22 22 23 23 21 21 19 18 16 14 13 10 8 7 6 2 3 1
8 4 5 3 1 3 2 3 7 3 6 12 13 13 15 16 16 16 19 25 26 31 33 32 33 34 37 37 36 33 28 24 20 24 25 23 20 19 17 16 15 12 9 6 3 1 2 4 3
0 3 4 4 3 1 2 4 5 5 8 6 5 10 14 13 13 12 18 21 22 26 30 32 35 37 36 36 36 33 25 24 20 24 27 24 20 18 16 14 12 12 10 3 2 5 4 4 4
3 5 3 4 3 5 2 1 9 1 5 9 11 15 16 14 12 11 11 18 23 29 33 34 34 31 36 37 37 33 28 26 25 26 30 27 25 21 19 18 20 16 7 5 7 5 8 7 7
1 5 4 2 2 4 5 4 5 4 6 7 9 10 10 9 12 14 15 21 25 31 32 30 30 31 34 34 36 34 31 29 24 23 28 29 26 23 22 22 16 3 4 2 4 9 11 9 8
2 2 3 6 2 2 4 7 9 4 4 5 5 3 8 10 12 15 14 22 24 27 32 33 30 31 29 36 35 34 31 28 24 25 25 27 29 31 28 21 14 8 6 7 7 10 10 9 7
1 6 3 3 1 4 4 5 5 8 6 6 8 6 3 4 6 7 8 18 22 26 29 30 31 33 33 33 35 32 29 27 26 26 26 31 31 29 22 15 9 10 9 7 11 9 9 9 9
3 1 4 4 4 4 1 5 7 7 5 3 4 7 6 7 8 7 7 15 19 21 25 28 30 30 31 30 30 30 28 28 25 25 26 31 29 24 17 13 10 7 7 10 12 9 10 13 11
5 8 6 4 4 1 3 6 5 9 7 4 6 5 5 6 7 7 8 15 20 25 27 31 29 29 29 29 29 29 29 28 27 28 31 28 23 16 14 12 9 6 13 13 12 9 13 13 12

GFSSGP_925_spd_063.txt.gz
Wind_Speed
4 4 1 3 3 1 3 2 2 3 3 2 5 1 2 5 1 1 4 7 22 33 30 31 34 35 34 34 34 32 30 28 26 26 27 29 29 28 27 28 28 26 24 23 22 22 26 25 23
5 3 3 2 2 2 2 2 4 1 5 1 1 0 3 4 4 4 10 10 26 33 32 30 33 34 33 33 32 29 27 27 27 28 30 30 29 29 28 31 28 26 26 27 28 27 27 25 23
4 3 1 2 1 3 3 3 1 8 5 4 2 6 1 2 5 9 9 18 25 31 32 31 34 34 33 32 31 29 28 28 29 30 31 30 30 30 30 31 28 28 27 29 28 28 26 24 24
3 3 3 1 4 5 4 2 3 2 2 3 2 4 1 4 2 6 19 24 28 32 32 35 36 36 34 32 30 30 30 29 29 31 31 30 31 31 29 29 28 29 26 27 27 26 25 24 23
4 2 2 2 4 4 4 3 2 2 0 4 3 0 4 6 4 11 17 23 27 31 33 33 35 35 34 31 31 30 30 30 29 29 29 31 30 29 27 27 27 27 27 25 25 25 24 23 20
2 1 1 3 4 4 3 1 2 1 1 4 4 3 1 4 7 12 14 17 18 30 27 29 30 29 32 28 28 30 31 30 27 28 28 30 30 29 28 27 27 27 27 27 26 25 22 20 18
2 2 1 4 5 4 1 1 3 2 1 3 5 4 1 2 11 15 14 15 18 25 23 27 27 29 31 28 25 28 29 30 27 27 29 28 28 28 26 26 26 26 26 26 25 24 21 19 17
3 2 1 3 3 4 0 2 3 2 2 3 1 5 4 3 15 16 13 14 22 24 28 29 33 31 19 28 26 25 26 28 29 27 27 26 25 24 23 23 22 21 22 23 22 20 19 16 15
3 1 3 4 3 4 1 2 2 2 4 2 3 2 7 16 18 18 22 23 25 24 27 29 35 28 26 15 25 20 22 25 27 28 27 26 24 21 18 19 20 22 21 21 19 18 15 14 14
3 3 6 6 4 2 1 2 3 4 4 3 3 7 12 15 17 18 16 15 23 24 26 35 33 31 31 22 16 23 23 24 27 28 27 25 22 20 19 18 18 18 20 21 19 17 15 14 14
3 5 4 5 7 1 3 2 2 2 5 8 10 14 12 12 12 14 14 21 23 30 31 36 35 28 25 21 18 19 20 23 24 25 25 23 21 19 18 18 17 20 18 18 16 14 13 12 11
3 8 5 4 2 4 4 3 0 3 2 5 10 13 12 13 11 15 20 21 29 29 33 41 33 33 27 19 15 18 20 21 24 23 22 22 20 18 17 18 18 17 16 16 13 11 11 10 9
3 3 4 5 5 4 2 3 2 3 8 12 13 13 9 9 11 11 23 24 29 31 34 43 37 27 15 12 14 16 18 21 24 23 20 19 19 19 17 17 18 16 16 14 13 10 8 9 8
3 1 3 5 2 1 1 2 1 1 5 12 12 12 8 10 13 16 17 20 23 24 28 29 19 17 14 18 19 19 19 19 21 20 20 18 16 17 18 20 17 18 16 14 11 9 7 8 7
1 1 3 2 3 1 2 4 4 4 8 10 9 9 9 11 16 26 19 15 23 21 23 20 14 16 16 16 17 17 19 20 21 21 20 17 18 18 20 19 20 18 17 14 11 9 8 7 8
2 2 2 1 3 2 4 5 3 10 12 11 9 8 8 10 17 18 23 21 24 21 20 19 17 14 15 15 17 19 20 21 20 19 21 19 20 20 19 21 20 19 16 13 9 9 8 8 6
4 1 1 3 5 3 3 5 2 11 10 10 10 9 9 8 10 15 19 24 24 23 23 21 20 18 18 16 18 19 21 20 19 19 19 19 19 18 21 21 21 18 14 12 9 9 7 6 5
4 2 3 5 2 5 6 10 4 11 11 9 9 11 11 12 15 19 20 21 21 22 20 20 19 18 19 18 20 21 21 20 19 19 18 16 17 21 21 21 19 17 14 12 9 8 8 5 3
2 3 3 3 5 4 5 9 10 12 10 10 11 12 12 15 16 17 19 20 22 23 23 24 22 22 25 24 22 20 21 21 21 18 16 17 20 22 21 22 19 16 14 11 9 9 6 3 0
2 4 4 2 3 3 6 9 5 15 16 16 14 13 14 13 13 19 20 20 22 24 28 25 25 25 26 25 25 21 21 21 20 19 19 21 21 21 23 20 19 17 14 12 11 8 6 3 2
4 4 3 5 3 2 4 4 3 6 9 10 14 13 11 14 16 16 21 24 23 25 30 30 26 28 27 24 23 20 21 18 19 20 21 22 22 22 21 20 18 17 14 12 10 9 7 5 4
5 6 6 3 1 1 2 3 3 5 10 13 16 15 16 16 15 15 22 25 26 26 23 26 25 26 27 28 24 27 21 18 17 22 25 24 22 22 21 20 19 17 15 13 12 10 7 3 3
5 2 2 1 3 2 1 1 4 0 8 17 19 19 19 18 18 19 22 25 25 24 27 28 26 26 27 29 28 27 20 19 20 22 24 24 24 22 21 21 20 20 18 17 14 9 4 3 5
5 4 5 3 1 1 0 2 4 4 4 4 11 17 18 19 19 19 21 21 22 23 23 27 24 24 25 28 28 28 25 23 19 18 23 23 24 24 23 24 23 22 21 19 14 8 7 5 6
3 4 1 1 1 2 3 1 8 4 7 6 9 11 16 19 17 17 17 21 22 24 27 25 24 24 28 30 29 31 30 28 25 22 27 26 24 27 29 29 27 26 24 18 10 8 8 8 8
5 4 4 3 2 1 2 4 3 5 9 8 8 8 8 14 15 17 19 24 25 27 25 27 26 26 27 33 33 35 35 31 27 29 28 29 32 32 30 28 27 25 19 10 8 8 9 7 8
4 3 2 6 2 1 2 4 8 2 6 5 7 7 4 8 12 16 15 21 24 25 28 36 26 26 24 29 32 30 32 32 33 31 25 27 31 30 28 27 26 19 14 9 8 9 8 9 9
2 8 3 1 3 3 3 3 3 6 6 4 4 5 6 4 7 9 12 18 21 22 23 23 25 27 25 24 25 29 29 33 35 31 29 29 31 29 29 29 24 20 14 9 8 10 10 10 10
3 2 3 3 2 3 2 4 6 5 2 5 4 4 5 6 7 8 10 15 17 17 20 21 23 23 23 23 24 27 25 30 30 29 27 27 29 33 34 29 22 14 10 8 8 11 11 11 12
2 6 6 3 4 1 1 6 5 8 5 5 9 6 4 6 5 5 8 12 14 17 18 21 19 20 20 19 20 22 22 22 22 21 22 25 27 31 26 19 13 9 8 8 13 14 14 13 12

GFSSGP_925_spd_066.txt.gz
Wind_Speed
4 2 3 6 6 6 13 1 4 7 6 5 3 9 9 11 6 2 5 11 22 28 30 29 33 35 35 38 38 36 33 31 30 27 26 26 27 27 26 26 25 24 22 23 24 24 23 25 25
4 3 5 3 7 9 6 3 5 2 3 2 3 5 7 7 2 2 8 16 26 28 30 29 33 35 38 39 37 34 33 30 29 28 28 28 28 29 28 24 22 21 21 23 24 24 24 25 24
4 4 5 4 5 10 6 3 8 8 3 7 4 3 10 1 3 4 8 22 33 30 32 30 36 36 37 36 35 34 31 30 30 30 30 29 30 30 28 26 23 23 26 26 25 24 24 24 23
5 6 4 8 9 6 7 9 8 4 6 4 2 5 6 2 0 6 10 22 28 30 31 32 35 36 36 35 33 31 31 33 33 32 30 31 31 31 29 27 24 25 26 25 25 24 23 22 21
4 3 6 6 5 3 7 6 4 5 2 2 2 5 3 3 3 4 11 19 26 28 28 31 34 34 34 33 31 32 33 34 34 32 31 32 31 30 29 27 24 24 24 25 25 24 23 20 18
5 4 7 5 1 1 4 4 5 3 3 2 1 3 3 2 3 3 11 16 24 15 27 29 33 34 32 30 32 32 34 35 34 33 33 33 33 29 28 25 24 24 24 25 25 24 21 18 16
7 5 5 6 5 4 3 1 3 3 3 1 1 1 3 2 3 4 10 13 22 27 24 27 25 27 30 30 29 32 33 33 34 35 35 33 31 29 26 24 24 24 25 25 24 21 19 16 14
3 4 4 4 3 5 3 2 1 5 1 1 3 2 5 3 7 9 16 19 21 24 27 30 25 33 35 28 20 24 28 30 32 34 34 32 29 27 25 25 24 24 24 23 22 19 18 15 14
3 6 4 3 4 2 0 4 1 3 2 3 2 4 5 15 11 15 22 22 26 27 34 32 36 35 39 38 27 20 23 25 26 31 32 30 24 23 21 18 22 22 21 20 19 17 16 13 11
7 6 3 3 4 8 4 7 2 5 3 4 2 2 9 13 12 12 11 13 22 25 32 37 37 42 36 33 31 17 18 20 19 22 23 22 21 18 18 20 20 20 20 18 17 17 15 11 7
4 10 5 8 8 10 7 6 2 5 5 4 2 7 9 9 10 14 11 13 19 27 29 32 37 32 37 37 29 21 13 15 18 20 21 19 18 19 17 19 18 19 18 16 14 10 8 7 7
8 7 9 8 7 6 6 2 2 5 6 5 3 11 9 6 7 11 12 16 18 24 31 32 36 38 39 36 28 19 13 16 19 19 19 18 16 16 16 15 15 14 12 13 10 9 9 8 7
8 6 4 3 2 2 2 2 4 3 5 8 10 10 8 6 9 10 15 17 24 27 37 33 32 38 31 35 27 24 21 18 17 17 16 16 15 14 14 15 14 13 13 11 10 10 9 7 6
2 2 1 4 5 3 5 1 4 8 7 9 10 9 7 7 10 14 18 15 19 30 25 35 33 39 30 22 21 20 17 17 17 17 15 14 13 14 14 14 13 13 11 10 9 8 7 6 5
3 6 5 4 3 1 5 10 4 6 8 9 10 8 7 8 15 18 16 16 23 24 27 31 23 24 20 15 14 13 15 18 18 17 15 14 12 14 14 14 14 12 11 12 10 7 7 5 4
6 5 7 8 5 2 5 6 5 7 11 9 10 10 7 10 18 22 22 21 23 27 30 26 19 17 15 11 12 12 14 15 16 14 15 13 13 14 16 14 13 13 13 11 9 7 6 5 3
7 5 3 4 7 1 5 9 6 7 9 11 9 11 11 12 15 19 19 24 27 28 25 20 14 10 10 10 11 12 13 14 15 13 13 14 14 15 15 15 15 16 13 10 9 7 6 5 3
7 8 6 8 5 7 10 10 3 8 10 11 10 11 13 15 14 17 21 24 26 25 22 19 17 14 14 12 11 12 14 15 14 13 13 14 14 16 17 16 17 16 13 11 9 8 7 5 2
7 5 5 6 2 7 6 10 2 8 10 11 11 13 13 15 18 21 22 24 27 25 23 22 20 17 15 15 15 16 17 18 15 12 12 13 14 17 18 17 18 16 14 12 12 10 8 4 1
8 7 7 3 1 8 7 7 4 10 11 11 13 13 15 16 16 19 23 24 25 26 26 24 22 19 19 18 18 16 17 17 16 13 13 15 15 17 18 18 18 17 15 15 14 12 8 4 1
10 9 5 7 9 4 7 7 6 7 10 10 12 13 14 16 18 19 24 25 25 26 27 25 23 21 20 18 17 14 14 12 14 13 14 16 17 19 19 19 18 18 16 16 14 12 10 8 6
10 4 10 8 6 2 2 2 4 7 10 13 14 15 15 16 16 18 23 27 27 26 26 27 23 22 20 20 19 19 19 18 18 16 15 15 18 20 21 20 19 19 17 16 14 13 11 7 7
4 1 5 6 8 5 6 7 7 5 8 13 16 17 18 18 19 20 24 29 28 25 25 25 25 23 22 23 23 21 21 18 15 15 16 17 17 20 21 21 20 20 17 16 15 13 11 8 7
7 5 3 3 4 6 2 5 2 1 4 2 3 15 18 19 20 20 25 24 27 27 26 25 26 26 25 25 25 24 22 20 16 18 18 20 18 20 21 21 21 20 18 18 18 16 14 12 10
9 7 5 5 5 3 4 5 7 5 2 7 8 6 10 19 20 19 19 23 26 28 28 27 27 28 26 25 24 24 22 22 21 21 22 20 21 22 21 22 22 20 19 19 17 15 15 13 13
14 10 4 6 5 4 3 5 2 1 5 5 6 8 7 12 17 19 19 24 26 28 28 28 29 30 27 26 25 25 26 25 25 23 21 24 26 24 21 24 21 20 20 18 20 15 10 14 12
7 8 1 1 3 2 4 5 11 3 4 1 3 3 1 6 12 16 19 23 25 26 30 32 30 27 27 26 24 26 23 21 20 20 21 27 24 19 20 22 21 19 19 22 18 13 13 12 9
6 10 5 4 4 6 5 5 5 1 5 1 2 5 4 1 5 8 11 18 21 22 24 24 24 24 24 23 22 21 20 19 18 18 20 25 19 18 19 21 22 24 20 17 13 12 11 11 11
6 8 4 2 3 4 3 4 2 4 2 2 1 2 3 2 1 5 7 11 15 16 18 20 20 21 20 20 19 19 18 16 17 18 18 22 18 16 16 16 20 22 17 11 8 9 9 12 12
9 12 14 7 8 4 4 8 9 9 5 6 6 5 4 3 1 2 4 8 10 13 14 15 15 17 17 16 15 16 15 16 20 19 18 19 18 21 24 24 20 10 7 7 9 12 12 14 14

GFSSGP_925_spd_069.txt.gz
Wind_Speed
6 6 9 11 8 8 15 17 5 8 9 29 8 14 23 17 3 2 16 12 20 30 28 27 31 32 35 36 36 33 32 31 30 28 26 25 25 27 29 29 28 26 25 23 23 23 23 24 25
8 6 11 9 9 13 9 11 1 3 8 27 20 10 21 22 19 4 7 1 20 27 29 27 32 34 35 35 34 33 31 30 29 26 26 26 27 29 29 29 26 26 24 22 22 23 24 24 23
6 8 10 11 13 13 5 4 5 9 9 5 12 9 9 9 5 4 8 9 20 25 29 29 33 35 36 35 34 33 30 30 28 28 28 29 28 28 27 26 25 25 25 22 21 23 24 23 21
7 10 7 9 17 9 6 12 10 10 13 9 11 6 7 6 7 10 9 11 21 32 28 32 34 36 37 36 34 32 31 30 30 30 30 29 28 27 26 25 26 27 26 22 21 23 22 20 19
12 8 11 14 12 2 6 7 5 7 13 8 6 14 9 3 10 7 9 14 21 30 26 34 37 37 38 36 34 33 32 31 31 31 31 30 29 28 27 29 29 28 24 23 23 22 20 18 16
9 4 13 10 3 4 2 8 9 2 7 5 16 11 13 9 5 5 9 12 16 21 19 29 33 35 33 32 32 32 32 31 31 32 32 31 30 28 27 27 28 25 24 23 23 20 18 15 14
12 10 15 10 9 6 6 4 7 9 2 8 14 12 7 7 2 2 4 11 18 19 17 27 25 25 30 28 29 31 31 30 30 31 32 32 30 26 26 24 24 23 24 23 21 18 16 13 12
9 7 17 7 6 2 2 6 3 7 11 7 5 8 1 14 7 8 9 8 16 12 23 31 25 22 32 26 28 29 30 31 31 31 31 29 28 25 25 23 23 24 24 22 19 16 14 12 10
10 12 10 5 5 5 3 9 8 3 11 2 7 9 14 12 14 18 18 18 15 21 28 27 37 39 37 36 18 25 24 27 27 28 27 25 22 22 21 21 24 24 22 19 17 14 11 10 9
10 13 6 7 10 8 8 11 10 3 7 10 7 5 6 9 11 13 12 10 19 24 29 36 40 43 44 38 34 21 24 25 24 24 24 20 21 17 19 22 21 20 19 18 15 13 11 8 6
11 11 14 6 4 10 10 8 5 12 14 13 12 9 5 6 10 9 10 14 18 22 27 36 42 44 35 35 33 28 24 23 21 19 19 19 15 19 17 19 17 18 16 14 14 9 4 5 5
10 13 8 12 6 9 10 4 12 5 11 7 10 5 7 7 5 11 13 13 22 22 29 29 37 34 30 30 33 28 28 20 17 16 15 16 17 16 15 15 15 14 12 13 9 6 6 6 6
11 9 7 5 7 8 3 8 6 4 5 8 9 7 5 4 4 11 14 13 22 24 31 32 32 29 29 27 32 27 21 17 18 13 16 17 16 15 15 15 14 13 12 11 9 9 6 6 5
4 8 6 6 4 7 9 8 10 11 8 7 6 7 6 9 10 13 15 16 22 29 33 34 36 33 32 33 26 27 14 15 16 17 18 17 16 15 14 14 14 13 13 11 10 8 6 5 5
13 15 10 15 7 1 8 11 12 13 9 10 8 8 9 7 12 14 17 16 23 26 30 37 34 34 33 33 26 17 17 21 20 20 19 16 14 14 13 14 14 13 12 11 10 8 7 6 4
15 20 14 11 19 3 11 5 31 11 10 10 11 8 13 15 17 19 19 20 20 25 27 31 38 35 31 26 23 25 23 20 21 20 17 15 12 13 13 14 14 13 12 12 10 9 7 6 5
16 12 15 10 6 6 4 3 7 8 8 8 9 12 10 15 17 19 21 23 26 29 33 30 29 23 22 20 22 17 16 17 17 15 15 14 13 14 13 14 14 15 13 12 11 10 9 6 6
4 12 3 10 7 10 8 10 3 6 8 10 9 10 11 13 14 18 22 26 31 33 31 26 22 20 20 18 15 15 15 17 17 16 15 15 14 14 13 14 14 15 14 13 12 11 8 8 6
11 10 11 7 5 6 2 15 7 10 7 9 10 11 12 14 13 23 24 24 27 27 26 24 22 19 17 16 17 17 18 19 19 16 15 16 15 15 16 15 15 16 15 14 13 11 10 8 6
10 12 11 7 1 7 12 5 8 12 13 13 13 14 14 15 20 20 22 29 30 30 26 23 21 20 19 18 17 17 18 19 19 15 14 15 15 15 17 17 17 17 15 15 15 14 12 9 7
11 12 10 8 9 10 10 6 9 11 10 12 15 15 18 17 18 20 25 28 31 29 27 24 21 20 19 18 17 16 16 16 18 17 15 16 17 18 20 19 18 18 17 17 17 15 14 11 8
13 10 7 11 13 2 15 3 18 15 14 14 14 16 17 20 19 18 22 27 29 28 26 26 24 23 21 19 18 20 19 20 19 17 15 16 18 19 20 19 19 20 19 18 18 17 15 13 12
13 1 8 11 11 14 5 8 9 12 13 17 17 17 17 18 20 21 23 29 30 29 28 27 27 24 23 23 22 21 20 19 17 18 17 21 16 18 19 18 19 21 22 21 19 17 15 12 9
6 7 10 10 12 9 12 6 12 9 5 6 12 18 17 18 19 20 27 30 30 27 27 28 28 28 25 24 25 24 22 22 21 16 17 17 17 18 25 22 23 21 22 19 18 16 14 11 6
10 12 7 6 6 9 5 5 12 1 5 2 4 5 12 17 19 20 20 23 28 31 30 29 28 29 29 27 27 27 26 23 21 18 20 19 20 22 25 26 24 23 22 19 17 16 15 13 6
16 15 6 7 7 8 9 6 1 5 2 3 3 6 6 10 17 21 21 25 28 30 31 30 29 30 30 29 29 27 26 24 21 22 21 22 22 22 20 28 26 22 20 18 16 15 12 7 8
14 16 12 7 3 4 7 8 9 4 4 2 1 3 3 5 12 19 21 26 28 29 30 31 31 29 29 29 26 25 24 24 20 20 18 18 19 21 24 26 27 23 20 19 20 20 15 13 10
12 12 9 8 9 9 13 9 6 7 3 5 3 4 4 2 4 10 14 22 24 26 27 27 28 28 27 26 24 24 23 21 19 16 18 17 17 18 21 22 21 19 22 20 20 16 12 8 9
12 11 9 10 12 7 8 6 8 2 4 4 3 1 2 4 6 5 8 14 21 21 23 25 26 26 25 25 24 21 20 19 17 17 16 16 17 19 16 14 17 23 22 20 13 9 8 8 12
18 19 18 9 13 9 9 11 11 6 11 4 7 5 4 2 2 6 6 8 11 16 18 19 20 22 22 21 20 20 17 15 16 15 16 15 18 18 21 19 14 12 16 15 13 9 10 14 14

GFSSGP_925_spd_072.txt.gz
Wind_Speed
8 10 11 17 7 8 17 17 14 11 10 2 8 2 16 11 8 4 12 5 22 57 21 27 30 35 36 37 36 35 32 30 29 27 25 24 25 28 30 29 28 28 26 25 25 25 27 27 26
9 15 17 9 10 14 9 5 13 11 4 2 10 12 14 6 3 3 4 8 16 19 23 26 29 34 34 35 35 32 31 29 29 27 25 26 28 30 31 29 28 27 26 25 24 24 27 25 24
9 16 8 11 13 15 8 7 9 16 11 16 8 7 9 5 3 4 3 7 17 21 22 25 29 32 33 34 35 32 30 30 28 27 27 29 29 29 30 29 28 26 26 24 24 25 25 24 23
9 13 7 10 16 16 6 8 12 19 11 16 4 15 6 14 5 3 3 7 21 26 26 30 31 34 36 35 33 31 32 30 28 29 30 30 29 29 28 29 29 26 26 24 25 24 22 21 20
18 8 12 16 16 14 5 9 10 16 7 6 16 7 12 17 9 3 9 15 20 25 21 30 31 34 37 37 34 31 32 30 30 31 31 31 29 28 28 29 28 25 25 25 24 22 19 19 17
10 11 14 12 6 12 8 10 10 12 14 13 13 7 6 15 8 5 5 13 19 17 10 17 26 30 32 38 34 34 32 31 31 31 31 31 31 31 31 31 28 25 25 25 23 20 18 17 15
12 12 16 17 14 4 8 14 17 9 10 6 8 7 6 18 5 7 14 18 21 20 22 13 6 14 39 38 33 32 32 32 32 31 31 31 31 32 32 31 27 26 26 23 21 18 16 15 14
11 12 20 14 18 6 4 3 5 13 15 4 12 4 10 15 6 8 17 23 25 12 18 16 16 22 33 34 31 30 31 31 32 32 31 30 31 30 28 27 26 26 25 22 19 16 15 12 12
13 11 10 13 15 7 0 10 6 4 11 18 6 13 14 12 6 14 18 22 18 24 26 30 22 29 34 29 26 24 26 27 26 28 29 28 28 27 24 25 25 26 23 20 18 14 11 10 13
9 10 4 16 10 10 10 9 4 3 15 14 17 15 24 16 11 13 14 14 19 22 28 28 33 36 37 37 29 23 22 24 25 27 25 23 25 20 24 24 23 22 21 18 16 13 10 8 8
14 12 14 14 12 10 11 10 2 14 4 9 7 12 14 17 13 15 15 17 18 21 27 34 36 34 40 38 34 28 28 20 26 24 20 21 22 21 24 22 21 21 19 17 16 10 6 4 6
12 12 12 13 13 13 11 12 6 15 8 6 13 16 14 13 7 12 16 18 26 25 26 27 36 31 33 41 36 30 28 26 26 19 22 16 19 17 20 18 19 18 14 16 11 8 7 5 5
9 12 10 9 8 12 14 9 15 10 5 9 10 12 14 12 14 12 14 17 27 24 27 30 28 25 31 32 35 32 28 26 19 18 18 13 17 15 17 16 16 15 14 13 10 8 6 6 6
13 10 14 8 19 14 11 15 5 19 8 8 7 12 12 14 12 14 18 18 19 31 27 28 30 21 32 33 28 28 28 22 21 19 14 16 15 14 18 18 16 15 14 12 12 9 8 7 4
14 14 8 8 6 19 18 15 8 13 17 10 11 14 14 12 12 12 18 23 28 27 29 28 33 28 32 35 33 31 27 22 26 17 19 16 13 17 16 17 16 15 13 14 11 10 9 7 6
16 17 12 17 14 17 20 8 4 13 18 20 14 13 15 15 14 19 21 22 25 28 31 29 27 33 34 30 35 34 24 27 29 21 16 15 17 17 15 18 14 15 14 14 12 13 10 9 10
14 15 15 8 15 19 12 8 15 14 23 17 15 15 16 19 16 20 21 24 27 29 30 30 33 35 35 33 31 27 25 23 20 21 23 21 19 19 18 20 20 19 14 15 14 13 12 12 12
5 12 9 8 11 9 14 7 3 20 29 10 16 18 16 16 19 26 27 26 33 35 29 32 34 33 33 33 29 26 25 25 24 25 25 25 22 20 20 16 17 19 15 16 17 14 14 12 11
12 14 16 5 17 6 10 6 12 7 7 9 11 10 13 14 20 26 28 34 31 31 32 34 29 34 31 28 26 23 22 24 21 20 19 22 22 22 22 17 18 21 18 18 17 14 13 11 8
12 11 15 9 9 2 10 6 9 10 8 11 12 11 13 13 15 18 28 31 31 33 33 34 33 28 27 26 25 25 25 27 26 26 25 22 22 20 20 19 21 20 19 19 20 17 14 13 12
10 13 14 11 6 12 13 13 7 14 14 13 14 12 15 16 17 18 24 32 36 35 34 32 35 33 31 30 28 24 24 23 25 24 24 23 21 21 21 21 19 20 22 23 20 21 18 18 13
13 9 14 9 10 7 8 9 15 12 12 12 15 17 14 16 20 17 23 27 33 37 35 35 31 33 32 30 26 27 21 19 21 23 23 22 23 22 21 22 23 22 24 19 26 24 23 19 16
13 8 9 11 12 14 9 10 4 7 18 16 13 18 19 18 15 23 22 31 35 34 35 30 26 26 28 29 22 27 22 23 23 24 25 23 22 23 22 23 24 24 24 24 24 24 24 19 12
14 13 10 12 12 10 14 8 6 4 11 15 17 16 19 22 21 18 29 33 33 36 33 33 31 27 27 33 30 22 27 23 22 23 22 24 26 27 23 21 27 28 24 24 21 22 22 19 15
11 10 7 6 7 7 3 9 5 16 14 2 2 17 15 18 21 21 22 23 30 33 34 31 32 31 30 32 32 33 25 30 22 22 28 26 26 28 28 31 32 29 28 26 21 22 18 20 18
14 14 5 6 4 4 4 6 3 11 10 5 5 4 7 11 15 18 18 28 32 34 35 33 32 32 31 31 31 32 34 25 29 26 25 26 25 26 26 25 29 25 25 23 23 19 24 20 18
14 15 17 7 10 5 7 13 10 8 5 4 3 0 6 8 7 13 18 24 31 34 36 36 34 33 32 33 32 30 30 30 27 26 23 21 22 22 22 21 24 23 20 17 17 23 21 17 15
17 11 13 8 5 10 8 10 8 9 7 7 6 6 6 2 4 7 11 21 28 32 37 38 37 31 31 29 32 31 30 28 27 23 26 22 19 16 21 23 22 23 21 20 21 19 17 14 11
12 12 10 13 10 8 5 3 10 4 2 8 5 7 4 5 5 3 3 6 25 28 29 37 35 31 26 30 31 30 26 24 22 21 15 16 17 18 18 19 22 22 22 21 20 13 14 13 11
17 16 17 8 10 7 6 9 3 5 3 4 3 4 6 5 5 6 3 2 5 12 18 26 27 24 24 25 30 30 27 22 21 19 19 21 20 21 20 21 22 22 20 21 21 18 14 14 16

GFSSGP_925_spd_075.txt.gz
Wind_Speed
8 8 6 2 3 2 7 10 11 11 4 4 1 6 5 3 2 4 5 13 22 24 16 12 23 25 29 34 34 34 34 32 30 29 29 31 34 35 32 31 31 30 29 28 28 30 30 29 27
7 4 3 2 2 3 8 10 6 9 4 8 9 9 11 2 4 3 6 13 16 30 26 18 28 28 28 32 33 34 33 32 30 29 29 32 36 35 32 32 30 31 29 28 28 29 26 25 23
8 4 2 3 4 9 6 4 4 6 21 13 9 8 6 7 9 8 3 16 14 35 37 40 27 32 32 33 35 35 35 33 31 30 31 35 36 35 33 32 32 31 29 27 29 28 25 23 20
1 3 3 2 13 16 13 4 1 4 9 13 4 5 8 3 10 22 12 14 12 26 40 39 43 43 38 39 38 36 37 35 33 32 34 37 36 35 33 32 32 31 30 29 28 26 23 20 19
4 1 2 6 13 19 4 3 4 6 4 5 5 4 7 7 23 21 12 12 13 11 14 28 44 44 41 39 39 38 37 35 34 35 36 36 36 36 33 31 31 30 30 28 26 24 22 18 17
2 3 5 11 16 14 3 4 5 8 7 4 4 5 5 18 16 22 11 5 16 13 13 19 27 26 40 40 38 38 36 36 36 35 34 35 35 36 33 30 29 30 29 26 24 22 20 17 18
6 2 7 11 14 3 2 6 3 3 10 4 6 2 4 6 3 18 4 9 20 20 16 14 14 25 23 44 41 39 37 37 36 34 34 35 34 34 32 29 29 29 27 24 22 20 19 17 20
3 3 9 8 7 7 5 3 3 3 7 12 5 10 18 5 10 2 8 12 22 21 22 24 19 8 25 40 41 40 39 37 36 35 36 36 36 33 31 28 27 27 24 22 20 18 17 18 20
2 3 7 9 8 6 3 3 0 4 5 4 5 11 11 3 11 12 8 12 21 19 16 21 26 20 18 28 30 33 34 33 34 33 34 35 34 32 29 27 26 25 21 19 18 17 17 18 16
2 3 10 11 7 4 7 7 5 3 4 4 1 3 11 6 7 12 8 8 15 21 23 25 26 28 30 32 25 25 28 31 32 32 31 32 31 30 29 26 25 23 20 17 15 15 14 14 11
9 8 9 8 7 6 7 8 8 9 2 3 5 9 9 10 8 12 10 11 15 24 30 32 35 35 36 38 37 31 30 32 30 29 32 28 27 29 28 26 23 21 19 18 15 13 10 9 10
5 13 6 7 6 8 10 9 5 19 2 6 7 14 9 8 7 11 13 18 20 21 28 31 38 39 43 43 39 36 34 32 25 28 24 25 26 27 26 25 21 20 17 17 12 10 9 7 6
7 6 6 1 6 6 11 8 4 5 7 11 14 12 8 6 8 12 15 17 22 23 26 27 33 33 42 42 43 41 37 29 23 26 21 23 26 26 24 22 20 17 16 15 10 9 7 7 9
10 8 5 3 7 3 4 6 4 1 11 19 7 9 8 8 7 9 19 18 19 27 24 27 30 36 27 37 39 39 30 23 26 26 21 19 20 21 17 18 18 16 14 12 12 8 7 9 6
11 8 9 3 4 4 5 8 3 3 6 19 13 7 7 9 8 10 16 22 24 23 25 26 34 34 35 35 35 33 33 31 31 26 20 18 13 12 17 17 17 17 18 15 13 8 9 11 6
9 7 6 10 5 7 8 10 2 5 14 13 4 9 10 9 9 14 20 24 26 31 31 28 32 39 40 36 38 39 33 34 26 26 17 15 14 15 17 19 18 18 19 17 13 14 12 11 10
6 10 12 15 10 4 6 3 6 4 14 9 11 8 12 12 12 12 17 24 28 29 29 29 33 35 34 30 30 30 31 29 28 29 17 15 16 19 18 22 19 19 18 19 18 17 15 13 12
9 6 5 6 6 9 10 7 8 7 11 15 13 14 14 15 15 20 19 20 23 23 23 27 31 33 32 32 33 34 29 22 27 28 21 24 26 21 22 22 24 21 21 20 20 18 16 16 13
17 14 8 5 1 4 9 6 10 10 5 8 9 15 16 16 19 25 24 22 25 30 25 27 29 35 33 34 33 31 26 30 34 33 32 29 26 28 26 25 24 24 26 23 22 20 19 13 17
20 6 7 7 7 6 5 6 7 10 11 10 16 16 18 17 17 23 25 27 25 25 28 30 31 35 34 33 32 25 31 32 33 28 30 32 31 28 26 27 25 25 28 25 25 24 20 20 16
6 5 7 7 6 4 3 5 4 5 7 14 15 16 21 22 21 19 25 30 28 27 30 31 34 36 37 35 30 26 24 27 30 27 28 31 30 30 30 27 26 27 31 28 28 29 27 23 19
5 9 9 6 5 2 3 4 4 6 8 11 14 16 19 20 19 21 23 28 31 33 35 37 35 35 38 37 32 29 25 24 28 36 34 33 33 31 29 26 27 27 32 31 29 31 30 24 22
8 7 1 3 6 5 2 2 7 8 11 10 18 17 18 20 22 23 24 33 37 37 37 37 38 37 35 37 35 33 31 33 31 34 36 39 36 32 31 28 25 29 31 30 26 30 28 28 22
5 4 6 2 1 4 8 4 6 6 13 13 17 20 21 19 22 22 32 34 38 38 37 35 36 36 39 41 42 37 37 36 33 31 37 39 36 36 34 30 29 30 29 30 30 31 34 30 27
6 3 2 4 1 6 3 5 10 9 7 5 18 21 20 20 22 21 23 28 35 39 38 36 37 36 43 43 39 40 45 39 39 37 35 35 36 38 37 34 32 31 31 28 26 27 26 27 19
7 8 5 6 2 3 8 3 6 8 4 8 9 18 19 20 20 22 25 33 37 41 41 39 38 35 36 38 43 42 43 46 39 39 37 40 40 39 37 36 32 29 27 28 23 23 21 19 19
4 6 10 5 2 3 5 7 5 6 6 7 4 4 15 20 19 21 21 34 38 39 44 44 39 39 36 35 39 47 44 41 43 40 31 36 36 32 32 33 26 24 25 24 24 22 15 20 20
10 4 4 2 7 5 5 2 3 6 2 6 6 8 7 8 12 16 17 29 36 41 43 43 43 41 44 41 35 41 45 44 37 37 37 32 35 32 27 27 23 21 22 21 21 19 22 22 21
5 9 3 2 5 6 2 5 5 6 7 8 7 9 9 8 6 4 8 27 38 39 39 39 38 36 32 36 38 36 40 43 42 35 29 24 27 28 26 24 22 23 23 24 24 22 21 21 18
17 9 9 5 5 4 5 5 6 7 3 7 8 8 9 9 9 7 2 8 24 27 29 33 32 34 35 32 34 39 40 37 30 18 22 23 26 22 18 17 21 22 23 23 22 22 21 18 16

GFSSGP_925_spd_078.txt.gz
Wind_Speed
3 3 2 4 3 4 4 7 5 6 4 1 2 1 3 5 3 3 4 8 25 22 26 35 28 14 17 24 29 34 34 34 34 35 37 38 39 39 36 37 35 35 31 29 30 29 28 27 25
1 2 3 2 4 2 5 3 4 2 4 5 3 2 3 4 4 2 4 16 26 17 17 29 34 22 16 24 30 34 35 35 35 36 40 41 41 39 37 38 36 35 32 29 28 26 27 26 23
2 3 3 3 3 5 4 4 6 5 5 4 2 2 3 1 1 4 6 12 26 25 15 32 38 38 35 30 33 34 34 34 35 39 43 42 41 38 38 39 38 35 31 27 26 27 26 23 19
2 4 4 3 7 10 6 16 6 4 3 4 1 4 2 12 4 13 9 16 18 19 23 32 39 47 46 43 37 35 36 36 39 43 41 41 39 38 40 39 38 35 31 28 28 26 25 25 23
1 3 3 3 7 8 13 9 5 5 1 4 5 3 3 3 21 13 9 17 18 12 32 26 36 35 36 37 40 39 38 37 40 44 43 40 39 38 39 39 36 34 32 29 26 24 24 26 23
3 3 2 3 7 8 8 7 6 4 1 3 2 1 5 3 9 13 6 10 8 16 25 17 19 16 40 50 45 41 39 39 43 42 42 41 39 37 38 38 35 33 30 27 24 21 23 28 25
5 4 4 5 12 11 5 1 5 5 5 3 4 4 6 9 13 7 6 15 20 14 26 37 19 8 5 54 49 45 40 41 45 44 42 41 39 37 37 36 34 32 29 26 23 20 22 23 24
5 4 3 5 8 11 7 1 3 7 2 4 1 4 6 6 14 9 11 16 16 18 21 27 17 16 24 40 48 44 43 40 42 42 41 39 38 37 36 35 33 30 27 25 23 20 21 19 21
3 2 5 8 4 6 2 2 2 1 6 1 3 3 6 10 8 7 11 12 14 19 15 21 24 18 8 46 38 33 34 40 40 40 40 37 37 35 34 33 31 29 27 24 22 20 18 18 20
3 3 8 7 5 8 4 3 5 5 4 2 4 4 4 8 4 4 4 4 12 16 18 20 23 24 32 26 30 24 30 35 38 39 40 38 36 34 33 32 29 27 25 22 22 21 16 14 14
4 6 15 19 6 8 0 6 3 8 3 4 3 4 3 5 3 3 5 4 4 18 24 24 32 35 40 41 43 23 26 31 35 36 37 36 35 34 34 32 28 27 23 21 19 16 13 14 12
3 10 11 8 7 2 3 2 6 2 3 3 9 8 5 4 1 1 5 6 12 18 26 31 34 39 42 40 43 41 32 30 33 34 34 34 33 34 34 32 29 26 22 20 17 14 14 11 11
6 8 9 7 8 4 0 7 9 4 1 6 10 9 12 5 3 5 7 9 13 18 23 32 34 34 39 42 45 41 38 35 31 30 32 32 33 33 32 30 28 25 22 18 15 13 12 11 12
6 6 11 7 7 3 1 8 7 4 6 4 7 3 7 8 6 4 12 12 12 19 23 28 34 39 39 39 39 39 37 35 35 31 30 32 32 32 31 27 26 24 21 16 15 12 10 10 9
6 8 10 7 3 2 3 1 4 13 9 10 5 10 7 5 6 6 10 16 20 17 23 24 30 35 38 41 41 41 33 38 34 31 26 28 27 27 26 25 23 21 20 16 14 10 11 12 9
6 5 4 11 3 4 6 10 6 13 12 7 8 8 12 8 9 8 12 16 21 20 23 23 23 28 34 36 34 35 33 40 33 30 25 23 21 24 22 23 20 19 18 17 15 13 14 13 11
3 6 6 11 7 5 5 7 6 10 9 7 6 6 5 8 12 11 13 14 19 21 21 25 27 27 31 30 30 30 32 35 33 29 25 20 23 23 20 18 17 19 19 20 19 17 16 16 16
7 4 5 8 6 5 4 6 10 10 12 11 8 7 6 8 8 16 15 14 14 19 22 24 27 30 34 32 31 30 32 33 30 28 26 21 17 19 17 17 19 21 25 23 22 19 17 17 17
5 11 14 16 13 6 7 6 9 10 6 11 8 9 10 11 7 13 18 17 16 20 23 25 28 34 36 33 33 32 31 31 32 32 26 18 19 18 18 19 24 24 26 24 23 22 20 19 19
9 13 19 18 5 5 5 5 5 16 12 18 17 14 12 8 10 12 16 17 18 20 24 27 29 32 33 35 33 29 32 30 26 29 34 25 19 20 24 25 25 27 25 25 26 24 23 21 21
15 13 18 8 5 1 1 5 3 7 5 8 13 15 12 15 14 14 16 17 18 20 24 30 30 32 32 32 31 30 33 31 31 33 34 31 26 29 29 30 29 28 28 29 29 27 27 26 22
11 15 10 5 3 2 1 5 5 5 8 15 14 15 16 16 14 12 17 21 25 25 27 27 29 32 35 34 29 28 27 26 29 31 36 38 36 37 36 33 31 31 31 31 31 29 29 27 25
13 18 6 4 3 2 3 1 7 4 6 10 16 19 19 20 19 18 19 28 32 31 33 33 33 32 34 37 33 33 29 29 30 33 36 36 35 36 38 37 34 32 33 32 34 33 32 32 29
17 5 4 4 2 2 5 6 6 4 10 18 18 21 22 21 21 19 26 27 28 30 33 35 34 36 37 37 38 35 34 32 31 35 37 39 39 40 40 36 34 35 32 34 33 33 32 36 35
7 5 2 3 3 6 3 3 11 7 7 16 23 23 23 22 21 20 20 24 29 33 35 35 35 37 39 36 37 39 40 40 35 38 38 33 36 38 43 41 40 39 35 31 29 32 32 35 30
8 9 6 5 4 4 4 5 5 10 9 9 14 24 22 21 20 22 24 30 33 38 40 39 39 38 39 44 40 42 43 40 42 38 42 40 39 42 44 45 43 42 34 28 27 29 28 28 28
7 5 9 6 1 1 4 6 7 2 4 3 8 14 20 20 21 23 22 31 33 37 42 44 41 42 42 41 40 41 45 41 40 41 43 46 44 43 43 44 44 39 30 26 25 26 28 24 22
10 7 4 1 7 4 5 4 5 4 5 4 7 12 16 20 18 17 17 27 33 37 41 39 39 41 41 39 40 41 42 47 42 43 49 41 41 39 36 37 33 30 29 25 27 26 24 22 22
2 4 3 6 6 6 2 5 7 9 7 8 9 9 13 15 17 18 18 30 36 38 38 40 40 37 37 36 36 38 40 46 43 38 35 36 23 26 26 21 33 33 26 25 27 26 25 26 24
11 13 10 5 5 3 4 8 5 9 7 7 8 10 9 10 14 16 18 25 31 35 35 37 37 36 36 40 41 42 40 39 36 29 29 35 21 26 26 38 35 32 26 25 25 25 23 22 22

GFSSGP_925_spd_081.txt.gz
Wind_Speed
0 1 1 4 4 5 3 5 3 6 3 1 3 3 3 4 2 3 3 7 9 23 24 25 26 29 31 33 31 29 37 42 44 38 38 38 37 38 38 40 39 37 34 32 31 29 26 25 21
4 3 3 3 4 3 5 5 5 5 4 10 5 4 3 1 3 5 5 6 22 24 28 25 27 30 31 33 33 29 34 37 39 40 39 39 39 40 41 41 38 38 36 32 30 27 23 19 21
5 2 4 4 3 3 4 6 6 3 1 1 3 2 3 3 2 3 5 3 23 21 21 27 31 35 38 34 27 32 34 37 38 39 37 37 39 40 41 40 38 36 33 30 28 26 24 24 26
4 5 4 4 4 8 7 12 8 2 2 2 2 4 3 4 2 5 11 11 25 25 17 30 32 32 33 36 34 28 31 38 38 38 36 36 38 40 42 40 36 34 32 29 26 24 25 28 26
5 3 4 2 6 5 6 8 4 4 2 4 2 4 1 1 9 5 8 16 24 29 22 20 32 25 24 37 41 45 39 38 40 39 35 37 39 41 41 38 36 35 32 30 28 25 27 30 28
4 3 4 2 5 6 8 5 4 3 3 3 4 1 2 3 6 6 6 5 13 15 16 20 27 30 30 37 38 38 42 42 43 39 37 37 40 42 41 39 36 35 34 32 29 27 29 29 27
6 4 3 3 6 6 5 4 4 5 4 5 2 2 3 4 4 2 5 6 9 19 18 18 14 11 26 29 31 37 36 45 45 42 37 37 40 41 41 39 35 34 32 31 29 28 27 26 25
5 4 1 4 1 7 6 1 1 5 5 1 2 5 2 1 3 8 11 13 15 18 24 9 10 16 16 18 30 40 40 41 49 42 40 39 40 41 39 38 34 32 30 30 28 27 27 26 22
3 3 3 5 3 6 11 5 1 2 3 3 3 2 3 5 8 11 15 14 16 20 20 18 19 20 26 35 47 32 46 38 46 43 40 40 39 39 38 36 34 30 29 30 28 25 26 25 24
4 3 6 6 5 9 12 2 6 5 5 4 4 4 6 8 5 8 8 10 13 13 21 24 20 16 1 20 46 50 39 40 38 43 40 37 37 39 37 35 32 29 27 27 25 22 23 23 23
5 5 5 10 8 11 7 2 5 5 4 8 7 8 9 6 5 7 8 6 10 17 24 25 23 21 17 29 46 42 38 35 33 40 38 37 37 37 37 35 32 30 27 27 23 20 20 18 19
1 7 4 8 6 2 4 3 3 4 6 5 8 4 4 4 4 7 9 9 12 17 24 25 27 29 30 36 41 43 31 39 39 39 38 37 36 36 37 35 31 30 27 25 20 18 17 16 15
6 5 4 9 11 7 3 6 6 6 7 3 4 5 6 5 3 5 9 8 13 20 22 26 28 31 37 40 44 42 34 34 37 37 37 37 36 36 35 33 30 28 26 23 20 18 15 13 14
3 5 8 7 10 5 5 5 3 9 5 3 2 5 5 6 5 6 9 9 12 19 25 28 30 32 39 34 38 38 38 37 36 35 38 36 35 35 34 32 29 27 25 20 18 15 14 14 13
3 7 8 7 4 4 6 1 10 2 6 6 3 3 4 5 6 4 8 10 12 16 22 29 30 31 30 32 35 33 35 36 37 36 34 35 37 35 33 30 28 25 22 20 17 14 14 14 13
5 1 3 3 4 5 4 12 8 7 8 7 4 5 4 2 7 7 9 12 9 16 17 20 28 30 32 29 31 29 37 37 37 41 36 34 33 33 31 28 27 24 22 19 17 16 16 14 12
2 4 5 9 3 3 3 9 5 7 6 6 6 6 4 4 6 8 10 11 12 14 20 18 20 27 30 28 27 30 34 36 32 30 30 31 30 29 28 28 24 23 22 19 19 17 15 16 14
5 3 3 5 4 2 5 16 5 5 6 7 6 5 5 5 4 8 11 10 14 15 19 19 21 26 25 28 24 26 32 32 31 29 30 30 27 27 23 20 23 23 20 20 20 17 17 16 15
3 2 4 14 13 3 11 16 9 8 6 8 9 7 7 5 6 9 11 12 14 16 19 22 23 26 25 29 24 27 33 30 28 28 27 26 25 21 18 22 23 22 20 22 21 20 20 18 17
5 5 12 11 9 4 9 11 7 9 10 12 11 11 11 4 4 8 11 15 15 16 20 21 24 29 34 35 24 21 26 32 28 25 23 20 17 15 23 23 24 21 21 23 24 25 24 20 19
8 7 10 7 11 5 4 7 5 6 3 6 7 7 8 12 13 14 16 17 18 18 22 22 23 29 30 30 23 25 24 26 26 24 24 20 20 25 23 22 22 22 22 26 27 29 28 24 23
11 10 10 10 6 4 1 5 6 6 11 8 12 10 11 11 10 11 18 20 22 22 23 27 27 29 28 32 30 32 29 26 27 30 30 25 23 24 21 23 25 26 28 27 30 31 32 28 25
10 7 9 9 11 2 2 2 6 2 6 11 14 15 14 15 14 14 14 20 21 21 22 29 30 31 32 35 35 34 29 28 26 29 32 35 32 30 27 28 29 31 30 31 33 34 34 31 28
8 2 1 2 2 3 4 5 6 5 8 7 11 14 14 15 15 12 15 16 19 23 24 26 29 32 35 37 37 37 34 31 30 31 34 37 35 35 35 34 35 37 35 37 37 36 34 35 33
5 3 2 3 1 7 5 4 10 7 7 9 15 16 15 13 13 13 13 15 20 25 28 30 32 32 36 39 38 38 38 36 33 34 36 36 38 40 40 36 37 38 42 41 39 37 34 33 34
7 9 5 6 4 5 0 5 6 7 8 9 14 15 11 12 13 15 16 20 23 26 29 32 32 33 35 38 38 40 36 34 36 33 35 37 35 39 41 42 43 44 44 41 39 36 29 30 34
5 5 11 5 1 3 4 6 9 6 4 6 9 8 13 14 15 18 16 23 24 27 33 35 33 34 33 34 35 36 39 36 33 34 34 39 39 39 39 39 40 41 41 39 36 33 30 29 31
11 6 2 2 7 5 4 4 5 7 6 5 6 12 13 13 14 13 13 22 27 30 31 33 34 34 33 30 33 34 36 39 39 36 38 41 35 32 31 32 35 36 35 29 28 29 27 27 28
4 6 3 5 5 6 2 6 8 10 9 7 9 11 14 15 16 16 15 24 28 26 28 31 34 34 30 31 33 34 37 38 39 39 37 40 37 35 31 31 31 30 26 31 31 33 29 26 26
10 12 10 5 4 3 4 9 4 8 7 8 10 10 12 15 17 17 16 22 24 30 29 35 36 36 35 36 46 40 34 34 35 38 41 40 36 31 30 27 24 25 30 32 34 29 26 26 26

GFSSGP_925_spd_084.txt.gz
Wind_Speed
4 3 2 4 4 5 3 5 2 4 1 2 3 1 4 1 2 3 2 3 6 17 25 28 27 27 32 33 36 41 42 45 44 44 40 34 34 34 34 35 36 36 34 32 32 29 29 27 26
6 4 4 2 4 3 5 4 5 6 2 4 3 2 3 5 3 5 3 5 13 18 24 29 33 31 31 38 38 40 43 43 45 44 39 35 33 34 34 34 35 35 33 29 29 25 23 25 26
5 3 3 4 3 3 4 5 7 4 6 3 1 1 2 4 2 3 1 6 10 21 26 24 28 34 36 38 37 39 38 41 41 42 39 35 34 34 33 35 35 35 33 28 25 23 25 25 25
3 5 4 4 3 5 6 7 7 5 4 3 0 5 3 2 2 4 12 10 10 19 19 25 29 31 34 39 41 42 41 41 40 38 37 38 36 33 32 35 35 33 30 28 26 27 28 26 26
5 3 4 1 4 4 4 7 4 5 3 4 4 4 4 1 7 7 8 9 12 21 14 12 26 31 33 36 38 43 43 41 43 40 39 39 38 33 33 35 34 32 30 28 28 30 29 27 26
4 3 3 2 5 5 5 7 3 4 1 1 2 1 4 3 7 7 8 8 12 20 17 18 17 29 30 32 39 41 43 42 42 45 43 43 38 35 33 35 34 32 29 27 29 31 29 28 28
6 3 4 2 4 6 4 2 3 4 3 5 1 3 1 3 4 5 6 5 8 16 14 13 15 24 19 23 29 37 44 45 40 43 47 44 41 35 33 34 34 31 29 28 30 32 30 28 27
5 4 2 3 2 7 5 2 1 6 7 2 6 6 5 2 2 3 2 2 7 15 17 14 13 16 18 26 24 31 35 41 42 44 46 46 43 37 35 34 32 30 30 30 32 33 29 26 25
4 3 2 4 4 6 7 2 2 0 1 4 6 4 4 3 2 2 2 4 12 17 22 13 17 16 19 24 27 27 31 34 39 41 46 46 42 37 36 36 33 31 30 30 31 31 28 26 24
4 3 8 6 5 6 12 5 5 2 2 6 5 2 5 6 6 5 4 5 9 17 20 15 16 14 17 21 32 40 38 36 36 37 42 47 41 38 36 35 34 31 29 29 29 29 29 28 23
5 6 4 6 10 6 5 4 8 5 5 10 5 4 5 4 3 4 6 7 9 14 19 18 17 13 6 16 33 32 45 43 36 35 40 45 41 38 34 34 35 32 28 29 29 27 26 24 21
2 8 5 7 4 3 3 2 3 7 6 5 4 7 5 5 4 5 5 6 12 16 17 21 16 13 9 14 45 40 45 41 36 36 41 44 43 37 35 34 33 32 27 27 24 25 23 21 19
5 6 5 9 9 8 3 9 5 9 3 6 9 8 6 4 2 2 5 5 8 12 17 20 20 17 21 27 33 44 40 39 35 37 41 42 41 39 35 33 32 31 27 26 25 23 21 20 19
5 4 9 9 8 6 5 1 2 5 8 7 8 6 6 5 5 5 5 5 8 10 16 19 21 19 27 33 35 40 41 39 37 39 39 40 41 38 35 32 30 28 25 24 24 22 19 18 17
4 5 7 6 3 5 6 5 9 4 6 7 7 7 5 4 5 5 8 7 7 10 15 19 22 24 26 32 40 41 37 38 31 31 35 36 37 37 34 31 29 26 23 22 21 20 18 17 15
2 4 4 4 3 2 6 8 7 4 8 8 6 8 6 3 4 4 8 7 7 11 10 20 22 25 25 21 26 28 31 38 37 36 34 37 37 35 33 31 26 24 22 21 20 19 17 15 13
4 3 4 8 4 2 2 9 1 4 3 6 5 7 7 4 5 4 8 8 7 10 12 18 24 24 27 25 27 27 23 29 36 36 35 30 33 33 33 30 26 24 21 19 17 17 15 16 14
6 4 4 7 3 4 5 12 11 7 7 8 5 6 7 7 7 6 8 10 9 11 14 16 22 28 28 23 24 27 21 25 29 29 29 32 26 29 30 28 27 25 21 19 17 15 15 15 14
4 3 3 8 5 4 9 7 15 6 5 8 7 7 7 7 7 8 9 13 13 13 16 18 21 25 31 27 26 28 24 26 33 32 32 31 34 34 31 27 25 23 21 20 19 17 17 16 16
4 4 8 10 6 6 11 14 12 4 5 8 8 8 8 7 9 9 11 13 16 15 16 18 23 27 27 28 29 22 26 27 30 30 30 30 31 30 28 26 26 23 21 21 22 21 20 17 18
6 10 5 8 7 5 4 7 6 2 3 5 7 6 6 11 13 12 11 13 14 17 17 18 21 28 26 31 25 15 22 25 24 25 30 26 27 27 26 25 23 20 22 24 24 25 25 20 20
9 9 9 6 3 4 4 6 5 6 7 6 8 9 9 9 8 8 13 14 13 14 19 19 20 25 29 35 30 23 24 22 22 31 33 28 25 25 24 24 19 17 24 26 26 27 28 27 23
9 7 8 5 5 2 3 2 7 2 7 9 10 14 13 11 12 12 12 16 18 20 22 24 22 24 27 35 30 29 22 26 30 29 28 29 26 24 22 19 18 25 27 28 29 29 31 33 30
3 3 5 2 2 3 7 6 6 3 6 5 4 9 13 14 12 10 15 16 16 18 20 24 27 28 29 34 35 34 33 29 30 30 30 30 29 29 26 25 29 29 28 30 31 32 35 35 34
6 5 2 2 1 5 5 3 10 5 7 7 9 9 12 14 15 14 14 16 17 22 23 24 31 32 34 35 37 38 35 36 35 37 35 33 34 33 35 32 31 31 30 30 34 36 37 36 36
9 10 5 6 4 4 4 6 6 8 7 9 8 6 7 12 14 16 17 22 25 27 27 25 29 29 32 35 36 36 37 37 37 34 34 36 39 41 38 35 33 33 33 34 34 35 37 38 36
5 8 8 4 1 2 4 6 8 7 8 5 6 7 9 13 15 17 16 23 27 30 33 32 30 31 31 35 35 36 39 38 36 37 37 38 39 36 34 35 35 35 34 35 37 36 36 33 33
9 6 3 1 5 5 4 4 5 6 8 6 4 9 8 7 10 12 14 21 25 28 29 34 35 36 35 37 37 37 38 40 39 36 38 40 40 38 37 36 35 34 34 36 33 33 29 25 26
3 9 3 5 5 6 2 5 8 10 9 9 8 9 8 8 11 13 14 21 23 23 30 33 36 33 34 35 35 35 37 39 40 40 40 41 42 43 41 39 39 36 36 37 32 30 26 24 31
4 7 12 10 4 3 4 10 4 9 7 6 9 9 6 6 8 8 7 13 20 25 28 32 31 34 38 38 39 44 45 41 41 43 46 43 44 41 38 39 39 36 36 38 32 34 28 27 32

GFSSGP_925_spd_087.txt.gz
Wind_Speed
7 6 4 2 1 1 1 3 2 4 3 3 2 3 3 4 6 4 2 4 4 14 16 21 23 21 27 35 41 42 42 45 43 41 40 41 41 38 35 33 33 33 28 26 26 25 25 25 26
8 6 3 2 2 1 0 2 7 8 4 1 3 2 3 6 3 4 1 3 10 14 19 19 27 38 32 37 43 44 45 47 45 42 42 41 41 38 34 34 34 33 30 28 26 25 25 25 24
7 3 1 3 2 1 2 4 8 4 6 5 2 2 2 4 2 2 2 4 4 16 21 21 28 32 32 37 41 44 44 46 45 44 41 43 41 39 38 35 34 33 31 28 25 25 24 24 25
3 2 3 1 3 2 3 6 6 7 1 5 1 5 3 5 2 3 9 11 8 16 22 27 28 30 36 35 41 44 45 45 43 42 42 40 41 40 39 36 34 32 28 25 26 25 26 24 25
4 1 2 1 3 3 5 5 3 4 4 5 6 3 4 2 5 6 9 11 11 15 23 26 22 19 27 41 42 44 47 48 45 41 39 42 43 42 38 35 33 31 27 26 26 27 26 26 26
2 1 2 3 4 4 6 7 3 4 4 1 4 3 5 3 2 6 8 11 9 14 18 14 15 20 25 29 41 45 44 46 45 41 42 44 42 41 38 37 33 30 27 29 30 28 26 27 27
3 3 3 3 3 5 4 3 3 4 5 6 3 4 2 3 1 3 5 9 10 9 16 15 11 28 26 23 28 37 44 44 43 43 41 42 45 43 39 36 32 30 29 29 30 28 28 27 27
4 2 4 4 3 5 4 2 2 5 5 2 5 6 4 1 1 3 7 9 6 5 10 11 12 28 34 23 25 28 33 39 42 45 43 44 44 43 42 34 30 28 27 30 30 29 28 27 27
3 2 4 5 6 4 2 5 0 1 4 4 6 4 2 5 3 2 4 6 7 5 9 9 11 18 26 29 26 24 31 33 38 43 47 46 39 37 39 33 30 28 29 31 30 29 28 26 24
4 3 8 6 6 5 9 5 4 3 5 6 7 7 6 6 5 3 3 5 5 8 12 10 7 10 17 29 31 25 36 35 38 38 43 36 36 35 37 35 31 30 30 32 31 28 28 25 20
5 6 5 6 10 7 5 7 3 4 9 10 8 4 10 8 6 4 4 6 9 12 13 15 10 10 15 23 33 29 32 33 36 38 31 37 34 39 39 37 30 30 31 28 28 28 21 22 18
4 9 7 4 5 4 5 3 5 10 11 2 7 3 9 8 5 4 5 8 8 11 15 18 14 14 14 14 24 33 42 35 39 37 32 37 36 38 37 36 31 32 26 29 26 24 24 22 20
6 6 6 10 6 7 5 12 11 15 7 7 7 7 8 6 5 5 4 7 8 10 15 17 16 13 12 13 25 31 42 43 39 41 37 34 36 40 40 38 35 32 32 30 29 28 25 22 20
2 6 10 7 9 6 8 7 2 3 9 9 9 8 5 5 4 3 3 5 7 6 8 15 17 10 11 5 30 36 40 39 42 37 41 36 37 42 39 37 33 32 31 30 28 26 23 21 20
3 7 8 8 5 4 7 5 7 1 10 9 6 4 4 5 4 5 4 4 5 4 8 15 14 13 10 7 20 36 39 38 43 36 43 44 43 40 37 35 31 29 28 27 24 21 21 21 19
2 1 6 1 3 3 2 7 3 2 10 11 8 5 4 6 5 3 3 4 3 6 10 15 16 17 14 16 22 37 42 35 33 36 41 40 39 38 37 34 30 27 27 24 22 21 20 18 20
1 7 6 7 1 3 3 8 5 2 8 10 11 9 7 6 6 3 4 5 4 7 12 15 17 20 19 20 22 27 38 29 30 30 38 38 37 37 37 34 29 26 25 23 21 21 18 18 17
8 5 5 8 3 1 6 14 15 6 10 9 10 9 9 8 6 7 6 7 7 11 16 21 21 23 21 23 19 23 24 26 25 28 27 37 37 35 32 31 30 26 25 23 20 20 18 17 16
6 5 6 5 5 4 9 10 16 9 9 8 10 11 10 10 7 9 8 8 8 10 15 20 24 25 25 28 24 25 26 26 27 30 30 30 33 33 31 30 29 26 25 23 21 20 18 17 17
7 8 12 12 2 7 8 16 16 5 7 6 12 12 12 10 10 10 11 10 11 13 13 17 23 30 25 23 22 24 21 22 29 35 36 26 23 25 29 27 25 28 25 22 23 23 16 11 19
16 17 13 13 9 3 6 6 5 2 4 6 8 12 12 15 14 12 13 14 14 13 16 16 20 27 29 28 25 25 19 18 27 27 30 29 27 26 25 26 29 29 24 26 27 25 22 14 18
14 11 13 11 5 6 5 8 8 13 10 8 9 13 13 15 13 13 15 17 16 15 15 16 18 24 29 32 30 33 26 24 26 33 34 31 37 37 34 33 31 28 28 28 28 26 28 22 16
12 7 13 11 8 5 6 6 2 2 12 12 10 12 14 16 17 16 16 20 19 18 18 17 18 24 25 31 31 30 24 23 24 31 36 38 35 35 33 32 31 30 31 32 28 27 29 29 21
3 4 2 2 2 7 10 7 6 4 5 4 2 8 14 16 16 16 18 19 20 19 19 19 18 21 26 31 25 29 27 23 28 31 34 40 33 29 31 32 32 30 29 28 27 27 28 30 32
9 6 4 4 4 8 6 7 14 7 9 9 11 6 11 15 16 16 17 18 22 24 23 21 21 22 23 27 27 29 27 24 22 27 28 26 32 30 31 30 30 29 29 29 27 28 32 34 34
14 13 4 6 6 7 4 7 6 8 8 8 8 6 9 15 16 17 19 21 23 25 25 25 27 24 24 26 29 28 31 26 22 25 27 28 28 30 35 33 32 31 30 30 29 32 35 31 33
6 8 14 2 1 1 4 5 7 8 9 4 5 6 11 13 17 19 17 23 24 26 27 27 26 27 28 28 28 30 33 29 28 29 28 28 31 31 34 34 32 32 33 32 29 29 30 28 31
7 8 5 6 7 11 5 5 7 3 5 6 6 6 8 11 13 15 17 23 25 25 25 26 27 29 31 30 30 30 31 35 33 31 35 36 37 37 34 33 34 32 31 31 27 25 26 29 31
5 10 2 3 4 8 5 6 8 13 11 6 7 4 7 11 14 15 15 20 22 22 25 28 29 29 30 31 31 31 32 33 35 36 36 36 35 36 35 34 31 35 36 32 29 37 39 35 36
5 3 11 10 8 3 5 12 2 11 6 5 7 5 4 8 12 14 15 19 22 25 27 29 28 30 29 29 29 32 32 33 35 38 37 33 34 34 36 35 35 39 38 40 40 38 33 36 37

GFSSGP_925_spd_090.txt.gz
Wind_Speed
5 4 4 6 6 6 2 4 3 6 4 1 4 7 9 12 7 8 2 3 4 5 11 15 19 20 22 27 35 40 42 43 43 41 39 37 33 35 38 33 32 29 27 25 24 23 24 24 25
7 5 5 3 7 7 5 0 6 4 4 4 7 9 10 12 3 4 4 4 4 5 10 17 21 23 25 26 34 40 42 44 43 43 40 38 36 36 38 37 33 30 27 26 25 24 23 24 26
6 6 5 4 4 7 3 2 4 3 5 7 4 5 5 5 1 1 1 3 4 6 9 15 22 26 29 29 37 37 40 41 41 41 41 40 39 39 38 37 34 31 29 26 25 24 23 24 27
6 6 4 8 8 3 4 2 6 6 2 5 7 7 4 5 2 4 1 5 7 8 11 17 24 27 29 30 37 39 40 42 42 41 41 41 38 38 39 36 36 34 30 26 24 24 23 24 24
6 4 7 10 9 2 4 4 6 7 4 3 6 8 6 2 5 4 5 5 7 11 11 18 23 20 16 18 30 42 41 42 44 42 41 40 40 39 39 37 37 34 30 26 25 24 24 25 26
5 4 8 9 9 6 5 4 7 6 6 3 6 11 12 3 4 3 5 6 6 9 10 14 16 19 34 36 43 41 44 44 45 44 42 41 40 40 39 38 35 32 29 28 26 25 25 25 25
9 7 12 10 9 9 5 1 7 9 11 10 6 10 6 5 4 1 3 5 5 5 8 9 8 17 26 31 35 47 45 47 46 45 42 41 40 42 40 38 37 32 30 29 27 26 25 26 26
5 6 11 10 9 14 4 4 6 9 11 2 3 7 11 2 4 1 2 4 3 1 2 6 9 19 22 23 26 25 41 45 47 45 44 42 41 41 40 39 35 33 32 30 29 27 25 25 26
3 8 11 11 12 10 3 6 2 6 11 7 7 10 5 5 4 3 2 2 2 4 4 4 6 16 21 20 19 19 28 38 43 44 43 43 36 38 36 30 35 35 34 30 29 27 27 25 24
10 10 14 6 10 7 9 9 9 8 14 13 12 11 9 8 6 6 4 4 2 1 7 7 5 9 16 19 18 23 14 32 37 37 40 36 37 35 29 31 33 35 33 30 28 27 27 22 19
11 16 13 10 11 10 15 13 5 12 18 16 17 10 11 10 9 7 4 6 3 1 5 9 8 7 13 13 16 20 24 26 34 37 37 34 33 31 31 30 29 31 31 26 25 25 19 17 17
11 15 17 14 10 12 15 14 15 15 19 18 12 5 7 9 7 6 5 6 6 5 6 9 11 9 11 17 20 26 27 34 34 34 34 38 31 32 33 31 28 30 28 26 23 21 15 16 16
16 15 14 13 15 16 16 19 20 22 20 11 8 7 6 6 4 4 5 5 7 6 5 10 12 14 13 15 18 26 25 29 47 44 36 31 30 31 32 30 28 29 27 26 23 18 16 15 16
3 10 13 15 15 16 18 21 9 20 5 6 8 9 8 6 5 4 4 6 6 3 4 11 13 14 13 15 19 26 29 27 46 46 41 33 28 30 29 29 27 26 26 23 21 19 18 15 15
10 15 15 17 17 19 15 19 17 5 3 7 9 9 8 6 5 6 5 4 4 3 5 10 13 13 11 10 19 24 36 37 42 41 42 34 30 28 28 27 24 24 23 21 20 18 16 16 14
10 12 12 4 5 6 8 14 8 3 6 9 10 10 8 6 6 6 7 5 3 3 8 11 11 10 8 4 11 29 33 44 40 43 38 36 33 26 25 26 24 23 22 20 19 18 16 15 14
14 14 12 10 7 7 12 15 6 7 6 9 10 11 9 7 7 5 4 6 5 6 11 11 14 9 9 7 21 32 38 36 41 40 38 38 38 32 29 25 26 28 23 17 18 17 15 13 13
16 15 12 14 5 8 13 17 15 6 8 11 10 10 10 9 7 8 6 6 6 8 11 14 14 16 15 17 28 31 32 31 33 37 35 38 35 34 32 25 27 26 23 14 15 15 13 11 10
12 13 14 10 0 5 14 19 16 15 6 9 10 11 11 10 7 9 8 8 8 10 11 13 14 15 21 21 23 25 26 29 28 33 30 35 38 36 29 24 23 21 18 16 13 12 13 9 9
18 17 18 13 7 7 13 17 17 15 11 6 8 11 12 11 11 10 10 10 10 10 12 12 14 17 17 22 22 18 26 27 26 27 29 24 32 28 27 22 22 18 20 17 16 14 12 11 14
18 20 17 15 7 14 15 19 20 13 8 8 9 10 12 14 14 13 12 13 13 14 13 13 15 17 18 19 26 24 19 22 22 28 27 26 31 24 23 25 23 22 19 18 19 17 16 14 13
20 18 16 18 12 10 3 9 12 8 15 14 13 12 13 15 14 14 14 16 17 16 15 16 16 18 19 26 25 27 25 26 25 34 29 29 24 25 23 23 22 22 24 20 21 20 19 16 15
16 13 11 15 16 14 15 9 9 2 10 12 6 14 14 16 16 17 15 18 18 18 18 17 17 18 20 23 24 28 21 22 22 26 29 30 29 26 24 20 22 20 20 19 20 19 19 18 18
2 11 5 7 9 12 16 13 8 8 7 6 2 4 13 17 17 15 17 17 19 18 19 19 19 19 21 26 25 29 27 20 22 23 30 29 33 32 32 23 19 19 18 21 22 19 18 20 20
16 9 5 7 7 8 7 11 15 5 5 10 11 6 11 16 18 17 17 17 20 22 21 20 21 21 21 24 27 29 29 29 24 29 29 27 27 28 31 26 22 20 23 22 19 17 20 22 23
18 17 7 9 8 7 12 8 10 7 7 6 5 6 8 15 17 19 19 19 21 23 23 22 23 23 24 25 26 27 27 30 27 30 30 32 32 32 27 28 28 26 24 22 18 19 21 22 22
11 16 18 13 11 7 9 9 10 12 12 10 8 5 10 15 18 20 20 23 23 24 25 26 26 25 26 28 28 28 29 29 27 26 29 29 31 31 31 29 27 24 23 22 21 23 25 23 23
18 4 8 10 7 11 9 12 7 5 10 2 8 7 9 14 16 17 18 23 26 26 26 26 27 28 27 27 29 29 30 32 28 28 29 29 29 29 29 28 26 26 25 24 26 26 24 21 21
9 12 10 7 12 10 10 8 6 14 14 11 4 2 6 12 13 14 16 21 25 25 27 27 27 27 28 28 28 28 30 32 32 31 31 30 29 30 30 30 29 29 30 31 30 29 24 21 23
7 9 16 12 13 10 12 13 2 4 10 5 3 1 2 9 11 12 14 18 22 25 26 28 28 28 28 28 28 29 28 28 30 32 30 29 31 30 32 31 31 34 34 33 31 32 32 33 36

GFSSGP_925_spd_093.txt.gz
Wind_Speed
7 7 7 9 7 8 15 2 4 8 6 1 5 6 12 12 10 7 5 5 3 3 2 7 16 18 18 25 23 24 23 27 29 33 34 32 30 29 29 34 33 29 27 24 22 22 21 21 22
8 7 9 7 8 12 4 6 6 4 3 1 7 8 11 11 5 4 2 4 3 2 2 9 15 18 17 21 28 26 24 31 31 34 34 33 32 32 32 33 35 30 29 24 23 23 22 23 24
7 9 9 7 12 12 9 8 6 3 2 7 5 4 9 8 7 5 3 2 3 3 3 6 14 20 19 24 28 25 30 33 34 34 34 34 33 34 34 34 33 31 30 25 23 22 22 24 25
9 8 6 9 16 11 5 4 3 9 7 5 8 9 6 4 4 1 2 2 5 6 6 9 12 16 22 27 25 29 35 33 38 37 36 35 36 34 35 33 31 34 32 28 23 22 23 25 26
12 8 11 16 15 11 2 5 4 9 8 4 9 11 9 8 4 3 4 4 4 6 7 9 16 21 24 26 17 18 32 39 42 40 38 37 37 38 34 32 32 32 31 28 24 22 24 24 24
8 6 12 13 12 3 4 6 8 10 10 10 7 13 13 8 3 3 3 4 3 5 7 10 13 20 24 28 19 37 44 40 39 43 41 41 39 38 35 33 33 32 31 29 26 24 23 24 26
15 12 14 17 14 13 7 4 9 11 11 14 4 10 11 9 5 3 3 3 3 4 5 10 9 10 16 25 26 22 23 25 28 44 44 43 40 37 35 33 33 30 30 28 27 26 26 26 26
13 12 19 17 11 14 8 6 11 10 13 6 8 10 11 9 4 4 3 3 2 3 4 8 8 7 12 19 21 21 30 47 48 43 45 44 42 39 38 34 32 29 29 29 28 27 25 26 26
11 13 14 15 12 9 5 7 13 5 14 14 12 11 11 1 4 6 6 5 3 1 4 5 7 9 11 13 16 24 27 39 44 46 48 44 37 37 36 30 31 30 30 31 29 27 25 24 26
16 13 19 11 11 12 11 10 12 13 14 14 14 7 8 7 8 10 7 8 4 4 5 5 4 6 9 13 11 14 23 28 32 44 48 39 37 34 30 31 30 31 30 30 28 26 25 20 19
18 19 21 13 9 11 13 16 15 15 15 15 13 12 13 7 9 10 7 7 6 1 5 7 6 4 5 9 10 12 14 24 42 43 44 35 36 34 32 33 30 27 28 24 25 26 19 17 17
21 22 19 19 13 14 15 18 19 17 18 17 16 5 7 8 9 9 8 6 6 5 6 8 6 7 7 7 8 13 16 20 33 42 38 39 31 30 29 30 29 27 24 25 24 20 17 15 15
21 19 21 18 16 18 17 20 20 21 20 18 8 6 8 9 8 5 8 5 4 6 6 5 6 7 6 7 11 14 20 23 25 31 32 35 31 27 29 30 29 28 25 24 23 19 17 15 14
17 17 17 21 19 18 18 20 20 22 19 8 6 9 9 8 8 7 8 6 3 4 5 5 6 7 10 8 8 13 19 32 33 27 29 29 29 28 26 28 29 28 26 24 22 19 18 15 14
19 20 21 22 21 22 18 23 25 21 9 10 9 9 8 8 6 7 9 6 3 3 4 6 7 9 9 8 11 12 16 24 34 39 37 31 28 29 21 26 27 27 26 23 20 19 17 15 14
15 18 20 19 18 16 15 19 19 10 10 12 10 10 8 9 7 7 8 7 3 4 5 6 7 10 8 9 10 14 18 26 33 43 43 35 35 27 27 23 23 24 25 23 20 19 17 15 14
16 18 20 21 13 11 14 15 8 12 9 10 10 11 9 9 9 8 10 4 4 4 8 7 8 6 3 5 15 17 24 29 34 43 41 38 35 27 22 24 22 22 23 20 19 17 17 16 15
19 20 21 19 15 10 17 20 18 18 13 11 11 9 10 9 10 12 8 7 5 7 8 9 7 6 7 12 18 17 25 22 41 41 41 39 32 29 23 21 21 23 21 20 17 17 14 14 13
21 23 18 15 10 6 15 18 18 17 19 15 12 11 10 10 9 12 11 10 9 9 10 11 10 9 15 15 21 21 22 32 35 37 40 38 32 29 23 23 23 22 22 24 19 16 14 10 10
23 22 22 20 18 8 15 21 19 19 17 17 13 10 10 11 12 12 14 12 12 12 12 12 12 13 10 12 15 22 29 27 31 33 32 30 30 30 28 27 23 20 21 19 18 17 14 10 14
22 22 19 22 18 9 15 22 22 22 21 20 10 13 11 13 15 15 14 16 15 15 16 13 13 14 13 13 18 27 27 28 29 29 29 29 27 26 25 22 20 19 20 19 20 19 16 14 16
22 19 19 21 17 14 17 15 15 16 11 11 16 16 14 13 14 15 15 16 18 17 16 16 14 15 16 18 19 25 29 29 28 32 33 31 31 28 25 20 22 23 20 20 20 15 20 17 13
20 14 15 20 15 17 21 12 14 21 14 9 13 11 14 14 15 16 16 18 20 18 18 19 18 16 17 19 20 23 24 22 21 25 28 27 28 32 28 27 22 23 19 18 16 20 19 16 14
8 13 14 11 15 15 17 16 12 15 14 10 4 5 13 14 16 16 17 19 20 20 18 19 21 21 20 20 21 23 26 25 23 22 23 24 23 30 33 29 23 19 19 16 20 19 18 17 18
15 10 6 4 10 13 14 14 17 9 3 4 7 5 11 13 16 16 17 16 22 23 22 20 22 22 22 20 22 24 24 25 30 29 28 26 25 28 32 31 24 22 20 19 20 20 19 20 23
19 18 7 11 9 11 18 9 14 15 8 7 5 5 11 14 16 17 18 16 22 26 27 25 24 24 24 25 23 26 27 21 24 29 31 32 29 30 30 34 26 24 21 21 22 21 19 22 22
15 16 18 18 15 8 5 9 10 11 8 6 8 9 9 13 17 19 19 20 23 25 28 28 27 25 27 26 27 26 26 27 26 27 29 34 37 31 32 30 29 28 25 25 22 20 21 23 23
25 10 12 11 15 12 13 15 10 2 10 9 4 10 10 11 16 18 18 18 23 24 24 25 25 27 27 27 28 27 27 28 29 28 32 29 32 32 29 31 30 25 26 26 24 25 25 26 26
13 17 13 12 13 10 9 5 2 5 8 11 9 4 7 9 16 18 17 21 23 23 24 25 25 25 26 28 27 27 27 27 27 25 26 31 29 31 32 30 30 28 28 27 29 28 28 28 28
11 14 19 11 14 12 13 11 13 6 5 10 14 4 5 4 12 16 17 18 22 24 26 26 26 27 27 27 28 30 30 30 31 29 26 25 26 26 28 28 28 29 30 31 32 31 30 31 31

GFSSGP_925_spd_099.txt.gz
Wind_Speed
9 8 7 3 3 3 5 8 4 4 4 4 8 7 3 4 5 3 11 9 10 11 11 11 11 14 16 18 20 22 21 19 21 20 21 22 23 24 24 24 24 27 27 26 24 23 25 27 29
8 5 4 2 3 2 7 5 6 9 7 8 7 3 0 4 6 9 11 13 11 11 7 12 10 13 16 19 20 20 21 21 23 22 24 26 26 25 25 26 28 27 26 26 26 25 26 28 29
8 8 2 3 3 6 5 7 6 4 7 5 3 3 5 2 12 13 16 17 16 11 8 9 10 9 16 20 21 22 22 23 26 25 25 27 27 27 27 29 28 26 26 25 25 25 29 29 26
2 3 4 1 12 18 14 6 8 7 6 8 7 2 1 6 7 18 21 16 14 10 8 9 9 10 16 21 23 24 25 24 26 29 28 28 26 25 29 30 28 27 25 24 25 27 28 28 36
5 1 3 4 12 14 20 6 8 6 3 3 5 5 4 5 29 24 18 12 12 8 7 10 10 13 18 21 23 23 22 22 22 21 20 25 25 26 31 30 27 27 25 25 26 30 29 35 34
3 2 0 5 11 11 11 5 8 7 4 5 3 3 4 26 25 21 16 11 9 9 5 7 11 13 19 22 25 26 28 24 25 16 16 19 21 28 31 30 27 27 26 25 30 31 35 34 31
5 2 6 8 12 18 13 6 7 7 3 5 1 1 4 7 25 19 16 13 8 7 9 7 9 11 16 21 22 27 31 29 29 36 29 21 19 20 31 29 30 28 26 25 31 33 36 33 28
4 3 8 7 11 16 11 1 9 8 6 4 4 4 6 7 23 21 18 12 8 9 8 11 11 9 11 20 23 29 29 27 31 29 23 30 27 23 27 32 31 28 26 28 31 33 35 30 24
2 3 12 11 14 17 9 5 4 5 4 3 7 8 9 31 25 23 19 18 16 12 9 9 9 9 11 12 20 25 28 28 26 30 30 26 42 37 34 34 33 29 26 29 32 32 33 29 23
8 4 14 12 17 12 13 7 6 1 4 3 3 5 25 28 26 19 15 17 19 16 14 9 9 11 12 12 15 21 19 21 22 28 24 29 27 39 38 34 32 30 29 29 29 32 32 27 25
7 14 14 16 17 14 9 10 6 7 6 6 4 3 8 12 16 14 16 19 26 22 16 11 10 10 14 12 13 16 18 21 24 29 26 28 27 39 38 35 33 33 30 29 30 32 32 28 25
13 16 15 17 18 14 12 7 8 5 8 6 8 3 6 8 9 10 13 16 22 26 17 12 10 9 10 11 11 13 15 17 23 26 23 43 36 42 38 37 36 34 33 34 33 33 32 29 21
15 15 16 18 14 11 14 9 9 12 9 8 9 8 8 7 8 14 18 18 18 19 18 15 13 10 8 9 14 15 15 15 23 27 28 30 43 40 38 39 37 37 35 35 34 31 34 26 17
12 14 16 8 9 7 13 9 4 15 10 11 10 11 9 10 10 12 19 16 15 20 18 15 11 7 8 11 10 13 15 10 23 26 26 34 39 42 38 41 37 38 39 39 31 30 31 21 16
9 12 13 14 8 9 10 14 16 15 15 16 11 9 9 9 12 14 20 16 19 20 17 11 10 9 10 10 13 13 14 10 18 25 34 28 40 42 40 43 39 39 40 36 26 29 23 20 19
7 7 7 5 7 11 10 21 23 16 16 16 18 9 8 8 11 24 23 19 22 18 10 8 10 13 12 11 11 13 12 14 14 32 43 29 44 42 43 41 37 39 40 34 29 30 27 22 21
4 10 15 14 11 11 9 18 19 17 9 7 8 9 9 9 12 23 27 29 24 18 14 12 11 12 13 10 10 11 14 17 19 34 39 44 42 42 41 41 37 38 37 31 36 32 29 26 23
7 11 13 17 13 13 16 20 18 10 7 10 10 10 10 11 16 23 27 29 24 19 13 12 12 12 10 11 12 11 13 17 21 30 39 41 39 41 39 44 36 39 36 31 36 32 28 27 25
11 13 17 13 12 11 11 14 13 9 4 7 9 9 10 14 16 25 28 31 25 19 17 15 15 13 12 11 13 17 20 21 27 28 40 41 33 39 41 44 37 41 37 34 34 32 28 26 28
19 20 20 19 14 15 15 17 16 11 6 7 8 9 10 16 17 17 25 26 25 22 18 17 15 13 11 15 13 14 23 26 31 33 37 40 35 31 36 37 34 36 37 37 32 31 28 20 27
18 17 12 17 14 13 13 19 13 11 6 10 15 9 8 22 20 18 17 23 28 23 23 20 18 14 13 13 14 16 24 23 24 31 31 39 33 32 36 37 37 34 34 35 32 32 28 24 25
17 12 16 17 9 8 0 17 16 16 19 15 18 18 9 17 19 16 16 19 25 24 23 22 21 19 15 14 17 22 20 21 22 31 35 35 35 32 35 35 38 38 31 31 30 28 29 29 26
15 11 13 13 10 7 4 11 5 12 21 19 9 12 13 22 23 21 19 24 27 27 24 23 22 23 19 16 17 21 17 18 26 27 36 38 35 33 32 36 35 34 33 30 29 29 28 24 23
6 4 8 9 2 9 10 12 4 10 16 15 16 13 14 23 19 18 20 27 26 28 26 23 23 24 24 22 19 22 24 25 25 26 29 31 31 33 27 25 27 31 30 28 29 27 23 24 21
9 7 1 2 2 6 8 11 12 15 19 23 18 9 11 21 19 19 19 16 25 28 26 25 24 21 27 24 26 24 30 33 31 31 27 28 28 28 30 30 27 28 31 29 25 25 23 26 26
6 7 6 8 5 3 9 7 6 10 17 20 13 7 15 19 18 19 20 18 26 28 27 26 27 23 27 27 26 25 31 30 28 32 28 30 34 37 36 33 34 38 35 33 28 24 26 27 29
6 9 9 10 4 3 4 6 10 15 21 11 5 4 13 16 17 18 18 20 27 28 28 28 28 26 27 25 29 26 30 28 28 32 33 32 29 28 28 35 37 35 32 29 28 28 29 31 28
11 4 8 6 13 7 5 5 3 16 13 5 15 6 11 15 17 17 18 17 28 31 30 28 29 27 27 27 28 28 30 32 29 30 31 30 30 29 30 37 37 39 32 29 28 28 27 30 32
5 11 2 3 9 5 2 4 6 4 7 10 14 9 9 6 17 18 17 22 29 30 31 31 30 28 30 29 26 27 30 32 31 32 33 33 33 34 33 37 37 38 37 36 33 31 30 36 33
8 7 9 8 5 3 7 7 7 9 7 10 10 18 14 9 7 14 18 17 24 28 30 31 28 29 30 34 27 28 29 34 35 35 34 34 34 38 39 40 39 40 42 43 39 33 33 33 33

GFSSGP_925_spd_102.txt.gz
Wind_Speed
7 6 3 3 4 4 3 6 4 7 1 3 5 7 6 4 3 4 15 16 13 15 16 15 13 13 16 20 22 23 24 23 22 22 24 28 30 31 30 30 30 30 28 26 27 27 28 29 31
6 1 2 2 4 2 5 5 6 7 7 7 6 5 4 2 3 6 10 17 16 17 18 17 16 15 16 19 22 21 22 25 26 24 24 26 29 29 28 28 30 29 28 26 26 26 28 33 33
3 2 3 3 4 5 5 2 4 5 6 5 4 2 6 7 1 16 8 21 20 17 16 16 17 17 19 20 21 22 21 22 23 25 25 27 27 27 27 29 29 28 25 25 26 27 33 34 33
2 4 4 2 9 7 5 7 9 5 1 4 6 3 1 13 18 14 24 22 21 17 15 16 16 16 19 22 22 22 21 23 22 27 28 25 25 24 26 27 28 27 25 25 27 30 35 32 35
2 3 1 4 7 7 5 10 10 7 5 5 5 4 4 4 14 28 27 24 22 20 18 17 15 14 18 22 24 25 24 24 26 25 27 23 19 12 20 26 27 27 27 24 26 34 32 35 32
3 3 1 5 7 7 7 15 7 6 3 2 4 5 1 19 35 30 28 23 18 17 16 16 15 14 17 20 23 24 24 26 26 26 25 28 15 13 13 22 24 25 23 24 28 30 35 37 32
5 4 5 4 9 9 5 6 5 4 5 4 6 5 3 7 17 30 26 20 15 13 15 15 15 15 16 19 23 26 27 29 30 30 30 17 29 18 17 20 23 25 25 25 29 29 36 34 31
5 4 3 5 6 8 5 6 4 4 7 1 5 5 5 7 26 24 20 15 13 13 14 15 15 14 15 18 21 26 28 30 32 33 29 35 30 18 23 21 25 25 24 29 30 35 33 32 22
4 2 5 7 6 6 7 6 4 4 4 3 5 4 5 28 25 23 18 15 15 17 16 14 14 14 14 15 19 23 28 31 31 30 33 26 31 35 30 24 26 26 23 30 32 35 31 25 18
5 5 9 8 7 10 13 4 7 3 6 4 3 5 19 28 27 19 15 16 21 21 19 18 15 15 15 14 16 24 27 30 35 39 38 33 36 36 34 28 27 28 26 31 33 34 29 25 28
5 11 10 12 10 9 15 8 5 4 6 7 5 6 11 12 15 17 19 23 31 26 21 18 16 15 14 16 16 21 28 32 30 31 31 35 40 32 28 27 30 30 29 33 33 34 30 27 27
7 9 9 13 14 10 14 13 9 6 10 8 9 6 15 14 13 13 17 24 25 24 21 16 15 15 16 15 17 21 28 30 30 32 31 33 36 35 32 42 35 33 33 36 34 34 31 26 21
9 15 14 14 15 17 14 13 10 11 11 9 9 7 14 15 15 15 23 24 27 25 20 17 16 16 17 16 16 20 26 26 29 33 36 38 34 41 35 38 40 37 36 36 36 35 31 25 20
8 10 15 12 12 5 8 7 2 13 6 9 9 12 10 13 16 11 20 23 25 26 23 20 17 15 15 15 16 21 21 20 25 30 38 43 37 40 41 41 42 39 38 39 38 37 30 22 21
8 13 9 5 5 6 7 9 9 14 7 10 12 11 10 10 16 18 28 27 29 27 26 21 17 14 12 14 13 15 18 18 22 30 38 38 43 41 42 45 43 42 40 40 38 34 28 22 23
5 4 5 3 1 5 2 10 12 15 8 15 16 17 11 12 19 21 28 29 29 28 26 21 16 13 12 13 13 13 17 17 19 17 23 41 42 44 44 45 44 43 42 40 38 38 27 25 23
3 13 10 5 4 4 5 12 10 10 10 17 17 18 13 8 10 19 27 32 31 29 25 19 18 15 15 12 10 13 13 15 15 29 25 33 38 48 45 46 45 44 45 39 39 39 31 27 24
8 7 6 5 4 6 10 19 11 13 9 18 11 9 9 9 17 21 26 31 30 27 22 19 18 15 16 12 10 9 12 10 10 32 33 30 39 44 45 44 46 47 46 39 35 36 30 28 24
10 8 11 1 5 7 9 14 9 10 8 10 9 9 8 7 8 16 23 30 29 25 23 23 21 18 16 15 13 12 10 14 12 26 37 40 45 39 41 42 48 42 44 39 40 37 33 27 24
12 14 20 12 11 13 13 20 10 8 8 11 13 10 7 11 10 10 19 24 28 28 25 24 22 19 17 15 15 14 18 13 16 17 41 38 43 39 39 38 42 43 38 38 41 37 34 30 29
15 17 14 15 14 16 12 20 8 6 7 13 18 9 7 18 18 15 16 21 24 27 27 27 24 20 16 15 14 14 17 16 18 19 31 42 44 41 37 43 42 42 41 39 43 39 32 25 30
18 17 17 15 10 8 6 13 9 9 15 14 17 16 8 14 17 16 15 16 22 24 26 25 23 20 18 14 16 17 18 15 16 22 25 38 42 40 42 44 44 43 42 40 44 41 35 31 27
13 17 15 16 9 4 4 4 4 4 9 15 16 17 8 16 20 21 19 20 22 27 28 25 23 21 19 15 16 20 17 17 24 22 31 32 35 40 41 42 37 41 40 42 43 40 35 34 32
12 14 15 13 5 10 7 6 6 4 8 7 15 17 4 15 17 15 14 20 20 26 24 25 25 23 19 17 16 19 20 22 24 26 28 29 30 34 38 41 43 40 37 35 36 34 35 33 31
6 3 4 3 2 5 6 5 14 10 12 16 19 17 15 14 19 18 18 16 22 25 25 25 27 24 23 21 20 20 22 24 28 28 27 27 27 28 34 43 42 43 37 35 34 26 18 24 23
8 9 5 8 5 4 7 5 5 4 7 13 12 9 3 13 17 20 19 17 24 27 26 24 24 23 24 24 24 24 26 27 25 28 29 29 31 31 34 30 34 35 38 35 32 31 25 21 19
9 7 8 5 3 3 4 5 7 5 11 17 12 18 7 14 15 18 17 18 24 27 29 28 26 23 25 24 24 24 28 28 27 25 27 28 28 29 36 34 32 34 34 34 30 28 28 25 24
10 5 4 3 8 6 4 4 5 3 11 19 16 14 10 4 10 14 16 16 25 27 28 30 29 26 26 24 26 24 28 31 30 28 27 25 27 30 32 34 32 35 33 30 31 34 30 28 28
5 10 1 4 4 10 1 5 5 6 8 9 14 11 15 6 5 7 15 19 24 26 28 29 31 27 26 26 25 24 26 29 32 34 31 31 31 30 32 33 33 34 33 34 36 37 33 28 29
4 4 6 4 2 3 4 5 2 6 6 7 8 14 14 13 13 12 11 13 23 25 27 29 30 30 29 28 27 27 27 27 29 31 34 34 35 34 31 33 36 37 35 35 33 35 34 33 30

GFSSGP_925_spd_105.txt.gz
Wind_Speed
6 2 1 4 3 4 4 6 3 4 2 4 4 4 6 4 4 4 7 19 10 16 17 18 18 19 23 24 21 20 23 27 30 32 37 33 36 36 34 32 29 28 27 26 27 27 27 27 29
6 3 3 2 4 2 5 4 6 8 4 3 4 5 2 5 2 3 9 20 17 18 18 20 20 20 23 26 26 24 22 24 30 32 36 36 33 33 31 29 27 26 26 25 26 26 25 29 30
7 2 3 4 3 5 5 4 3 7 4 3 2 2 7 4 4 10 10 24 22 21 20 21 20 20 22 27 27 27 25 21 25 30 35 33 31 29 26 26 25 25 24 24 25 26 26 30 31
4 4 4 3 6 7 5 5 4 7 5 5 3 1 1 2 6 19 16 27 24 23 22 21 21 20 20 23 25 26 25 25 24 25 25 31 29 24 22 25 27 25 23 23 24 27 31 32 32
4 3 2 3 5 5 5 8 7 7 4 5 4 3 2 8 6 18 26 27 27 23 22 20 19 19 19 21 22 22 24 26 26 24 22 17 23 21 16 23 23 23 23 23 25 30 33 32 31
3 3 2 5 6 4 5 10 5 8 9 5 3 5 4 6 15 25 28 27 23 22 21 20 20 19 19 21 22 23 24 24 28 31 37 28 19 22 14 18 21 22 19 21 26 30 32 30 30
6 4 5 4 6 6 4 6 4 4 3 5 4 5 4 5 8 25 23 22 20 18 19 20 21 19 19 20 22 23 23 23 26 32 35 33 24 30 24 13 12 19 19 20 27 29 31 30 29
5 4 3 5 4 8 4 4 4 3 9 5 7 5 5 7 13 22 18 18 18 18 18 20 20 18 18 19 21 23 24 25 26 30 36 37 38 30 29 28 13 15 20 22 28 29 31 29 27
5 2 5 6 7 6 3 6 3 5 4 4 2 5 5 19 20 21 18 16 16 18 19 19 19 17 17 18 19 23 25 25 30 32 34 28 25 32 34 32 26 22 24 26 29 33 30 27 23
5 5 9 7 6 5 5 2 9 4 10 5 4 0 5 25 26 18 14 16 22 22 20 19 19 17 18 18 19 22 24 27 31 36 43 31 36 37 33 29 22 26 26 29 31 33 28 23 24
6 9 10 6 6 6 7 6 5 4 13 9 8 4 5 6 15 15 18 21 27 26 23 22 20 19 19 19 19 19 21 26 29 37 37 38 38 40 37 23 28 30 27 32 33 30 25 23 28
6 7 16 8 7 5 10 4 5 7 18 13 12 6 9 11 14 14 17 21 25 25 26 24 22 21 20 19 20 20 24 28 32 34 39 41 40 36 31 28 33 35 31 36 36 31 24 25 32
7 5 8 8 9 9 10 13 13 17 12 13 10 7 13 15 17 21 25 21 27 26 27 26 23 22 20 20 21 21 24 31 31 34 38 37 36 36 33 33 38 37 33 37 38 32 26 27 31
4 10 15 11 14 9 12 14 6 15 6 11 9 10 12 17 19 15 19 21 28 28 29 25 22 20 20 21 20 21 24 28 31 29 36 33 40 40 40 33 34 36 35 39 40 35 30 25 30
5 6 8 7 7 8 7 8 10 15 4 11 12 11 10 17 16 18 32 30 33 31 30 26 23 21 20 20 20 20 21 24 26 32 35 38 42 40 36 35 37 41 40 41 40 36 30 23 28
4 2 3 4 8 7 9 22 7 9 5 10 11 11 13 11 16 28 28 29 30 30 32 27 24 21 19 19 17 18 18 23 26 27 32 39 41 40 36 37 37 44 43 43 41 36 30 27 33
4 7 5 5 5 4 8 8 5 7 4 9 9 11 14 8 11 18 26 31 33 33 32 28 24 21 19 15 15 14 16 20 23 24 26 37 42 36 41 38 41 46 42 44 44 39 33 31 34
9 6 5 8 5 6 11 16 8 10 4 9 9 12 10 7 15 16 23 28 32 33 31 28 24 21 18 15 13 12 14 18 21 25 25 29 32 38 41 37 43 43 44 43 40 40 30 31 29
9 7 8 0 5 4 8 12 10 9 11 9 10 9 9 7 1 10 19 24 29 30 30 27 25 22 22 19 16 13 12 17 11 18 25 21 32 42 39 38 44 44 43 42 43 41 31 28 28
8 14 14 5 5 5 14 24 18 7 8 9 9 9 8 4 4 5 14 21 26 28 30 27 26 24 23 21 18 13 15 10 13 12 27 26 38 41 41 39 43 44 37 37 42 39 31 29 32
11 16 5 12 4 7 7 21 17 10 7 7 9 10 6 11 11 11 12 21 22 25 30 28 27 25 23 20 16 13 10 13 11 9 26 35 42 40 37 40 42 41 38 40 40 41 33 27 31
16 8 11 9 4 6 7 12 7 6 12 8 12 10 9 11 11 13 15 13 23 24 28 28 28 25 21 20 18 17 12 8 10 15 18 37 42 39 34 38 39 38 35 36 41 39 36 30 26
10 9 10 9 6 3 13 5 4 1 6 12 15 10 8 11 15 17 18 20 19 25 28 28 28 25 22 20 18 17 14 16 15 14 23 34 37 42 37 37 36 35 33 38 40 38 37 33 29
4 4 2 1 3 8 8 8 6 5 7 5 9 11 10 9 11 13 13 17 18 22 25 28 27 25 23 20 17 17 16 16 17 21 21 25 32 34 37 35 36 36 37 38 40 40 38 36 34
5 6 2 2 3 7 9 8 12 7 9 4 15 18 15 9 10 14 16 16 21 24 24 26 24 20 24 17 17 17 18 19 19 25 25 25 28 30 36 41 40 41 40 35 36 33 33 33 36
7 8 5 7 4 3 4 6 5 6 2 5 15 20 11 7 10 17 16 16 21 25 25 25 24 22 25 21 19 18 18 19 21 24 26 28 33 32 38 35 37 40 41 40 36 28 25 20 21
12 6 15 6 1 1 4 5 7 3 5 7 12 16 21 5 6 5 8 11 22 25 27 27 24 24 25 27 23 20 18 19 21 23 27 27 25 30 38 40 40 40 39 37 40 35 31 23 14
13 6 5 3 10 14 4 4 5 4 6 3 8 17 18 17 6 6 7 6 12 20 23 25 26 26 27 26 26 25 23 20 20 23 23 25 27 27 33 37 39 39 35 37 32 29 32 33 27
3 6 5 6 5 9 6 5 5 7 3 1 13 13 15 18 17 8 9 10 7 8 14 23 25 25 27 27 26 25 24 25 24 25 26 25 28 32 33 34 36 37 38 33 34 35 34 33 35
2 8 13 5 5 3 4 5 8 4 4 8 8 8 14 16 18 17 7 10 12 6 8 11 16 24 27 28 27 26 26 25 27 26 27 28 29 30 33 31 32 33 32 34 35 33 32 34 33

GFSSGP_925_spd_108.txt.gz
Wind_Speed
9 4 3 4 4 5 3 5 3 4 2 3 5 4 7 4 5 5 3 20 13 15 18 18 19 21 23 25 25 23 22 25 30 33 35 34 29 30 29 28 26 26 25 25 25 23 24 25 29
10 6 3 3 4 2 5 4 4 6 5 3 3 2 1 2 1 1 6 23 16 17 18 19 20 22 24 24 25 25 26 27 30 30 34 34 37 29 27 26 24 23 24 25 24 25 24 27 30
10 4 3 4 3 5 5 5 4 3 6 3 1 1 2 3 3 5 12 25 21 21 19 18 20 22 24 23 24 27 27 25 27 29 26 30 30 31 27 24 24 22 23 23 24 24 25 29 32
4 4 4 4 6 6 6 3 4 10 5 5 4 4 2 4 7 8 19 28 26 23 20 19 19 22 23 22 23 25 27 27 28 27 26 27 28 27 23 22 22 22 19 21 23 25 27 29 30
4 3 3 1 5 5 6 5 4 6 4 5 3 4 4 2 7 9 20 29 27 25 21 20 19 20 21 22 21 21 21 24 28 26 25 20 20 15 16 18 19 21 19 20 24 27 28 30 29
3 3 3 4 5 4 6 8 3 4 5 6 3 4 5 2 8 12 17 28 25 23 21 21 20 19 19 20 21 21 21 23 25 30 32 25 20 25 13 14 16 17 18 21 24 29 31 29 29
6 4 5 4 4 4 6 4 2 2 2 3 1 6 4 5 11 13 19 23 21 19 19 20 20 20 20 20 20 21 22 23 25 28 28 36 34 30 29 18 16 16 18 20 25 29 32 30 28
5 4 3 5 4 7 6 2 1 4 4 2 4 4 5 3 14 14 17 18 19 18 19 20 21 21 20 21 21 21 23 24 30 35 32 27 27 32 34 25 15 18 18 19 26 29 29 28 28
4 2 5 6 8 6 3 2 2 3 4 4 3 3 5 2 14 18 16 17 19 20 20 20 22 22 21 21 21 21 23 26 30 37 38 40 32 28 26 28 26 25 26 21 27 28 27 26 26
5 5 10 7 7 6 2 1 2 5 7 6 6 2 5 11 19 16 13 18 24 24 23 23 24 23 22 22 21 22 23 24 31 39 39 39 34 30 36 30 26 30 26 26 29 30 28 26 26
5 7 5 6 7 4 3 6 1 2 8 8 8 10 2 5 11 12 18 20 24 27 25 26 25 24 23 23 22 23 23 26 33 39 40 39 38 39 31 28 32 29 27 27 29 31 29 27 26
5 7 8 4 6 2 7 2 5 7 11 11 11 7 5 9 11 14 18 23 26 30 29 27 26 25 24 22 21 21 22 25 33 40 42 41 34 35 35 35 33 33 28 28 31 33 28 26 27
7 3 7 7 7 6 7 14 9 11 14 11 11 7 10 10 12 21 26 19 24 29 29 29 28 26 24 22 20 20 23 24 27 37 45 42 35 35 40 37 34 32 31 32 35 33 29 26 27
3 8 14 9 9 6 10 18 2 12 5 9 10 11 10 11 16 19 15 23 26 33 32 30 29 26 24 23 20 21 22 24 31 35 41 42 38 35 38 31 31 36 34 38 39 34 29 27 28
5 8 7 7 6 7 5 7 14 13 7 10 11 8 8 12 17 17 31 30 34 37 33 32 30 26 25 23 21 20 22 22 28 33 37 40 41 40 38 30 33 37 35 38 40 33 27 27 29
3 4 3 4 10 6 8 25 3 9 6 9 9 9 8 9 14 28 33 33 30 34 31 30 30 27 25 23 21 20 19 21 24 27 30 38 41 41 37 34 32 42 40 42 42 34 28 30 30
4 5 5 4 7 4 10 17 3 1 3 8 9 8 9 10 8 21 31 29 31 36 32 31 31 28 25 22 20 20 20 21 25 26 30 35 36 38 37 35 33 41 41 40 44 37 33 30 29
5 6 4 6 3 6 8 18 7 9 4 9 9 12 10 10 12 13 20 24 27 31 29 32 32 28 23 21 18 19 19 21 23 28 29 30 34 39 41 32 35 39 40 37 40 41 31 29 29
9 5 8 2 4 3 7 16 7 9 8 9 9 9 11 9 6 4 10 17 23 27 31 34 33 27 25 22 22 21 20 20 23 24 24 32 33 39 40 37 40 40 40 40 44 41 34 28 33
9 14 19 4 5 6 11 27 13 6 8 9 10 11 11 7 6 5 10 16 19 19 27 33 31 29 28 23 24 17 19 17 21 16 23 32 29 40 32 42 40 42 38 40 43 39 31 27 35
16 19 9 8 1 7 3 25 16 9 6 8 8 9 9 11 11 8 9 15 19 23 25 29 31 28 29 26 22 14 16 11 15 16 22 29 30 37 40 42 40 40 41 42 43 45 34 25 31
16 10 8 9 5 6 5 10 2 5 9 5 9 9 10 9 10 8 10 11 22 19 22 29 27 21 28 26 23 20 14 9 15 16 16 28 32 37 39 40 39 39 38 40 41 43 34 34 27
8 10 12 7 6 2 3 4 5 2 3 8 5 9 12 11 11 12 13 15 22 23 29 29 24 22 26 25 20 17 13 16 12 18 16 28 36 39 39 39 37 37 38 41 41 44 33 38 31
7 3 3 3 4 5 8 7 3 3 4 4 6 12 16 14 11 10 7 15 18 21 24 25 23 24 24 22 17 18 14 15 14 16 17 25 29 29 39 36 36 35 37 41 43 44 35 38 36
7 7 2 1 3 6 10 7 9 5 3 6 4 10 14 15 9 6 9 12 19 24 24 23 24 23 24 21 17 17 17 15 20 19 20 21 26 28 33 34 32 32 33 38 40 43 39 34 36
11 14 5 7 4 4 7 6 5 10 8 7 5 10 15 18 17 8 5 5 13 20 22 22 24 21 21 21 20 16 16 16 19 21 25 20 26 30 37 36 35 32 26 29 33 36 34 33 31
5 9 8 3 1 2 4 4 8 5 7 7 6 12 13 14 13 15 4 5 13 17 19 19 20 19 21 22 20 18 16 16 18 19 24 27 23 30 36 37 38 41 38 30 27 27 25 26 25
9 7 3 1 6 7 3 3 4 2 6 7 5 7 8 15 17 15 7 4 12 16 18 18 17 15 15 15 14 18 16 15 17 19 21 25 28 30 32 33 35 38 41 44 40 34 32 29 28
4 5 4 5 5 5 2 5 4 4 4 8 4 6 9 16 15 19 4 5 10 14 17 17 16 14 13 14 19 16 15 13 15 18 20 23 26 29 32 36 37 37 39 41 38 33 35 37 33
1 4 10 5 7 2 3 5 5 7 8 7 5 8 7 16 14 15 7 4 8 13 14 13 12 12 13 14 18 19 19 18 16 16 20 21 23 24 28 28 31 36 36 36 38 36 34 36 35

GFSSGP_925_spd_111.txt.gz
Wind_Speed
10 7 5 4 2 1 3 4 2 3 3 3 6 5 7 2 5 2 3 20 14 17 18 16 16 16 16 19 19 19 20 26 27 28 30 31 30 30 28 26 25 24 24 23 23 22 21 22 26
13 9 3 3 3 3 3 2 6 6 2 2 4 4 4 2 2 1 7 23 16 17 19 19 18 16 16 19 19 19 19 24 26 28 29 29 32 33 31 26 24 25 22 21 19 20 22 25 27
11 4 2 3 3 6 4 5 5 2 6 5 4 2 3 3 3 4 9 25 20 19 18 18 15 17 17 19 19 19 18 21 24 27 29 28 27 26 29 26 24 22 22 21 19 20 24 29 28
5 3 3 3 9 5 5 4 4 7 1 5 1 3 2 4 6 6 17 25 23 19 18 17 15 17 18 19 20 19 19 20 26 28 28 27 22 26 22 24 22 19 20 20 21 22 25 28 28
4 2 2 3 6 4 7 7 5 6 4 4 4 3 3 3 7 5 18 24 24 21 19 18 16 17 20 19 21 20 18 22 22 24 25 25 22 7 16 20 19 17 18 18 20 23 27 28 27
2 1 2 9 8 4 6 8 3 3 3 3 2 2 4 2 7 8 18 20 26 20 19 18 17 17 19 20 19 22 20 20 22 25 25 25 25 31 27 24 21 16 15 16 20 24 27 28 27
4 3 4 4 4 4 5 4 3 2 3 2 2 4 3 3 5 9 15 19 24 21 20 20 20 19 19 20 21 22 22 23 24 25 26 28 34 32 29 27 24 21 15 18 22 24 27 27 27
3 3 5 5 9 9 5 3 3 1 1 1 3 1 2 3 4 6 11 17 20 20 20 21 21 21 21 20 21 22 23 25 28 30 32 34 34 33 29 22 19 20 20 22 23 25 27 27 27
2 4 8 10 10 6 3 4 2 0 2 4 3 1 2 8 4 6 9 14 17 19 21 22 22 23 23 22 22 23 25 26 28 33 35 31 33 31 18 19 25 24 24 23 25 27 27 27 25
5 7 12 6 8 6 3 3 1 2 5 4 5 4 5 5 5 12 13 19 18 19 24 24 23 25 24 23 23 24 28 28 31 35 34 36 33 27 22 30 27 25 28 28 28 28 26 25 21
6 13 6 5 9 6 6 7 5 5 8 8 8 14 8 6 9 14 19 21 25 20 21 25 24 25 25 24 23 25 27 30 33 38 39 32 29 29 33 30 25 25 27 27 28 29 29 21 20
6 7 12 8 6 5 6 3 9 10 14 15 11 11 11 12 11 15 21 25 20 21 22 25 26 26 26 24 24 25 26 28 33 40 42 36 30 29 26 32 30 26 26 27 27 33 31 25 20
8 5 7 11 12 10 9 18 18 9 15 13 13 12 14 13 13 18 23 20 19 22 25 29 28 26 28 26 24 24 25 27 30 36 40 35 31 29 28 32 31 28 32 33 35 31 30 23 22
3 6 13 10 13 7 14 21 10 11 14 13 10 14 13 11 16 17 16 24 23 24 29 32 31 29 28 27 26 24 24 23 25 32 39 41 34 33 28 26 25 31 35 36 35 30 31 21 20
5 12 11 10 7 9 5 20 16 19 17 17 15 15 13 12 13 15 23 23 27 28 25 34 34 32 30 27 24 24 24 24 25 29 36 39 40 34 28 28 30 29 29 34 33 27 30 20 18
5 5 6 1 11 7 11 26 6 9 10 13 10 8 9 13 11 17 21 23 25 23 26 27 35 35 32 28 25 23 24 24 24 27 33 41 41 40 36 31 31 31 33 32 30 27 25 21 21
6 14 10 5 8 5 16 18 4 2 2 6 8 10 10 13 15 17 20 19 20 22 23 26 32 33 33 28 25 23 22 22 24 26 33 39 38 37 39 34 31 33 35 30 35 27 26 23 20
10 11 9 15 6 10 15 19 13 13 10 10 11 11 14 15 19 16 14 13 13 18 22 26 32 33 31 28 25 22 19 21 22 25 29 32 35 39 39 34 33 37 36 31 29 30 25 25 23
13 11 14 6 2 6 13 21 18 13 11 11 14 16 17 18 17 14 8 6 7 14 21 25 29 30 31 29 23 19 19 23 23 26 28 28 33 30 36 32 34 36 37 39 38 32 29 22 23
17 20 25 14 12 11 19 28 20 17 18 20 19 18 18 17 15 12 9 7 10 14 20 24 27 30 27 24 23 15 19 22 24 25 24 28 29 31 34 29 41 41 33 33 37 35 27 19 27
20 23 18 17 8 10 10 29 20 18 20 18 16 18 15 13 14 15 10 12 12 16 19 23 27 31 28 22 19 17 17 14 20 24 24 26 30 35 37 39 42 44 40 38 40 37 31 24 26
19 11 17 15 9 11 6 12 3 9 12 9 10 5 7 9 11 14 13 10 16 14 16 20 24 27 26 26 22 22 19 16 16 21 26 21 26 34 36 39 43 43 41 39 38 40 35 30 29
9 10 15 16 15 10 16 8 2 4 5 1 5 5 8 10 11 12 13 12 12 17 20 22 24 24 24 25 26 24 17 16 16 21 20 24 26 32 37 41 39 42 40 41 39 37 33 33 32
6 6 5 3 6 8 13 12 4 9 7 7 4 6 7 12 12 12 8 6 10 14 18 21 24 20 22 23 25 22 18 14 14 19 22 22 27 31 38 40 42 40 39 41 40 41 37 36 31
17 12 6 7 6 9 6 11 11 7 5 8 8 6 8 12 13 12 10 1 6 11 15 18 20 18 18 20 20 17 14 15 16 18 18 21 22 26 32 37 37 34 34 38 39 38 37 38 33
19 17 8 9 7 7 9 9 6 12 10 9 6 7 10 14 13 13 9 3 5 12 14 17 19 16 18 18 16 13 13 13 13 18 15 22 22 27 31 33 32 31 35 37 37 33 36 36 37
9 17 16 2 1 3 6 6 8 8 14 8 5 10 14 14 15 17 10 2 3 10 15 18 18 17 18 18 16 15 12 12 17 19 16 20 21 28 33 32 32 31 32 33 35 33 31 35 37
10 17 9 6 9 7 4 3 4 12 13 10 8 12 11 12 16 17 13 6 0 7 12 16 20 19 19 18 17 14 12 12 15 15 16 19 24 31 34 37 35 33 29 29 32 30 32 32 28
12 11 7 9 5 10 9 5 4 1 14 10 11 11 12 14 16 16 13 8 1 6 10 15 18 16 17 18 17 15 13 10 12 15 17 20 20 29 34 37 41 38 37 31 27 28 28 27 31
11 21 11 11 13 7 5 5 3 6 10 10 11 11 12 16 17 16 14 12 3 7 11 13 15 15 16 19 17 16 15 12 10 12 14 16 22 25 26 29 31 32 41 44 37 35 36 36 34

GFSSGP_925_spd_114.txt.gz
Wind_Speed
8 6 5 7 6 6 11 7 1 6 6 5 4 6 7 4 1 3 4 15 11 16 14 12 11 12 13 14 14 14 15 18 25 26 25 28 27 28 29 28 25 23 21 22 22 21 21 22 22
10 7 6 3 7 10 10 7 10 7 3 2 6 8 6 4 2 2 11 17 14 16 14 14 14 12 13 14 14 13 14 18 22 26 26 28 27 30 27 28 27 24 23 22 21 20 21 23 23
11 7 5 5 9 13 9 8 7 7 3 7 8 6 3 3 6 7 6 20 15 14 14 15 16 13 14 16 15 15 15 19 21 26 26 25 27 25 25 22 27 25 24 23 20 19 21 25 24
9 6 4 9 15 10 9 7 6 3 4 8 8 6 3 2 6 6 10 19 15 14 13 15 14 14 16 17 17 16 16 19 19 22 26 26 23 20 17 19 23 24 22 18 17 20 25 26 26
8 4 10 13 18 14 8 5 5 6 3 7 10 7 4 5 6 4 12 19 17 14 13 14 14 13 17 19 18 17 17 19 22 21 25 22 25 6 11 10 16 20 19 20 18 20 27 26 26
7 5 10 15 19 10 11 11 10 9 5 7 7 9 8 6 5 3 9 15 16 15 14 14 15 14 18 19 20 19 19 20 20 21 22 28 25 27 18 22 20 20 21 21 21 21 25 24 24
14 10 16 18 17 11 12 6 11 8 7 9 5 13 4 7 3 2 6 11 15 15 15 15 15 15 18 19 20 22 20 19 21 23 26 26 25 26 23 26 23 21 20 20 22 24 24 24 23
9 10 20 15 17 18 6 8 7 10 6 3 4 6 9 5 3 3 7 11 14 15 15 15 16 16 16 17 21 21 21 20 21 25 27 27 24 24 31 27 25 23 22 23 25 23 24 24 24
6 11 16 19 18 13 3 10 6 2 6 3 2 2 3 5 3 2 8 11 14 16 16 16 17 17 16 17 19 21 21 21 23 24 26 25 22 25 25 27 26 23 23 24 23 24 25 26 25
13 15 22 17 14 11 6 10 5 8 13 9 7 4 5 5 3 5 9 13 17 19 19 18 19 19 18 17 17 20 19 20 21 21 22 22 23 26 26 25 24 25 24 23 22 23 26 24 21
13 23 17 13 14 16 15 14 12 12 16 14 13 5 8 8 8 8 10 13 18 19 19 20 20 20 21 18 19 18 20 20 21 22 24 24 23 25 24 18 22 22 22 18 20 24 24 21 20
17 18 18 18 17 14 17 17 15 16 17 15 12 13 13 13 11 10 10 13 15 18 21 21 22 21 22 21 20 19 26 23 26 27 25 25 23 24 24 21 23 21 23 21 20 24 23 20 18
19 19 18 16 19 19 17 20 21 23 16 19 16 16 17 15 14 14 14 13 14 18 21 24 24 24 23 27 22 17 23 26 29 30 31 28 25 25 24 22 22 22 27 25 24 23 21 20 18
13 14 17 17 18 20 22 24 22 18 13 22 19 19 19 17 16 17 15 15 16 18 23 24 27 26 24 23 22 21 20 22 27 30 30 29 30 28 25 24 23 24 27 28 28 25 23 20 18
14 18 19 19 19 19 15 25 27 21 22 25 24 20 19 18 18 16 17 15 15 18 21 26 28 27 26 25 22 20 20 20 24 29 29 29 33 32 28 25 25 26 24 28 27 27 24 21 19
13 17 17 13 11 19 18 25 3 2 10 14 15 17 15 16 14 17 18 17 16 16 21 24 27 29 28 26 23 21 18 19 22 24 27 30 32 36 34 26 25 23 29 26 31 29 25 23 22
17 19 21 15 10 13 18 19 15 6 12 16 13 13 12 13 13 18 19 18 16 17 19 25 29 31 30 26 22 20 18 20 23 26 27 27 32 35 30 29 25 27 30 28 29 30 27 25 23
16 20 18 22 17 17 22 23 17 14 12 12 12 13 14 16 17 20 19 16 15 14 17 23 28 29 29 26 23 19 16 17 22 24 27 28 31 35 34 31 25 32 31 27 30 30 28 27 26
22 24 22 18 7 13 17 21 20 18 20 18 18 20 19 18 19 23 19 16 12 10 15 23 26 29 31 30 28 22 21 21 20 20 25 28 32 36 38 37 34 36 32 30 31 31 30 27 25
24 26 28 21 17 14 21 28 25 23 22 21 20 21 22 22 19 18 16 16 12 12 15 22 25 29 29 28 26 18 21 20 20 20 24 26 30 35 34 35 37 36 33 30 32 32 30 28 29
24 25 20 21 16 17 20 31 25 26 27 24 23 24 21 18 15 13 13 16 15 15 18 21 25 29 27 26 23 18 17 13 19 19 22 27 30 32 35 35 35 43 38 33 35 34 34 28 29
23 20 19 18 13 16 14 22 15 4 8 11 14 12 10 9 10 12 13 13 14 15 15 18 23 28 28 28 25 24 22 17 18 20 19 23 25 25 32 35 35 38 42 39 38 37 35 32 30
25 17 15 15 15 16 21 11 11 11 13 11 8 5 6 4 6 8 9 12 10 13 15 18 23 26 26 28 23 22 18 14 14 19 20 21 20 26 30 35 38 42 43 40 42 37 34 33 31
18 12 11 10 10 14 20 16 11 12 10 7 5 5 1 3 4 5 4 4 8 13 15 19 23 25 24 25 21 20 19 16 15 17 17 17 18 24 29 31 38 41 43 42 45 43 37 33 32
25 18 10 10 10 17 9 13 18 4 6 7 7 5 3 5 6 7 5 1 7 11 14 17 24 24 23 23 21 20 18 16 17 18 20 16 21 23 27 33 37 38 37 43 45 42 39 34 32
23 25 12 19 13 14 12 10 9 13 14 9 9 5 4 6 7 9 7 3 4 8 12 16 21 21 23 23 22 20 16 15 17 17 15 16 21 26 29 35 36 38 39 44 43 40 39 36 33
26 22 28 18 13 8 12 16 8 7 15 14 9 6 4 6 9 10 9 7 5 4 9 14 17 18 20 22 20 18 15 16 15 13 12 17 17 22 25 30 31 31 35 35 38 36 35 32 30
24 23 21 14 19 20 18 18 8 14 17 16 10 7 5 8 9 9 9 8 7 1 7 12 14 17 17 19 18 16 14 14 12 12 10 14 18 21 24 27 29 31 34 35 33 31 31 31 28
17 16 19 20 16 15 14 12 8 14 17 15 10 7 7 9 9 11 10 10 8 2 4 9 12 15 17 17 16 14 13 13 11 11 10 13 19 24 26 28 30 30 31 35 30 29 32 31 28
22 21 24 14 23 16 12 7 5 8 16 13 11 10 10 10 12 13 13 12 18 5 4 9 11 13 15 14 14 14 13 13 10 9 10 15 21 25 29 29 30 31 29 32 32 31 31 30 28

GFSSGP_925_spd_117.txt.gz
Wind_Speed
9 8 12 10 8 8 16 18 7 3 4 8 4 4 5 5 2 3 5 11 15 15 13 12 12 12 13 13 12 11 13 16 21 22 21 22 22 22 25 24 24 23 22 21 21 18 18 20 20
10 9 12 8 9 14 14 17 8 10 5 3 6 5 5 6 6 9 11 13 15 14 13 12 11 8 10 11 11 11 12 14 19 22 22 22 23 24 25 24 24 24 22 23 22 19 19 22 23
11 11 9 9 15 16 16 5 6 7 7 9 8 9 7 6 7 11 17 16 15 14 13 14 11 9 9 11 11 10 11 14 16 18 21 20 20 18 5 13 11 17 23 23 22 22 21 22 23
11 8 8 12 20 17 16 11 6 6 9 11 11 8 4 6 10 7 16 18 16 14 12 12 11 9 9 11 12 12 11 14 16 16 17 17 11 11 15 12 13 16 20 22 19 20 23 23 23
16 8 14 18 22 23 9 10 3 7 7 10 13 11 6 9 7 8 16 18 16 15 14 12 12 10 10 12 13 13 12 13 15 14 18 17 19 20 19 20 18 9 8 17 20 20 23 23 24
10 11 15 16 22 21 13 7 10 13 10 11 15 15 9 13 11 9 14 18 15 16 14 14 15 12 11 14 14 13 13 14 14 15 18 23 27 18 10 22 19 15 15 17 20 22 26 24 23
17 14 19 21 21 21 7 10 12 15 16 15 11 16 13 11 5 5 12 15 15 15 15 15 15 14 12 14 15 15 14 13 14 16 20 23 26 12 19 20 20 19 20 21 20 24 27 26 23
14 15 25 21 17 24 14 10 10 18 17 5 6 10 15 15 6 7 10 14 16 15 16 16 16 16 14 13 16 17 15 14 15 17 20 22 24 17 14 17 22 20 21 20 22 23 26 25 24
14 15 19 22 21 20 14 7 14 12 15 7 14 12 8 8 8 9 11 13 15 16 17 17 17 17 15 14 14 16 17 16 15 17 21 22 15 22 15 21 23 23 21 20 20 21 23 23 24
18 16 26 19 17 16 13 7 16 11 16 14 11 10 6 7 10 10 11 14 16 18 19 19 19 18 17 16 15 16 15 15 16 16 18 19 16 16 20 21 21 21 18 14 17 19 22 21 20
21 25 23 20 19 17 14 19 16 17 17 19 20 18 16 13 10 10 11 14 17 19 19 21 21 20 19 19 17 16 17 17 17 20 20 21 17 19 20 18 18 19 15 15 21 20 20 19 19
25 26 23 22 23 19 20 20 22 20 18 20 14 14 7 13 13 12 13 14 17 19 21 21 22 22 21 19 20 18 19 17 17 19 20 18 19 20 22 21 19 16 19 19 20 19 18 18 17
28 25 25 23 21 22 23 25 22 24 20 19 19 20 15 17 18 18 16 16 15 17 20 22 23 24 23 23 20 20 19 19 19 18 19 21 20 21 22 20 19 20 24 23 20 17 19 18 17
22 24 23 23 26 24 24 25 24 25 23 24 24 22 20 22 21 20 21 22 18 17 19 22 25 26 24 26 23 21 18 19 20 20 20 22 22 23 23 21 18 22 23 23 23 19 21 20 20
21 25 23 25 22 23 20 28 29 24 24 27 25 23 24 24 23 22 25 24 22 20 19 23 25 27 27 24 24 22 20 19 20 20 21 22 24 24 23 22 21 19 20 27 26 24 21 21 19
23 22 22 21 25 25 24 34 24 15 16 30 26 25 24 23 23 26 25 25 26 21 24 24 25 28 29 25 26 24 22 22 21 20 21 23 23 23 23 22 22 19 21 27 28 29 23 20 20
20 22 26 26 21 18 16 27 22 23 23 14 16 16 18 18 20 24 23 24 25 21 20 20 26 27 30 27 26 24 21 23 22 20 21 22 23 23 24 24 21 23 25 27 29 27 29 25 25
20 20 21 22 19 20 22 25 22 20 16 16 17 18 16 18 17 18 21 23 22 20 18 18 23 28 29 26 26 25 22 24 21 20 20 21 21 22 23 24 23 24 27 26 28 29 33 28 26
20 25 27 26 20 20 21 22 19 21 23 22 21 20 17 16 14 19 22 22 22 19 17 19 22 28 29 30 29 25 24 22 19 18 18 20 20 22 23 23 22 27 28 29 32 30 34 27 25
25 27 30 28 26 21 24 23 22 22 25 22 21 21 20 19 20 19 21 22 22 18 19 20 23 27 30 30 26 23 24 20 18 18 19 19 22 21 22 22 23 29 28 33 37 31 27 25 24
30 27 28 26 24 19 23 29 25 27 28 27 27 25 22 21 21 20 18 21 18 22 22 21 23 27 28 28 25 24 20 13 16 16 18 20 21 27 28 29 27 29 28 34 36 35 33 26 28
26 27 26 23 20 18 21 22 22 24 25 23 24 25 23 21 20 16 12 13 20 22 20 20 22 26 27 30 28 29 24 18 19 18 20 20 22 22 27 32 33 32 35 33 39 34 36 33 28
31 25 25 22 18 20 25 18 15 15 19 17 14 13 13 6 7 11 13 14 19 20 18 19 21 26 27 30 30 28 25 20 17 18 17 19 20 23 28 32 35 32 37 40 41 38 33 35 32
26 23 26 20 16 17 25 22 19 17 12 11 4 1 6 5 5 5 5 5 12 11 13 14 19 24 26 28 29 28 25 20 18 18 17 18 20 21 26 31 33 36 36 33 45 46 40 32 32
28 22 17 16 15 20 23 21 19 13 11 11 15 10 8 7 4 1 2 1 3 10 10 11 17 21 22 26 27 25 22 19 18 17 17 16 16 16 21 25 32 35 39 40 37 42 41 36 33
28 26 17 24 16 21 22 19 18 17 16 8 10 11 8 5 5 6 6 4 2 3 9 11 16 16 18 21 23 21 19 18 16 16 15 16 18 16 17 27 28 33 38 40 44 40 42 42 34
26 25 27 26 20 14 13 18 19 15 13 14 12 11 7 6 7 8 9 7 7 1 4 8 12 15 17 20 21 20 19 17 16 15 14 15 12 12 15 22 27 32 39 42 41 39 42 42 36
23 21 23 18 23 23 17 18 16 19 14 21 15 10 8 8 7 7 8 8 7 2 3 6 9 12 16 21 20 20 19 17 13 13 10 11 11 13 15 18 23 29 32 36 39 34 37 38 36
13 19 21 18 19 18 15 15 16 14 18 19 16 11 8 7 8 9 7 9 11 6 1 5 8 10 15 18 18 17 16 15 13 12 11 11 11 13 15 16 21 26 28 29 33 31 31 37 36
21 21 23 11 21 18 16 14 12 12 14 15 14 11 11 11 10 10 10 10 12 14 8 2 7 8 13 10 12 12 13 13 13 11 11 10 14 14 15 16 22 25 27 29 28 28 28 34 35

GFSSGP_925_spd_120.txt.gz
Wind_Speed
11 9 9 11 6 8 15 19 20 12 2 4 9 2 6 12 11 5 18 25 23 21 16 13 11 10 10 9 9 9 10 12 12 12 11 11 12 12 13 15 17 16 17 17 17 15 16 15 16
10 12 15 6 8 12 14 24 19 5 11 9 4 3 3 2 14 11 14 21 21 18 17 14 12 8 8 8 8 8 8 9 11 12 12 11 12 9 7 8 9 13 16 17 17 16 16 19 18
13 13 7 6 12 15 17 24 15 15 13 7 3 6 4 4 12 15 26 21 21 17 15 14 12 8 6 7 8 7 7 7 8 10 11 10 11 12 9 11 2 4 7 16 17 18 19 20 21
8 8 6 10 20 19 24 21 10 8 10 6 8 6 5 13 9 16 22 19 21 18 16 13 11 9 6 6 8 7 7 9 9 8 10 12 16 13 16 24 13 8 18 9 15 18 21 20 21
17 7 10 15 21 22 22 24 8 11 2 9 10 11 7 13 11 24 23 19 19 20 18 13 12 10 8 7 7 7 8 10 9 8 11 17 16 13 10 20 27 11 4 10 11 16 21 21 21
8 9 13 15 21 24 22 21 7 6 8 7 8 14 7 18 16 12 23 20 17 20 15 14 14 12 9 9 9 9 9 10 11 11 14 18 15 13 19 21 21 22 21 15 17 19 22 22 22
15 13 19 21 20 22 23 10 4 10 13 14 9 13 10 13 19 17 19 22 16 15 12 12 15 14 11 10 12 11 10 10 12 13 16 19 18 17 19 21 21 23 18 17 19 19 22 22 23
12 13 25 21 19 25 20 22 8 10 14 13 9 11 8 14 19 17 17 22 18 15 11 12 13 15 14 13 14 13 12 11 12 14 15 18 23 14 13 23 20 19 20 18 15 16 22 23 22
18 15 18 24 24 22 20 22 7 4 13 19 5 6 11 14 11 15 17 16 21 19 18 15 15 14 15 13 16 16 14 13 13 14 16 18 23 18 22 16 20 21 18 18 15 16 18 21 21
17 16 25 20 23 22 22 20 8 7 17 16 10 8 7 11 14 13 13 15 18 21 22 21 20 17 16 13 13 18 18 17 16 15 19 19 18 16 16 15 20 21 20 17 18 17 17 19 21
20 24 21 24 26 25 24 24 13 13 15 11 17 11 10 9 11 13 19 24 23 23 24 24 24 22 20 16 15 17 17 17 16 16 17 21 18 15 16 19 20 19 20 18 17 18 17 18 20
23 26 23 24 24 24 24 23 19 17 20 17 14 11 17 18 14 10 12 15 27 28 28 26 26 25 24 21 19 17 20 19 20 21 20 19 19 19 20 22 22 22 22 19 20 20 20 21 21
22 24 25 25 22 24 24 24 22 23 17 19 16 17 14 7 8 10 16 18 19 27 34 32 28 28 27 24 21 19 21 21 21 22 25 23 21 19 21 23 22 24 22 21 21 20 21 22 21
21 25 25 24 24 22 24 24 20 25 20 21 20 19 17 15 11 12 18 19 15 15 30 35 33 30 29 28 23 24 21 22 20 19 23 26 23 19 24 23 23 22 22 26 23 22 25 24 22
20 22 23 24 21 25 22 25 27 22 22 23 23 22 21 21 17 17 25 22 23 22 21 34 34 31 30 32 27 24 21 21 24 22 19 22 25 24 24 24 21 22 21 26 24 21 19 22 22
22 23 20 19 22 24 22 30 24 22 22 26 25 22 23 22 24 29 33 32 29 28 31 33 33 34 32 31 32 25 21 23 24 24 22 22 25 25 24 23 23 22 26 26 28 25 23 18 19
18 19 24 28 22 26 24 34 24 22 20 22 23 19 23 21 23 27 29 28 29 28 24 33 34 35 35 30 29 29 25 23 22 24 26 23 24 25 23 22 23 25 27 29 30 27 27 25 22
19 17 21 21 20 25 22 27 22 13 21 19 19 13 12 15 16 21 26 30 27 25 26 34 34 34 36 30 27 26 24 27 22 25 24 23 24 23 25 23 24 25 28 28 30 30 29 29 26
23 24 28 27 25 22 24 23 23 18 18 20 19 12 15 14 12 18 20 22 17 18 23 21 27 31 32 30 28 26 25 26 21 24 23 23 24 25 25 25 26 26 31 31 33 32 33 28 30
27 28 29 28 23 20 21 24 26 25 18 18 17 17 18 17 14 8 9 14 18 21 21 20 19 27 31 30 28 25 24 22 25 24 25 23 23 26 26 25 28 28 29 31 32 32 25 27 25
26 24 29 28 25 18 18 23 26 28 28 21 22 21 22 16 17 12 9 14 19 19 18 19 17 20 29 27 26 23 23 16 24 25 25 26 25 24 26 24 27 29 31 32 35 35 31 27 29
28 28 30 27 22 17 17 18 20 21 24 26 26 25 24 21 18 13 16 14 20 23 23 20 19 21 26 30 28 27 23 18 19 21 23 24 26 26 25 27 25 31 31 32 35 38 38 31 25
30 29 25 24 25 20 23 14 20 20 24 26 25 27 25 24 15 15 15 11 6 12 27 25 23 22 25 32 29 28 23 23 19 19 24 24 23 25 28 30 30 30 30 31 34 33 36 36 30
25 28 28 25 17 18 20 19 15 17 23 23 14 14 15 7 6 4 3 3 4 4 20 21 18 20 30 30 27 30 28 24 23 24 24 26 26 25 26 27 28 31 31 32 35 36 39 37 34
23 22 15 17 15 14 22 19 15 16 23 26 10 13 10 9 5 4 4 5 4 15 11 7 4 12 29 27 29 28 26 24 25 25 22 23 23 24 28 28 29 29 32 34 36 40 39 40 37
25 19 15 22 15 16 21 21 19 25 25 17 10 13 10 10 7 9 10 9 9 12 12 6 2 11 12 22 24 22 29 24 17 18 19 20 21 23 20 26 30 31 29 33 34 36 40 41 41
10 15 19 21 23 14 14 17 23 24 19 20 16 16 10 8 11 14 9 8 12 12 8 4 5 8 8 14 13 17 22 19 17 13 15 13 17 17 22 23 25 28 31 34 37 35 35 41 41
13 16 13 13 21 20 17 20 12 19 17 12 16 15 11 12 11 11 9 9 10 7 4 1 3 4 13 16 16 9 14 17 12 13 15 15 16 16 15 20 22 24 29 33 36 35 38 36 37
12 10 16 15 16 14 13 13 16 6 19 17 17 16 13 18 15 8 8 9 12 13 14 3 1 2 7 12 17 14 15 16 16 14 13 17 12 14 16 15 17 19 26 30 33 34 32 37 37
15 14 17 9 20 13 14 17 19 13 6 14 16 16 17 16 16 11 11 13 14 14 14 17 10 3 6 9 8 17 15 19 15 14 14 14 14 13 15 14 12 14 19 25 29 26 27 29 30

GFSSGP_925_spd_123.txt.gz
Wind_Speed
7 6 3 2 3 3 5 10 16 19 9 2 7 9 5 5 6 5 14 33 30 26 21 17 14 12 11 10 10 10 9 8 7 6 6 7 9 10 10 11 10 8 9 12 15 16 15 15 15
7 3 4 2 4 0 6 15 15 14 7 4 8 7 8 1 8 14 13 28 26 23 21 17 14 12 11 11 11 10 10 9 8 7 7 9 11 14 14 16 14 8 2 8 13 13 17 18 18
9 5 2 4 4 7 6 7 13 7 5 3 3 5 4 8 6 10 32 27 24 22 19 17 14 12 11 12 13 12 12 11 9 9 9 12 13 14 14 18 17 9 4 6 9 13 17 20 22
3 1 4 1 9 10 12 21 13 6 3 4 2 5 5 14 7 23 34 28 24 19 18 17 14 12 11 12 13 14 14 15 13 11 13 14 14 10 16 18 18 23 10 4 7 11 17 20 24
4 1 3 5 9 11 16 21 16 11 5 4 3 0 6 5 32 39 37 30 25 20 18 16 13 12 11 11 13 15 15 17 16 14 16 15 14 13 14 18 17 14 15 15 13 13 19 21 25
3 2 2 6 9 16 18 17 17 15 6 4 5 0 4 26 37 36 35 34 25 23 21 17 14 12 11 12 13 15 16 19 18 16 16 16 13 13 15 23 16 16 28 19 15 15 19 21 24
6 4 7 7 10 16 18 12 9 5 3 3 6 8 2 2 35 36 35 35 31 27 23 19 17 15 13 12 14 16 16 18 19 17 16 17 16 13 19 21 23 14 23 21 15 15 16 18 24
5 4 12 9 11 15 18 19 7 5 4 2 1 4 4 1 31 35 34 33 30 25 21 18 20 18 17 16 16 16 16 16 19 18 18 18 19 15 17 19 21 20 18 17 16 16 15 18 21
3 5 13 8 13 16 19 18 12 8 2 1 3 4 11 18 17 30 31 29 26 23 20 17 21 21 18 18 18 17 16 16 18 19 21 20 22 17 15 20 20 22 18 15 15 16 16 17 20
4 6 4 7 13 16 20 13 15 14 8 5 2 9 21 25 20 13 13 17 23 24 22 20 21 22 20 19 20 20 20 19 19 21 24 23 23 17 17 20 19 20 19 18 17 18 19 21 21
9 14 10 16 18 20 22 21 13 10 10 5 7 4 10 8 15 13 19 28 31 29 24 23 22 22 23 21 20 23 22 21 20 21 24 24 24 19 23 14 18 22 21 21 19 18 20 22 23
11 13 13 15 15 15 21 17 20 12 13 12 9 4 8 10 14 14 20 27 29 34 33 28 26 25 24 23 23 23 24 24 23 22 23 25 26 22 25 19 24 25 25 23 21 21 21 22 22
9 8 12 13 15 15 15 20 19 22 14 13 15 15 6 8 9 20 31 34 37 34 37 37 33 31 29 27 25 23 25 24 25 25 23 26 28 27 25 25 27 27 25 25 22 22 22 23 22
7 17 17 16 17 14 16 17 9 22 9 13 15 16 12 8 8 9 16 19 29 33 39 41 38 36 33 32 30 26 25 25 25 27 28 26 29 28 26 28 28 30 29 26 21 24 24 24 23
8 12 14 16 11 14 16 21 20 17 13 17 19 18 21 12 10 10 20 19 21 29 42 43 43 39 37 36 31 28 27 27 28 29 31 29 29 28 27 30 30 31 32 28 22 23 24 24 24
8 7 7 11 10 16 10 24 22 17 19 24 22 18 18 24 17 21 23 26 26 27 39 46 42 45 42 40 34 29 26 28 29 25 29 31 30 29 28 32 32 32 29 30 27 27 27 24 21
5 8 9 21 14 16 14 25 14 17 24 23 22 21 20 19 22 27 28 32 32 34 33 44 44 44 45 41 38 31 30 29 28 28 24 27 29 30 31 33 32 30 29 29 31 29 29 27 24
8 8 13 17 18 13 16 20 15 17 14 24 22 16 18 19 25 31 32 37 39 40 38 45 47 43 45 41 37 36 31 25 27 30 31 25 29 30 32 32 30 31 32 30 33 32 30 29 29
17 18 22 24 23 19 22 23 22 17 17 14 17 14 11 13 11 27 31 37 38 40 41 42 40 40 39 35 32 31 34 34 26 28 29 32 28 31 31 31 29 33 35 35 36 34 31 25 30
17 20 23 25 19 16 19 22 23 16 22 19 17 18 15 9 9 8 11 27 33 32 28 37 42 44 40 40 35 27 30 33 33 28 27 26 28 29 31 31 32 35 33 33 36 34 25 20 33
22 20 18 24 26 23 21 25 21 19 16 18 22 19 15 10 9 9 7 9 14 18 21 33 38 44 39 33 30 21 25 24 28 29 27 27 28 28 29 30 32 35 35 35 37 37 32 23 29
24 17 21 23 22 17 17 18 20 15 18 20 21 21 19 15 11 9 11 8 12 15 22 34 35 39 39 39 34 35 29 20 20 23 26 28 27 27 29 29 30 35 35 32 36 39 35 29 28
15 19 22 22 19 20 22 11 24 11 18 20 22 19 21 20 19 12 10 9 20 21 28 35 34 35 37 39 38 37 27 23 21 23 26 27 29 30 24 27 29 32 34 32 35 36 34 34 31
21 16 19 18 13 16 17 15 22 15 19 18 23 17 21 25 23 12 6 9 11 12 24 31 29 26 36 41 37 35 30 26 22 24 25 26 27 29 28 28 31 31 34 33 34 36 37 37 31
11 10 6 6 7 14 12 16 15 11 13 19 12 11 2 7 9 9 12 11 15 21 21 19 17 12 27 34 34 35 34 28 29 29 30 30 27 26 28 29 33 31 32 34 35 33 34 37 36
22 13 10 7 4 12 13 17 16 14 22 22 14 6 7 14 14 15 14 14 16 19 18 15 10 12 8 21 29 31 30 29 30 30 29 31 31 29 25 27 29 31 34 32 33 35 34 38 39
8 6 14 12 13 10 8 21 17 23 24 18 13 14 11 9 14 16 16 14 17 21 18 12 10 9 1 10 22 25 25 27 27 26 29 31 30 27 23 30 30 31 33 35 35 33 36 38 39
13 11 5 2 4 5 9 16 15 13 17 23 13 11 16 16 15 15 13 13 21 22 18 13 8 6 1 5 6 12 14 19 16 20 20 20 23 22 22 23 25 29 33 35 34 33 35 35 36
10 8 6 5 7 3 5 9 3 8 18 17 20 18 17 15 15 13 15 17 19 19 18 15 13 8 5 2 4 6 8 13 14 14 13 14 17 19 22 22 21 24 28 30 34 33 33 36 31
3 13 6 5 4 7 5 12 4 10 11 13 12 16 16 18 17 17 13 12 14 12 14 16 15 14 9 3 3 5 9 14 14 15 14 15 15 16 16 17 20 23 27 29 31 32 32 34 36

GFSSGP_925_spd_126.txt.gz
Wind_Speed
4 4 1 2 3 4 4 8 4 9 8 5 6 5 8 4 5 5 7 21 29 30 25 22 18 16 15 15 16 14 13 13 12 13 14 16 16 17 18 19 19 16 14 11 12 12 12 14 17
3 2 1 2 4 3 6 5 7 9 8 10 6 0 5 4 2 10 15 26 31 29 26 24 20 17 16 15 15 15 15 15 15 15 16 17 19 18 18 19 19 20 20 15 11 10 11 13 16
2 1 3 3 4 6 6 4 5 7 15 6 6 2 6 8 4 15 20 37 32 29 27 25 21 18 16 16 15 15 15 16 16 17 17 18 18 17 17 18 19 19 21 18 14 11 12 15 21
2 5 3 3 10 8 7 4 8 12 11 11 2 1 3 9 24 21 43 37 33 30 28 24 21 18 17 16 16 15 16 17 18 18 18 18 16 15 18 21 19 16 20 19 18 13 17 19 24
2 3 2 3 8 7 9 8 6 12 8 11 4 4 7 16 20 44 42 38 34 31 27 25 21 20 18 17 16 16 16 18 19 18 18 17 16 16 18 21 13 15 19 18 18 12 17 23 25
2 3 1 4 8 8 10 6 6 9 13 11 3 4 6 13 35 42 43 40 36 35 29 25 22 20 19 18 17 17 16 19 19 18 18 18 17 16 17 14 15 18 16 16 16 16 18 23 27
3 3 4 4 9 11 14 8 8 8 12 12 3 6 1 8 31 40 42 39 37 34 32 28 24 21 19 19 19 18 18 21 19 18 19 20 17 16 14 19 16 16 19 20 18 18 18 23 25
3 3 3 3 8 11 10 11 8 6 15 10 5 6 6 10 27 35 36 36 35 33 30 29 27 25 24 23 20 19 18 22 20 18 20 20 18 14 17 22 17 11 23 19 17 18 19 22 25
3 1 2 5 5 8 15 16 5 8 6 10 8 4 8 21 29 28 26 26 30 31 30 28 28 27 25 24 23 21 20 21 21 20 20 21 21 18 19 21 20 17 23 18 16 19 20 21 23
4 4 6 7 6 14 16 22 15 12 17 21 14 13 9 27 27 23 20 19 24 30 29 28 28 29 28 26 26 24 23 23 24 24 23 23 24 19 20 20 22 23 19 17 18 18 19 21 25
4 8 9 10 13 15 18 20 15 9 16 9 4 9 14 1 14 17 21 30 37 37 32 30 29 29 30 30 28 27 26 26 25 26 27 25 26 19 19 23 21 23 20 20 18 19 20 22 25
5 9 7 8 11 9 11 10 20 9 18 11 8 6 8 11 9 15 19 26 28 35 36 32 30 31 31 30 31 31 30 29 29 29 29 28 28 23 21 25 24 25 24 22 20 22 22 23 26
4 5 9 10 12 8 11 12 10 23 7 9 12 7 10 10 11 22 19 31 35 34 37 36 34 34 34 32 32 32 32 32 30 30 31 31 30 26 27 25 25 29 28 26 25 25 24 24 25
6 10 14 7 13 9 9 17 5 24 10 7 12 14 9 12 12 17 19 24 26 37 38 38 38 37 36 36 35 34 33 32 30 30 32 33 32 30 29 27 27 31 30 28 26 25 24 24 24
7 10 15 13 7 8 4 19 13 21 15 18 12 17 17 11 14 13 22 26 30 34 40 38 39 39 39 37 36 35 33 32 32 32 31 32 32 31 32 29 29 32 32 29 26 22 23 22 22
5 4 6 2 6 7 3 19 21 16 12 18 20 15 21 22 12 22 28 26 28 34 35 42 40 41 40 41 38 37 34 33 33 32 32 32 32 33 33 30 31 32 32 31 29 23 25 24 23
4 6 8 21 3 9 3 16 18 13 14 18 19 20 19 21 21 21 26 30 30 33 40 42 41 44 44 42 41 38 35 34 34 34 34 35 34 34 33 32 33 33 33 32 30 26 27 27 25
10 12 12 16 11 9 21 21 25 19 17 19 15 12 12 18 21 26 27 31 37 37 37 45 46 47 46 38 34 35 34 33 35 34 37 36 36 35 33 32 34 34 34 32 30 29 29 29 29
6 10 18 23 17 13 15 23 24 20 20 19 19 17 15 14 18 24 33 35 33 41 37 44 41 40 37 32 32 32 37 36 36 36 34 34 36 33 33 32 33 34 36 36 33 31 32 28 28
14 17 21 26 19 17 18 24 26 26 25 25 21 18 17 11 16 14 18 29 27 32 36 39 42 45 43 41 39 30 33 37 37 37 34 32 33 33 34 34 35 37 36 34 34 34 26 21 33
14 13 16 19 25 23 21 27 21 22 20 24 24 22 19 17 13 18 13 17 24 30 32 36 40 42 44 39 32 25 26 23 25 33 37 35 32 31 35 34 35 36 36 33 35 37 32 23 30
19 9 14 21 18 16 11 24 27 24 25 24 25 21 17 13 13 15 18 9 18 30 36 34 39 39 40 40 36 37 35 24 28 29 34 38 31 31 31 32 33 34 35 33 35 39 38 28 25
13 15 20 19 20 19 29 13 25 15 22 22 20 22 14 15 11 14 16 11 20 21 26 33 38 38 38 42 40 38 28 27 25 28 32 34 32 31 30 29 32 32 35 34 35 34 34 36 28
16 11 23 23 10 9 30 16 22 19 20 19 19 21 12 13 12 12 11 15 9 12 12 27 34 35 37 41 38 37 32 29 27 26 29 28 33 32 31 30 31 32 34 35 36 35 36 36 29
10 14 6 5 1 12 14 15 22 15 13 19 19 16 13 12 12 15 9 7 10 16 19 14 22 21 27 29 32 35 33 33 34 34 29 29 28 29 34 32 30 31 31 33 35 35 34 36 35
14 4 5 7 9 18 18 10 10 10 10 14 17 17 2 8 11 12 16 11 12 17 23 27 24 15 19 26 27 30 32 33 33 33 32 31 31 33 33 33 33 30 31 32 32 34 35 36 37
3 4 14 10 11 9 4 8 11 8 13 11 11 13 8 11 14 14 16 14 17 22 24 25 21 19 12 11 16 22 29 32 30 30 30 31 33 33 33 33 32 30 30 31 32 33 34 32 36
4 9 7 6 7 6 5 7 5 13 14 15 21 13 12 13 14 15 14 14 20 21 26 27 23 17 12 8 6 16 22 24 26 26 28 28 30 29 30 30 31 31 32 33 34 32 32 32 34
7 5 4 7 6 7 6 4 18 22 18 19 22 6 18 6 13 14 13 15 21 19 26 24 21 17 15 10 3 4 8 12 22 24 28 28 28 29 28 29 28 29 30 31 33 32 31 32 33
1 11 10 4 9 5 5 5 10 12 16 19 22 19 14 14 14 14 13 12 21 20 20 18 19 20 15 8 6 3 2 9 18 23 20 20 23 26 26 24 22 23 24 25 29 29 28 29 31

GFSSGP_925_spd_129.txt.gz
Wind_Speed
3 1 3 4 3 5 5 6 3 6 5 4 8 4 4 2 4 5 8 23 29 35 32 29 25 22 21 20 18 17 17 17 17 17 18 19 20 21 21 21 20 19 19 19 18 16 16 17 17
4 3 3 2 4 3 6 3 5 5 5 11 11 3 3 1 3 3 14 16 30 36 34 30 25 23 22 21 19 18 17 17 18 19 19 19 20 21 22 22 21 21 20 18 17 18 18 19 18
5 4 3 3 3 6 5 4 4 9 10 5 7 4 5 5 1 11 7 29 37 34 32 29 27 26 23 22 20 18 18 17 18 19 20 20 20 19 20 20 19 19 21 20 18 17 19 21 21
2 5 4 3 5 6 6 6 7 17 14 2 6 11 4 10 14 18 29 39 37 34 31 29 28 27 23 23 21 20 19 19 18 20 21 20 19 19 20 20 19 19 20 18 21 18 19 21 23
4 3 1 1 5 5 7 4 7 14 8 8 16 7 5 7 12 28 43 41 39 36 33 31 30 26 24 22 22 21 19 19 19 19 20 20 19 18 18 18 17 19 20 20 19 21 21 25 27
3 3 2 3 4 4 7 6 5 7 10 14 15 18 5 5 14 35 44 44 40 39 36 33 30 26 24 22 21 20 20 20 20 19 19 20 19 17 16 18 16 15 18 19 20 23 25 27 27
5 4 4 3 4 4 5 6 7 7 9 8 9 7 8 4 22 36 35 35 38 38 38 35 31 27 24 22 21 20 20 20 20 20 19 19 17 16 15 17 15 17 19 19 22 23 25 29 23
5 4 2 4 5 6 4 7 5 6 9 6 5 6 17 10 23 28 27 29 34 37 37 36 33 29 27 24 22 21 21 21 20 20 20 19 17 16 15 17 18 18 18 17 20 22 22 25 23
3 2 2 5 2 4 8 6 1 7 11 6 5 5 7 15 18 24 22 24 28 32 33 34 34 31 29 27 25 22 22 22 20 21 21 19 18 16 17 19 18 14 20 18 19 21 21 23 21
3 3 7 6 4 7 5 11 18 7 17 13 6 11 16 9 6 8 19 20 22 30 35 35 34 33 30 28 27 26 25 24 24 24 24 22 19 16 19 21 16 18 17 17 17 20 20 21 22
1 6 4 6 9 9 8 10 9 10 18 5 10 11 8 4 7 8 16 13 35 34 33 37 36 34 33 31 30 28 28 27 26 25 25 24 22 19 19 21 20 19 20 17 18 20 20 21 23
4 6 3 5 8 7 8 5 12 16 11 7 9 10 8 9 7 9 14 19 18 28 40 38 36 35 35 33 32 30 31 29 30 29 27 27 26 23 20 22 22 23 21 18 19 21 20 21 24
4 4 7 6 10 8 9 11 17 18 18 12 10 9 10 9 8 13 22 28 25 21 20 34 37 37 37 37 33 30 29 31 31 32 31 30 30 28 21 24 22 24 23 22 22 21 22 23 26
5 6 12 8 10 6 8 11 5 8 11 17 9 11 11 12 11 15 16 21 31 34 27 32 37 37 37 38 36 34 31 33 30 33 34 33 31 30 24 27 25 24 25 25 24 24 24 23 26
6 7 7 3 5 6 8 15 6 8 8 18 20 9 14 13 18 13 26 27 30 35 43 39 40 39 40 40 39 37 35 33 33 33 35 35 33 32 27 29 27 25 27 26 23 21 21 21 21
7 4 6 8 10 6 9 15 19 11 12 23 26 23 14 16 13 26 33 32 33 32 33 42 39 40 40 40 41 40 39 38 35 32 35 36 35 33 31 30 29 26 26 26 24 22 21 20 19
7 5 14 10 13 9 5 25 25 19 15 20 19 22 21 17 16 22 31 36 34 34 36 39 41 41 43 41 40 39 38 39 37 36 34 35 36 34 32 31 30 27 27 28 26 24 23 23 20
6 7 6 14 8 10 11 22 25 19 13 22 22 23 23 21 23 22 22 29 35 39 38 41 41 45 44 36 33 32 32 35 36 37 37 36 35 35 34 32 32 28 28 31 29 28 23 24 24
5 6 14 18 11 15 15 23 26 20 20 23 26 24 24 23 23 31 32 22 27 33 40 43 41 41 38 33 32 30 33 39 38 37 38 36 36 36 36 35 32 31 31 33 32 28 25 22 22
5 12 16 21 9 14 18 32 30 25 23 21 24 25 20 21 22 20 27 22 22 24 33 43 42 41 44 39 40 32 34 31 33 33 35 36 38 38 38 37 35 33 32 32 32 32 23 18 27
4 7 12 13 26 25 20 24 25 31 24 25 25 24 26 24 23 21 21 25 28 21 27 39 40 41 45 40 35 23 25 20 25 31 36 40 41 41 39 38 35 34 34 34 34 34 29 22 25
10 6 11 19 17 13 18 17 30 29 25 25 25 23 23 22 18 18 20 20 21 29 24 28 37 40 43 41 36 38 38 29 29 35 32 34 40 40 40 37 37 33 35 34 36 36 34 27 23
9 9 13 23 19 16 32 4 12 20 27 27 25 22 17 18 17 20 20 20 22 30 15 20 28 39 39 41 41 40 33 32 24 28 29 32 38 39 40 36 37 36 36 36 37 35 34 35 28
8 11 22 8 1 4 11 5 19 22 18 22 21 17 20 17 14 17 18 24 14 9 21 15 25 33 37 41 40 39 36 31 27 27 27 29 30 34 38 34 35 35 36 35 35 35 35 35 31
9 12 5 5 3 9 13 15 12 23 23 22 21 18 17 14 9 9 10 11 4 13 5 12 22 23 30 34 34 35 33 35 34 31 29 29 29 29 33 35 34 34 34 33 33 34 34 34 32
4 3 2 6 9 18 20 5 9 17 22 19 16 15 6 7 6 7 3 6 10 15 17 13 19 19 21 25 26 29 30 32 32 32 31 31 33 33 38 36 34 33 32 32 31 32 34 34 35
3 1 8 7 13 9 5 8 9 14 22 27 27 26 6 10 12 11 9 10 14 22 22 21 17 19 21 24 23 28 30 32 32 32 32 33 35 36 36 35 35 34 32 31 29 31 33 32 33
4 4 6 4 6 9 7 12 9 19 18 22 26 28 15 9 14 11 9 11 18 22 24 26 19 20 21 17 17 22 25 25 27 30 32 32 33 32 32 31 33 32 31 29 29 29 29 30 32
4 3 3 5 4 5 8 10 8 13 14 15 16 25 17 15 12 9 7 15 20 22 22 22 23 24 24 18 16 10 12 19 21 26 30 31 30 31 28 28 29 30 29 29 30 31 30 31 31
4 7 9 4 8 10 8 14 10 17 14 13 15 17 18 15 14 9 9 14 23 21 20 23 23 25 21 17 15 13 7 8 18 22 26 28 28 27 28 27 29 30 31 30 30 29 28 29 28

GFSSGP_925_spd_132.txt.gz
Wind_Speed
2 4 4 5 4 5 4 5 2 4 5 5 8 3 6 3 6 5 5 22 26 33 31 28 25 24 24 23 23 21 20 20 21 23 25 26 25 23 23 21 20 21 20 20 18 17 17 17 17
6 5 5 3 5 3 5 4 4 4 11 13 10 10 4 7 3 2 13 20 29 35 33 30 27 25 24 24 24 22 21 20 21 21 23 25 25 23 21 20 20 21 21 20 18 18 19 19 19
5 4 4 4 4 5 5 4 5 6 9 4 8 4 6 6 4 6 4 24 33 35 34 31 29 27 25 24 24 23 22 21 20 21 22 22 23 23 21 21 21 20 20 18 18 18 19 20 21
2 5 4 4 5 6 6 5 4 10 3 6 6 6 10 7 4 10 16 29 34 36 35 33 31 28 26 25 24 23 22 21 21 21 21 21 21 21 21 21 20 20 20 18 18 19 21 20 20
5 3 4 2 4 5 6 4 5 4 7 6 4 9 20 19 19 10 23 33 39 38 35 33 31 30 28 27 25 23 22 21 21 20 19 19 19 19 19 19 19 19 20 18 18 19 21 21 22
4 3 4 3 5 5 6 5 3 3 5 8 6 9 8 21 26 11 18 35 36 37 35 34 32 32 31 28 26 24 23 22 21 20 20 19 18 17 17 17 18 18 17 16 19 21 22 24 24
6 4 3 4 4 5 4 3 5 4 6 5 3 9 6 11 30 9 13 21 33 33 33 33 32 31 31 29 26 25 24 23 22 21 21 20 18 16 16 17 17 17 15 16 20 22 24 25 25
5 4 3 4 3 6 5 6 4 2 7 4 4 4 10 9 20 9 21 14 26 31 32 32 32 30 29 28 26 25 24 22 22 22 21 20 18 15 16 18 15 17 17 18 23 24 26 26 24
3 4 2 4 4 4 8 6 3 1 6 4 4 5 8 15 4 6 15 15 13 24 32 33 31 31 30 28 27 25 23 22 22 22 21 21 19 17 16 16 18 16 17 18 23 25 27 25 23
4 4 7 5 3 4 5 10 13 3 7 5 7 7 11 8 5 6 2 4 12 14 13 20 26 28 30 28 28 27 25 25 25 24 23 22 20 18 16 18 17 18 19 18 21 24 26 22 22
2 4 4 4 4 3 5 8 2 6 0 5 16 10 12 8 8 9 8 12 13 17 19 18 16 20 26 28 29 28 27 26 26 25 25 23 21 19 19 21 17 19 21 21 22 22 25 24 21
2 2 2 5 5 5 5 4 8 5 9 9 9 14 9 10 8 10 14 21 18 18 21 28 21 22 23 25 26 30 30 28 28 28 27 26 24 21 21 24 19 25 20 19 21 23 22 21 20
3 3 5 5 11 8 6 6 7 12 11 9 11 11 10 11 10 21 22 24 30 25 23 27 30 26 24 22 19 22 25 24 28 29 29 28 27 26 23 24 23 23 22 19 20 22 21 21 20
1 3 8 4 7 4 9 8 1 4 10 17 14 13 12 11 11 21 25 26 20 28 35 35 31 35 32 29 27 24 24 22 22 29 32 31 29 29 25 24 24 25 24 21 20 20 21 20 20
3 4 5 6 9 4 13 3 7 11 12 19 22 17 16 14 20 18 25 28 32 27 33 38 38 40 40 35 30 29 29 26 24 26 33 33 31 30 28 25 26 26 26 22 20 19 18 18 19
5 5 6 7 10 5 9 11 5 11 22 25 18 21 21 19 17 25 29 32 34 37 31 33 39 43 47 46 39 31 27 27 26 26 28 35 33 32 30 26 28 27 24 24 23 19 19 18 19
7 4 5 6 9 7 5 26 19 17 16 24 22 21 19 24 22 27 24 28 36 38 39 36 35 40 47 47 43 39 31 27 28 25 28 33 36 33 32 29 29 29 25 25 24 22 21 21 18
5 5 5 8 5 5 9 25 24 26 14 20 26 26 23 23 29 28 32 28 33 35 38 37 40 39 44 42 36 34 30 27 28 29 30 31 35 37 34 32 29 29 26 25 26 24 22 21 20
4 4 11 10 9 7 8 22 25 23 22 21 23 26 26 25 28 32 31 30 30 36 37 37 36 38 34 33 32 31 33 32 31 32 29 33 34 37 37 34 31 29 29 27 28 26 24 18 19
6 8 10 11 1 12 14 27 22 18 13 18 21 22 24 26 25 24 26 25 29 34 37 33 34 35 40 35 39 33 34 31 30 29 31 31 35 36 39 38 35 32 30 27 30 31 25 20 23
4 5 5 12 21 10 9 12 11 26 15 19 21 21 21 24 26 25 24 27 30 34 39 39 35 37 41 39 32 24 26 19 24 28 32 36 37 37 38 38 37 34 32 32 31 34 31 21 23
4 3 8 12 9 6 10 8 11 14 20 22 25 30 23 22 23 21 23 22 30 35 39 39 39 38 42 38 35 36 37 29 30 38 34 35 37 39 38 39 38 36 33 30 31 34 35 28 20
7 7 11 16 12 2 1 1 10 20 18 16 24 36 31 25 21 21 21 23 33 35 36 38 36 33 32 37 40 39 36 35 31 30 31 33 36 40 39 39 37 36 37 34 33 33 34 33 25
8 6 9 1 2 2 4 2 18 7 10 19 20 26 32 24 17 17 18 29 30 30 28 28 28 28 32 36 39 41 38 32 27 29 30 32 31 37 39 39 40 39 37 35 34 33 34 36 32
7 6 4 5 4 4 4 11 9 15 15 19 21 24 28 26 11 9 8 9 12 18 26 29 32 25 27 35 36 38 36 34 36 35 33 31 29 30 36 39 38 38 38 36 36 35 34 34 34
3 1 3 3 4 11 16 5 6 15 14 20 18 22 30 22 14 14 13 11 8 6 10 17 17 20 28 31 33 31 29 28 29 33 33 33 32 33 35 41 38 37 35 35 35 36 36 35 33
2 1 5 3 9 5 5 7 12 19 23 21 19 20 21 21 17 18 19 16 18 19 16 9 18 13 23 25 28 29 29 26 27 31 34 32 30 30 34 37 39 38 35 33 33 33 33 32 32
3 2 4 2 4 6 3 8 5 22 25 27 24 20 20 22 21 18 20 19 21 25 22 24 28 27 11 11 23 27 26 31 30 31 33 33 31 31 32 34 35 34 35 32 32 30 30 30 29
2 2 2 2 2 3 6 7 6 18 22 25 23 19 18 21 22 18 21 23 20 28 30 31 35 29 21 12 13 19 22 21 18 21 25 30 30 29 31 34 33 33 31 30 31 28 27 27 28
4 4 3 1 3 5 5 7 12 26 23 22 18 18 19 18 21 21 22 24 20 26 28 31 31 27 29 25 26 19 11 6 9 17 18 24 27 28 30 31 30 29 29 26 26 25 25 26 26